[[{"header":{"parameterUnit":"m.s-1","parameterCategory":1,"la1":30.6,"la2":29.2853,"lo1":-89.7004,"lo2":-87.6739,"dy":0.0162,"dx":0.0183,"nx":112,"ny":82,"refTime":"2023-06-09T12:00:00:Z","depth":0,"parameterNumber":2,"parameterNumberName":"U-component_of_WINDS"},"data":[0.0,0.0,0.0,0.0,0.0,0.0,0.0,0.0,0.0,0.0,0.0,0.0,0.0,0.0,0.0,0.0,0.0,0.0,0.0,0.0,0.0,0.0,0.0,0.0,0.0,0.0,0.0,0.0,0.0,0.0,0.0,0.0,0.0,0.0,0.0,0.0,0.0,0.0,0.0,0.0,0.0,0.0,0.0,0.0,0.0,0.0,0.0,0.0,0.0,0.0,0.0,0.0,0.0,0.0,0.0,0.0,0.0,0.0,0.0,0.0,0.0,0.0,0.0,0.0,0.0,0.0,0.0,0.0,0.0,0.0,0.0,0.0,0.0,0.0,0.0,0.0,0.0,0.0,0.0,0.0,0.0,0.0,0.0,0.0,0.0,0.0,0.0,0.0,0.0,0.0,-4.3834,-4.588,-4.938,-5.177,-5.2268,-5.1645,-4.9916,-4.6867,0.0,0.0,0.0,0.0,0.0,0.0,0.0,0.0,0.0,0.0,0.0,0.0,0.0,0.0,0.0,0.0,0.0,0.0,0.0,0.0,0.0,0.0,0.0,0.0,0.0,0.0,0.0,0.0,0.0,0.0,0.0,0.0,0.0,0.0,0.0,0.0,0.0,0.0,0.0,0.0,0.0,0.0,0.0,0.0,0.0,0.0,0.0,0.0,0.0,0.0,0.0,0.0,0.0,0.0,0.0,0.0,0.0,0.0,0.0,0.0,0.0,0.0,0.0,0.0,0.0,0.0,0.0,0.0,0.0,0.0,0.0,0.0,0.0,0.0,0.0,0.0,0.0,0.0,0.0,0.0,0.0,0.0,0.0,0.0,0.0,0.0,0.0,0.0,0.0,0.0,0.0,0.0,0.0,0.0,0.0,0.0,0.0,0.0,0.0,0.0,0.0,0.0,0.0,0.0,-4.3777,-4.7497,-5.0018,-5.1334,-5.1105,-5.0595,-4.9134,-4.6372,0.0,0.0,0.0,0.0,0.0,0.0,0.0,0.0,0.0,0.0,0.0,0.0,0.0,0.0,0.0,0.0,0.0,0.0,0.0,0.0,0.0,0.0,0.0,0.0,0.0,0.0,0.0,0.0,0.0,0.0,0.0,0.0,0.0,0.0,0.0,0.0,0.0,0.0,0.0,0.0,0.0,0.0,0.0,0.0,0.0,0.0,0.0,0.0,0.0,0.0,0.0,0.0,0.0,0.0,0.0,0.0,0.0,0.0,0.0,0.0,0.0,0.0,0.0,0.0,0.0,0.0,0.0,0.0,0.0,0.0,0.0,0.0,0.0,0.0,0.0,0.0,0.0,0.0,0.0,0.0,0.0,0.0,0.0,0.0,0.0,0.0,0.0,0.0,0.0,0.0,0.0,0.0,0.0,0.0,0.0,0.0,0.0,0.0,0.0,0.0,0.0,0.0,0.0,-4.3246,-4.5234,-4.8741,-4.9798,-5.0462,-5.0969,-5.0256,-4.8696,-4.6096,-4.5122,0.0,0.0,0.0,0.0,0.0,0.0,0.0,0.0,0.0,0.0,0.0,0.0,0.0,0.0,0.0,0.0,0.0,0.0,0.0,0.0,0.0,0.0,0.0,0.0,0.0,0.0,0.0,0.0,0.0,0.0,0.0,0.0,0.0,0.0,0.0,0.0,0.0,0.0,0.0,0.0,0.0,0.0,0.0,0.0,0.0,0.0,0.0,0.0,0.0,0.0,0.0,0.0,0.0,0.0,0.0,0.0,0.0,0.0,0.0,0.0,0.0,0.0,0.0,0.0,0.0,0.0,0.0,0.0,0.0,0.0,0.0,0.0,0.0,0.0,0.0,0.0,0.0,0.0,0.0,0.0,0.0,0.0,0.0,0.0,0.0,0.0,0.0,0.0,0.0,0.0,0.0,0.0,0.0,0.0,0.0,0.0,0.0,0.0,0.0,0.0,0.0,0.0,-4.5328,-4.6723,-4.9194,-4.968,-5.0044,-5.059,-4.9758,-4.8129,-4.5648,-4.4337,0.0,0.0,0.0,0.0,0.0,0.0,0.0,0.0,0.0,0.0,0.0,0.0,0.0,0.0,0.0,0.0,0.0,0.0,0.0,0.0,0.0,0.0,0.0,0.0,0.0,0.0,0.0,0.0,0.0,0.0,0.0,0.0,0.0,0.0,0.0,0.0,0.0,0.0,0.0,0.0,0.0,0.0,0.0,0.0,0.0,0.0,0.0,0.0,0.0,0.0,0.0,0.0,0.0,0.0,0.0,0.0,0.0,0.0,0.0,0.0,0.0,0.0,0.0,0.0,0.0,0.0,0.0,0.0,0.0,0.0,0.0,0.0,0.0,0.0,0.0,0.0,0.0,0.0,0.0,0.0,0.0,0.0,0.0,0.0,0.0,0.0,0.0,0.0,0.0,0.0,0.0,0.0,0.0,0.0,0.0,0.0,0.0,0.0,0.0,0.0,0.0,0.0,-4.5755,-4.7499,-4.8398,-5.0151,-5.0655,-4.9199,-4.8531,-4.7169,-4.4748,-4.3512,0.0,0.0,0.0,0.0,0.0,0.0,0.0,0.0,0.0,0.0,0.0,0.0,0.0,0.0,0.0,0.0,0.0,0.0,0.0,0.0,0.0,0.0,0.0,0.0,0.0,0.0,0.0,0.0,0.0,0.0,0.0,0.0,0.0,0.0,0.0,0.0,0.0,0.0,0.0,0.0,0.0,0.0,0.0,0.0,0.0,0.0,0.0,0.0,0.0,0.0,0.0,0.0,0.0,0.0,0.0,0.0,0.0,0.0,0.0,0.0,0.0,0.0,0.0,0.0,0.0,0.0,0.0,0.0,0.0,0.0,0.0,0.0,0.0,0.0,0.0,0.0,0.0,0.0,0.0,0.0,0.0,0.0,0.0,0.0,0.0,0.0,0.0,0.0,0.0,0.0,0.0,0.0,0.0,0.0,0.0,0.0,0.0,0.0,0.0,0.0,0.0,0.0,-4.4862,-4.6292,-4.8364,-4.8703,-4.8897,-4.9144,-4.8014,-4.6465,-4.4491,0.0,0.0,0.0,0.0,0.0,0.0,0.0,0.0,0.0,0.0,0.0,0.0,0.0,0.0,0.0,0.0,0.0,0.0,0.0,0.0,0.0,0.0,0.0,0.0,0.0,0.0,0.0,0.0,0.0,0.0,0.0,0.0,0.0,0.0,0.0,0.0,0.0,0.0,0.0,0.0,0.0,0.0,0.0,0.0,0.0,0.0,0.0,0.0,0.0,0.0,0.0,0.0,0.0,0.0,0.0,0.0,0.0,0.0,0.0,0.0,0.0,0.0,0.0,0.0,0.0,0.0,0.0,0.0,0.0,0.0,0.0,0.0,0.0,0.0,0.0,0.0,0.0,0.0,0.0,0.0,0.0,0.0,0.0,0.0,0.0,0.0,0.0,0.0,0.0,0.0,0.0,0.0,0.0,0.0,0.0,0.0,0.0,0.0,0.0,0.0,0.0,0.0,-4.3767,-4.4392,-4.5558,-4.7965,-4.7804,-4.7823,-4.8456,-4.7011,-4.5468,-4.4035,0.0,0.0,0.0,0.0,0.0,0.0,0.0,0.0,0.0,0.0,0.0,0.0,0.0,0.0,0.0,0.0,0.0,0.0,0.0,0.0,0.0,0.0,0.0,0.0,0.0,0.0,0.0,0.0,0.0,0.0,0.0,0.0,0.0,0.0,0.0,0.0,0.0,0.0,0.0,0.0,0.0,0.0,0.0,0.0,0.0,0.0,0.0,0.0,0.0,0.0,0.0,0.0,0.0,0.0,0.0,0.0,0.0,0.0,0.0,0.0,0.0,0.0,0.0,0.0,0.0,0.0,0.0,0.0,0.0,0.0,0.0,0.0,0.0,0.0,0.0,0.0,0.0,0.0,0.0,0.0,0.0,0.0,0.0,0.0,0.0,0.0,0.0,0.0,0.0,0.0,0.0,0.0,0.0,0.0,0.0,0.0,0.0,0.0,0.0,0.0,0.0,0.0,-4.3588,-4.4589,-4.5628,-4.7027,-4.784,-4.7875,-4.6881,-4.5398,-4.4135,0.0,0.0,0.0,0.0,0.0,0.0,0.0,0.0,0.0,0.0,0.0,0.0,0.0,0.0,0.0,0.0,0.0,0.0,0.0,0.0,0.0,0.0,0.0,0.0,0.0,0.0,0.0,0.0,0.0,0.0,0.0,0.0,0.0,0.0,0.0,0.0,0.0,0.0,0.0,0.0,0.0,0.0,0.0,0.0,0.0,0.0,0.0,0.0,0.0,0.0,0.0,0.0,0.0,0.0,0.0,0.0,0.0,0.0,0.0,0.0,0.0,0.0,0.0,0.0,0.0,0.0,0.0,0.0,0.0,0.0,0.0,0.0,0.0,0.0,0.0,0.0,0.0,0.0,0.0,0.0,0.0,0.0,0.0,0.0,0.0,0.0,0.0,0.0,0.0,0.0,0.0,0.0,0.0,0.0,0.0,0.0,0.0,0.0,0.0,0.0,0.0,0.0,0.0,-4.2824,-4.3623,-4.4683,-4.6131,-4.6352,-4.6508,-4.6785,-4.5295,-4.4034,-4.3241,0.0,0.0,0.0,0.0,0.0,0.0,0.0,0.0,0.0,0.0,0.0,0.0,0.0,0.0,0.0,0.0,0.0,0.0,0.0,0.0,0.0,0.0,0.0,0.0,0.0,0.0,0.0,0.0,0.0,0.0,0.0,0.0,0.0,0.0,0.0,0.0,0.0,0.0,0.0,0.0,0.0,0.0,0.0,0.0,0.0,0.0,0.0,0.0,0.0,0.0,0.0,0.0,0.0,0.0,0.0,0.0,0.0,0.0,0.0,0.0,0.0,0.0,0.0,0.0,0.0,0.0,0.0,0.0,0.0,0.0,0.0,0.0,0.0,0.0,0.0,0.0,0.0,0.0,0.0,0.0,0.0,0.0,0.0,0.0,0.0,0.0,0.0,0.0,0.0,0.0,0.0,0.0,0.0,0.0,0.0,0.0,0.0,0.0,0.0,0.0,0.0,0.0,-4.2515,-4.2934,-4.3613,-4.4786,-4.4808,-4.4897,-4.5321,-4.4155,-4.3189,-4.2758,0.0,0.0,0.0,0.0,0.0,0.0,0.0,0.0,0.0,0.0,0.0,0.0,0.0,0.0,0.0,0.0,0.0,0.0,0.0,0.0,0.0,0.0,0.0,0.0,0.0,0.0,0.0,0.0,0.0,0.0,0.0,0.0,0.0,0.0,0.0,0.0,0.0,0.0,0.0,0.0,0.0,0.0,0.0,0.0,0.0,0.0,0.0,0.0,0.0,0.0,0.0,0.0,0.0,0.0,0.0,0.0,0.0,0.0,0.0,0.0,0.0,0.0,0.0,0.0,0.0,0.0,0.0,0.0,0.0,0.0,0.0,0.0,0.0,0.0,0.0,0.0,0.0,0.0,0.0,0.0,0.0,0.0,0.0,0.0,0.0,0.0,0.0,0.0,0.0,0.0,0.0,0.0,0.0,0.0,0.0,0.0,0.0,0.0,0.0,0.0,0.0,0.0,-4.2364,-4.2428,-4.2623,-4.3197,-4.3336,-4.3338,-4.3214,-4.2465,-4.2016,-4.2016,0.0,0.0,0.0,0.0,0.0,0.0,0.0,0.0,0.0,0.0,0.0,0.0,0.0,0.0,0.0,0.0,0.0,0.0,0.0,0.0,0.0,0.0,0.0,0.0,0.0,0.0,0.0,0.0,0.0,0.0,0.0,0.0,0.0,0.0,0.0,0.0,0.0,0.0,0.0,0.0,0.0,0.0,0.0,0.0,0.0,0.0,0.0,0.0,0.0,0.0,0.0,0.0,0.0,0.0,0.0,0.0,0.0,0.0,0.0,0.0,-4.3097,0.0,0.0,0.0,0.0,0.0,0.0,0.0,0.0,0.0,0.0,0.0,0.0,0.0,0.0,0.0,0.0,0.0,0.0,0.0,0.0,0.0,0.0,0.0,0.0,0.0,0.0,0.0,0.0,0.0,0.0,0.0,0.0,0.0,0.0,0.0,0.0,0.0,0.0,0.0,0.0,0.0,-4.1435,-4.1886,-4.2272,-4.2289,-4.2876,-4.3214,-4.3189,-4.2465,-4.2016,-4.2016,-4.0483,0.0,0.0,0.0,0.0,0.0,0.0,0.0,0.0,0.0,0.0,0.0,0.0,0.0,0.0,0.0,0.0,0.0,0.0,0.0,0.0,0.0,0.0,0.0,0.0,0.0,0.0,0.0,0.0,0.0,0.0,0.0,0.0,0.0,0.0,0.0,0.0,0.0,0.0,0.0,0.0,0.0,0.0,0.0,0.0,0.0,0.0,0.0,0.0,0.0,0.0,0.0,0.0,0.0,0.0,0.0,0.0,0.0,0.0,0.0,0.0,-4.3784,0.0,0.0,0.0,0.0,0.0,0.0,0.0,0.0,0.0,0.0,0.0,0.0,0.0,0.0,0.0,0.0,0.0,0.0,0.0,0.0,0.0,0.0,0.0,0.0,0.0,0.0,0.0,0.0,0.0,0.0,0.0,0.0,0.0,0.0,0.0,0.0,0.0,0.0,0.0,0.0,-4.1006,-4.1233,-4.136,-4.1288,-4.1648,-4.1913,-4.1913,-4.1511,-4.1312,-4.136,-4.0199,0.0,0.0,0.0,0.0,0.0,0.0,0.0,0.0,0.0,0.0,0.0,0.0,0.0,0.0,0.0,0.0,0.0,0.0,0.0,0.0,0.0,0.0,0.0,0.0,0.0,0.0,0.0,0.0,0.0,0.0,0.0,0.0,0.0,0.0,0.0,0.0,0.0,0.0,0.0,0.0,0.0,0.0,0.0,0.0,0.0,0.0,0.0,0.0,0.0,0.0,0.0,0.0,0.0,-4.7937,-4.7922,-4.7613,-4.7617,-4.7461,-4.7095,-4.6297,-4.5635,-4.5037,-4.43,0.0,0.0,0.0,0.0,0.0,0.0,0.0,0.0,0.0,0.0,0.0,0.0,0.0,0.0,0.0,0.0,0.0,0.0,0.0,0.0,0.0,0.0,0.0,0.0,-4.2945,-4.261,-4.1659,0.0,0.0,0.0,0.0,0.0,0.0,0.0,0.0,0.0,0.0,0.0,-4.084,-4.0631,-4.051,-4.051,-4.051,-4.051,-4.051,-4.051,-4.0558,-4.0673,-3.985,-3.945,0.0,0.0,0.0,0.0,0.0,0.0,0.0,0.0,0.0,0.0,0.0,0.0,0.0,0.0,0.0,0.0,0.0,0.0,0.0,0.0,0.0,0.0,0.0,0.0,0.0,0.0,0.0,0.0,0.0,0.0,0.0,0.0,-4.2233,-4.2928,0.0,0.0,0.0,0.0,0.0,0.0,0.0,0.0,0.0,0.0,0.0,0.0,0.0,-4.5755,-4.7165,-4.7975,-4.8317,-4.8209,-4.9154,-4.9331,-4.8784,-4.896,-4.9146,-4.9275,-4.903,0.0,-4.5815,-4.5501,0.0,0.0,0.0,0.0,0.0,0.0,0.0,0.0,0.0,0.0,0.0,0.0,0.0,0.0,0.0,0.0,0.0,0.0,0.0,0.0,0.0,0.0,-4.3257,-4.2843,-4.2732,-4.268,0.0,-4.2282,-4.1957,-4.1677,-4.1226,0.0,0.0,0.0,0.0,0.0,0.0,0.0,-4.0583,-4.0534,-4.051,-4.051,-4.051,-4.051,-4.051,-4.051,-4.051,-4.0534,-3.9705,-3.9562,-4.0322,-3.8829,0.0,0.0,0.0,0.0,0.0,0.0,0.0,0.0,0.0,0.0,0.0,0.0,0.0,0.0,0.0,0.0,0.0,0.0,0.0,0.0,0.0,0.0,0.0,0.0,0.0,0.0,0.0,0.0,0.0,-4.1939,-4.2928,-4.2837,-4.3002,-4.2581,0.0,0.0,0.0,0.0,0.0,0.0,0.0,0.0,0.0,-4.6491,-4.7219,-4.8115,-4.9287,-5.0049,-5.042,-5.0449,-5.085,-5.0844,-5.0524,-5.0457,-5.0397,-5.0346,-5.0194,-4.9482,-4.838,-4.7394,-4.6092,-4.4651,0.0,0.0,0.0,0.0,-4.3029,-4.3327,-4.3134,-4.3588,-4.4194,-4.4012,0.0,0.0,0.0,0.0,0.0,0.0,0.0,0.0,0.0,0.0,-4.3545,-4.3719,-4.3763,-4.3763,-4.3763,-4.3248,-4.2595,0.0,-4.1856,-4.17,-4.1026,0.0,0.0,0.0,0.0,-4.051,-4.0387,-4.0337,-4.0288,-4.0288,-4.0288,-4.0288,-4.0288,-4.0288,-4.0313,-4.0387,-3.9974,-3.9898,-4.0387,-3.9617,-3.9357,0.0,0.0,0.0,0.0,0.0,0.0,0.0,0.0,0.0,0.0,0.0,0.0,0.0,0.0,0.0,0.0,0.0,0.0,0.0,0.0,0.0,0.0,0.0,0.0,0.0,0.0,0.0,0.0,-4.3149,-4.4121,-4.3314,-4.4654,-4.4654,0.0,0.0,0.0,0.0,0.0,0.0,-4.616,-4.663,-4.732,-4.8351,-4.9295,-5.0199,-5.0987,-5.1571,-5.1932,-5.2102,-5.1932,-5.1808,-5.169,-5.141,-5.1141,-5.0891,-5.0729,-5.0564,-5.0293,-4.8916,-4.7471,-4.6073,-4.5649,-4.486,-4.3984,-4.3999,-4.4354,-4.4828,-4.4841,-4.5418,-4.6065,-4.5301,-4.4593,-4.3802,-4.2578,0.0,0.0,0.0,0.0,-4.286,-4.3403,-4.3637,-4.3859,-4.4479,-4.4615,-4.4615,-4.4615,-4.413,-4.3417,0.0,-4.2262,-4.2048,-4.1184,0.0,0.0,0.0,0.0,-4.0305,-4.0238,-4.0163,-4.0096,-4.0096,-4.0096,-4.0096,-4.0096,-4.0096,-4.0138,-4.0238,-4.0163,-4.0163,-4.0288,-4.0213,-4.0163,-4.0196,0.0,0.0,0.0,0.0,0.0,0.0,0.0,0.0,0.0,0.0,0.0,0.0,0.0,0.0,0.0,0.0,0.0,0.0,0.0,0.0,0.0,0.0,0.0,0.0,0.0,0.0,0.0,0.0,0.0,-4.581,-4.715,0.0,0.0,0.0,0.0,-4.5607,-4.6674,-4.7698,-4.8583,-4.8469,-4.9095,-5.0664,-5.0665,-5.1023,-5.1811,-5.1747,-5.184,-5.2102,-5.184,-5.169,-5.169,-5.141,-5.1141,-5.0891,-5.0891,-5.071,-5.0317,-4.9424,-4.8488,-4.7596,-4.7562,-4.6631,-4.5363,-4.5799,-4.5979,-4.5873,-4.4947,-4.5185,-4.592,-4.6009,-4.5525,-4.479,-4.4004,-4.3051,0.0,0.0,-4.2884,-4.3369,-4.3403,-4.3961,-4.4564,-4.4598,-4.4615,-4.4615,-4.4615,-4.4581,-4.431,0.0,-4.2202,-4.1315,-4.1367,0.0,-4.0305,-4.033,-4.0305,-4.0238,-4.0138,-4.0096,-4.0096,-4.0096,-4.0096,-4.0096,-4.0096,-4.0096,-4.0096,-4.0113,-4.0096,-4.0163,-4.0288,-4.0288,-4.0337,-4.0485,-3.9657,0.0,0.0,0.0,0.0,0.0,0.0,0.0,0.0,0.0,0.0,0.0,0.0,0.0,0.0,0.0,0.0,0.0,0.0,0.0,0.0,0.0,0.0,0.0,0.0,0.0,0.0,0.0,0.0,-4.8252,-4.9242,0.0,-4.7939,-4.805,-4.8366,-4.8705,-4.9322,-5.0095,-5.1004,-5.0825,-5.0952,-5.1526,-5.1404,-5.1479,-5.1783,-5.1715,-5.174,-5.184,-5.1564,-5.1436,-5.1436,-5.1167,-5.0998,-5.0891,-5.0891,-5.071,-5.0345,-4.9542,-4.8907,-4.8396,-4.8396,-4.7775,-4.6896,-4.6979,-4.7289,-4.7655,-4.7181,-4.7237,-4.7261,-4.5849,-4.4957,-4.4283,-4.3546,-4.3382,-4.3484,-4.351,-4.396,-4.4433,-4.4433,-4.4654,-4.4858,-4.4858,-4.4858,-4.4831,-4.4765,-4.482,-4.4746,-4.4364,-4.301,-4.1662,-4.0824,-4.0408,-4.0188,-4.0305,-4.0213,-4.0163,-4.0113,-4.0096,-4.0096,-4.0096,-4.051,-4.0612,-4.0146,-4.0527,-4.0595,-4.013,-4.0096,-4.0138,-4.0163,-4.0238,-4.033,-4.0362,-4.0156,-4.018,0.0,0.0,0.0,0.0,0.0,0.0,0.0,0.0,0.0,0.0,0.0,0.0,0.0,0.0,0.0,0.0,0.0,0.0,0.0,0.0,0.0,0.0,0.0,0.0,0.0,0.0,-4.8838,-4.9133,-5.0839,-5.1353,-4.9682,-5.0201,-5.0646,-5.0732,-5.1053,-5.1521,-5.2132,-5.1956,-5.1833,-5.1833,-5.1758,-5.169,-5.169,-5.174,-5.179,-5.184,-5.1531,-5.1402,-5.141,-5.1061,-5.0891,-5.0891,-5.0891,-5.0579,-5.007,-4.9836,-4.9382,-4.8877,-4.8821,-4.8344,-4.7741,-4.8117,-4.8249,-4.8238,-4.8408,-4.8482,-4.8174,-4.6467,-4.5424,-4.4705,-4.3984,-4.4035,-4.4403,-4.4403,-4.4683,-4.5005,-4.5005,-4.5005,-4.5005,-4.5005,-4.5005,-4.4951,-4.4831,-4.4886,-4.4801,-4.4425,-4.3257,-4.2087,-4.1206,-4.0731,-4.051,-4.0603,-4.0536,-4.046,-4.046,-4.0265,-4.0096,-4.0096,-4.0527,-4.0629,-4.0146,-4.0595,-4.0663,-4.013,-4.0138,-4.0188,-4.0221,-4.0313,-4.0412,-4.0485,-4.051,-4.027,-3.9775,0.0,0.0,0.0,0.0,0.0,0.0,0.0,0.0,0.0,0.0,0.0,0.0,0.0,0.0,0.0,0.0,0.0,0.0,0.0,0.0,0.0,0.0,0.0,-4.603,-4.8142,-4.939,-4.8581,-5.1977,-5.3151,-5.0051,-5.2171,-5.3117,-5.155,-5.1706,-5.1907,-5.1925,-5.1783,-5.169,-5.169,-5.169,-5.169,-5.169,-5.1833,-5.1956,-5.2078,-5.1683,-5.1556,-5.1665,-5.1141,-5.0891,-5.0891,-5.0891,-5.0371,-4.9571,-5.027,-4.992,-4.8955,-4.8866,-4.8407,-4.7896,-4.9234,-4.8798,-4.7665,-4.8335,-4.8575,-4.8466,-4.7834,-4.7004,-4.6148,-4.5427,-4.5113,-4.5005,-4.5005,-4.5005,-4.5005,-4.5005,-4.5005,-4.5005,-4.5005,-4.4988,-4.4944,-4.4797,-4.4769,-4.4521,-4.3582,-4.2945,-4.2541,-4.2507,-4.1799,-4.1238,-4.1238,-4.1238,0.0,-4.1204,-4.0561,-4.013,-4.0113,-4.013,-4.013,-4.0113,-4.023,-4.0272,-4.0113,-4.0213,-4.0337,-4.0485,-4.051,-4.0631,-4.0894,-4.0655,-3.9809,-3.8373,0.0,0.0,0.0,0.0,0.0,0.0,0.0,0.0,0.0,0.0,0.0,0.0,0.0,0.0,0.0,0.0,0.0,0.0,0.0,0.0,0.0,0.0,-4.7407,-4.9205,-5.0527,-5.1665,-5.2619,-5.3206,-5.3408,-5.3115,-5.2907,-5.2686,-5.2448,-5.2006,-5.1858,-5.2011,-5.1815,-5.169,-5.169,-5.169,-5.169,-5.169,-5.1833,-5.1783,-5.1513,-5.1505,-5.1376,-5.1114,-5.0972,-5.0891,-5.0891,-5.0891,-5.0371,-4.9518,-4.9738,-4.9164,-4.8308,-4.9388,-4.9268,-4.8603,-4.9574,-4.9677,-4.9195,-4.8253,-4.7944,-4.7748,-4.6448,-4.5853,-4.5602,-4.5396,-4.5318,-4.5291,-4.5291,-4.5291,-4.5291,-4.5291,-4.5291,-4.5291,-4.5291,-4.4887,-4.4466,-4.4308,-4.4361,-4.4292,-4.3866,-4.3617,-4.3267,-4.2494,-4.2144,-4.1999,-4.1999,-4.1999,0.0,-4.1271,-4.1018,-4.0747,-4.0306,-4.0713,-4.0815,-4.0289,-4.0756,-4.0815,-4.013,-4.0121,-4.0213,-4.0337,-4.0461,-4.0631,-4.0894,-4.0745,-4.0394,0.0,0.0,0.0,0.0,0.0,0.0,0.0,0.0,0.0,0.0,0.0,0.0,0.0,0.0,0.0,0.0,0.0,0.0,0.0,0.0,0.0,0.0,-4.7259,-4.8985,-5.1463,-5.1922,-5.2472,-5.3757,-5.3794,-5.3757,-5.3885,-5.3303,-5.2984,-5.3208,-5.2624,-5.2366,-5.2514,-5.2366,-5.2105,-5.1708,-5.169,-5.1733,-5.1765,-5.1932,-5.1833,-5.1538,-5.1582,-5.1402,-5.1061,-5.0945,-5.0891,-5.0891,-5.0891,-5.0407,-4.9599,-4.9941,-4.9491,0.0,0.0,0.0,0.0,0.0,-4.9235,-4.9309,-4.8103,-4.7689,-4.7482,-4.6276,-4.5897,-4.5828,-4.55,-4.5397,-4.5397,-4.5397,-4.5397,-4.5397,-4.5397,-4.5397,-4.5397,-4.5397,-4.5079,-4.4725,-4.4594,-4.438,-4.4242,-4.4331,-4.4036,0.0,-4.3403,-4.3034,-4.276,-4.276,-4.276,-4.2608,-4.2185,-4.1593,-4.1077,-4.0714,-4.0773,-4.0807,-4.0705,-4.0841,0.0,0.0,0.0,-4.0238,-4.0387,-4.051,0.0,0.0,0.0,-4.0673,-4.0583,-4.0436,0.0,0.0,-4.0051,-3.9992,0.0,0.0,0.0,0.0,0.0,0.0,0.0,0.0,0.0,0.0,0.0,0.0,0.0,0.0,0.0,0.0,-4.9018,-5.0472,-5.2876,-5.2582,-5.2399,-5.3133,-5.383,-5.3977,-5.328,-5.3449,-5.3642,-5.3662,-5.3345,-5.3086,-5.3021,0.0,0.0,0.0,0.0,-5.1758,-5.1882,-5.2029,-5.2005,-5.1833,-5.174,-5.1538,-5.1246,-5.1025,-5.0891,-5.0891,-5.0891,-5.0434,-4.9776,-5.0584,-5.0406,-4.9569,-4.9236,-4.8581,-4.7793,-4.7724,-4.8103,-4.8568,-4.781,0.0,0.0,-4.6717,-4.6475,-4.631,-4.5621,-4.5397,-4.5397,-4.5397,-4.5397,-4.5397,-4.5397,-4.5328,-4.5276,-4.5276,-4.5139,-4.5009,-4.4972,-4.4474,-4.4181,-4.4785,-4.4282,-4.3987,-4.4684,-4.4105,-4.3527,-4.3527,-4.3527,-4.3494,-4.3409,-4.2269,-4.1424,-4.1365,0.0,0.0,-4.1297,-4.0858,-4.0747,-4.117,-4.0637,-4.0337,-4.0485,-4.0624,-4.0745,-4.0888,-4.0769,-4.0697,-4.0697,-4.0558,-4.0436,-4.0305,-4.0188,-4.0096,0.0,0.0,0.0,0.0,0.0,0.0,0.0,0.0,0.0,0.0,0.0,0.0,0.0,0.0,0.0,-4.7937,-4.9553,-5.1169,-5.2947,-5.3078,-5.3041,-5.3167,-5.3332,-5.3369,-5.3203,-5.3535,-5.3558,-5.3034,-5.3177,-5.3043,-5.2468,-5.2263,-5.2043,-5.1875,-5.1758,-5.1715,-5.174,-5.198,-5.1864,-5.1428,0.0,0.0,-5.0972,-5.0918,-5.0891,-5.0891,-5.0891,-5.0434,-4.9776,-5.0584,-5.0622,-5.0164,-4.9389,-4.8892,-4.8517,-4.7913,-4.7775,-4.7793,-4.7079,-4.682,-4.67,-4.588,-4.5621,-4.5604,-4.5449,-4.5397,0.0,-4.5397,-4.5397,-4.5397,-4.5397,-4.4958,-4.4492,-4.4492,-4.3544,-4.2837,-4.3457,-4.3467,-4.3562,-4.4147,-4.4529,-4.4753,-4.4786,-4.4563,-4.4378,-4.4378,-4.4378,-4.413,-4.3477,-4.3139,-4.2787,-4.23,-4.2123,-4.2089,-4.2241,-4.2149,-4.1808,-4.1238,-4.0637,-4.0305,-4.0337,-4.0576,-4.0697,-4.0745,-4.0721,-4.0697,-4.0697,-4.0558,-4.0436,-4.0305,-4.0263,-4.0213,0.0,0.0,0.0,0.0,0.0,0.0,0.0,0.0,0.0,0.0,0.0,-4.3789,0.0,0.0,-4.7562,-4.9612,-5.0758,-5.1811,-5.3041,-5.3185,-5.3185,-5.3185,-5.3185,-5.3371,-5.3775,-5.3861,-5.4105,-5.457,-5.4623,-5.4296,-5.3538,-5.3306,-5.283,-5.2041,-5.179,-5.1765,-5.1889,-5.2036,-5.1914,-5.1607,-5.1665,-5.1487,-5.1088,-5.0972,-5.0891,-5.0891,-5.0891,-5.0434,-4.9706,-4.9697,-5.0019,-5.0422,-4.9552,-4.9035,-4.8758,-4.8379,-4.7775,-4.7113,-4.6734,-4.6355,-4.5931,-4.5535,-4.5397,-4.5397,-4.5397,-4.5397,-4.5397,-4.5397,-4.5397,-4.5397,-4.5397,-4.5121,-4.4751,-4.4397,-4.3975,-4.3716,-4.3741,-4.3741,-4.3958,-4.4638,-4.4644,-4.4631,-4.4872,-4.4776,-4.4682,-4.4598,-4.4615,-4.4462,-4.4045,-4.3656,-4.3267,-4.2993,-4.263,-4.2562,-4.2908,-4.2603,-4.1908,-4.0739,-4.0366,-4.0263,-4.0387,-4.0534,-4.0655,-4.0793,-4.0793,-4.0769,-4.0697,-4.0648,-4.0534,-4.0387,-4.0387,-4.0288,0.0,0.0,0.0,0.0,0.0,0.0,0.0,0.0,-4.3305,-4.4879,-4.5202,-4.5775,-4.765,-4.8273,-4.92,-5.132,-5.1873,-5.227,-5.3096,-5.3185,-5.3259,-5.3427,-5.3424,-5.3702,-5.4344,-5.4458,-5.4907,-5.5845,-5.6001,-5.5667,-5.4778,-5.4575,-5.3835,-5.242,-5.2097,-5.1976,-5.2102,-5.2102,-5.2029,-5.1907,-5.1765,-5.1564,-5.1298,-5.1008,-5.0803,-5.0645,-5.0487,-5.0224,-4.9864,-4.8907,-4.9337,-5.0515,-4.9635,-4.9014,-4.8625,-4.8614,-4.762,-4.6372,-4.6372,-4.5931,-4.5397,-4.5397,-4.5397,-4.5397,-4.5397,-4.5397,-4.5397,-4.5397,-4.5397,-4.5397,-4.5397,-4.5276,-4.5044,-4.4449,-4.463,-4.4854,-4.4397,-4.4311,-4.4535,-4.5259,-4.4819,-4.4464,-4.4957,-4.494,-4.4776,-4.4626,-4.4615,-4.4615,-4.4615,-4.4028,-4.3639,-4.3639,-4.3098,-4.2912,-4.3341,-4.2726,-4.1728,-4.0417,-4.018,-4.0196,-4.0461,-4.0485,-4.0607,-4.0864,-4.0888,-4.084,-4.0745,-4.0745,-4.0673,-4.0534,-4.051,-4.0387,-3.7156,-3.8208,-3.9914,-4.2421,-4.3297,-4.4545,0.0,0.0,-4.7761,-4.8287,-4.8866,-4.9213,-4.9055,-4.9731,-5.0678,-5.1789,-5.1995,-5.227,-5.3096,-5.3185,-5.3482,-5.4179,-5.4271,-5.4308,-5.4399,-5.555,-5.5747,-5.4369,-5.5436,-5.5789,-5.4919,-5.4564,-5.4076,-5.3376,-5.2971,-5.2555,-5.2102,-5.2102,-5.2029,-5.1907,-5.1765,-5.1564,-5.1298,-5.1008,-5.0504,-4.9811,-4.9082,-4.9539,-5.0645,-4.9135,-4.9337,-5.0515,-4.9635,-4.8784,-4.7996,-4.7865,-4.6845,-4.5535,-4.5535,-4.5483,-4.5397,-4.5397,-4.5397,-4.5397,-4.5397,-4.5397,-4.5397,-4.5397,-4.5397,-4.5397,-4.5397,-4.4906,-4.4414,-4.4328,-4.3862,-4.3603,-4.4173,-4.4311,-4.4535,-4.5259,-4.5249,-4.5091,-4.5177,-4.5059,-4.4886,-4.4626,-4.4615,-4.4615,-4.4615,-4.453,-4.4479,-4.4479,-4.4395,-4.4079,-4.3443,-4.2726,-4.1948,-4.1136,-4.0468,-4.0163,-4.033,-4.0436,-4.0558,-4.0721,-4.084,-4.0894,-4.0888,-4.0888,-4.0817,-4.0673,-4.0558,-4.0412,-3.9271,-4.0276,-4.1529,-4.3607,-4.5123,-4.6654,-4.8891,-4.8955,-4.8924,-5.017,-5.0498,-5.0751,-5.1209,-5.1627,-5.2038,0.0,-5.265,-5.2821,-5.3148,-5.3185,-5.35,-5.4308,-5.4803,-5.528,-5.5757,-5.6355,-5.6553,-5.6124,-5.666,-5.6576,-5.5601,-5.5367,-5.474,-5.3658,-5.3239,-5.2745,-5.2216,-5.215,-5.2102,-5.2144,-5.1858,-5.164,-5.1513,-5.1088,-5.0452,-4.9671,-4.8889,-4.9188,-5.0066,-4.8417,-4.8627,-4.9868,-4.8874,-4.7974,-4.7296,-4.76,-4.6707,-4.5397,-4.5397,-4.5397,-4.5397,-4.5397,-4.5397,-4.5397,-4.5397,-4.5397,-4.5397,-4.5397,-4.5397,-4.5397,-4.5397,-4.5156,-4.4837,-4.4397,-4.4389,-4.444,-4.4328,-4.463,-4.5044,-4.5328,-4.5371,-4.53,-4.5203,-4.515,-4.5059,-4.4858,-4.4765,-4.4682,-4.4598,-4.4615,-4.4615,-4.4615,-4.4181,-4.3589,-4.2828,-4.2083,-4.1339,-4.0595,-4.0282,-4.0163,-4.0288,-4.0436,-4.0558,-4.0697,-4.084,-4.0912,-4.0912,-4.0912,-4.0864,-4.0817,-4.0752,-4.0607,-4.0269,-4.1384,-4.2572,-4.4568,-4.6518,-4.8254,-4.9307,-4.9617,-5.0082,-5.1502,-5.1633,-5.1778,-5.263,-5.2868,-5.2934,-5.3042,-5.3143,-5.3185,-5.3185,-5.3185,-5.35,-5.4308,-5.4913,-5.5666,-5.6712,-5.7005,-5.7166,-5.726,-5.7473,-5.7249,-5.638,-5.6248,-5.5544,-5.4092,-5.3644,-5.3109,-5.2358,-5.2222,-5.2222,-5.2358,-5.1681,-5.1501,-5.1672,-5.0682,-4.9925,-4.9311,-4.8345,-4.8486,-4.924,-4.7603,-4.7936,-4.9379,-4.8124,-4.7426,-4.7122,-4.7323,-4.6535,-4.5397,-4.5397,-4.5397,-4.5397,-4.5397,-4.5397,-4.5397,-4.5397,-4.5397,-4.5397,-4.5397,-4.5397,-4.5397,-4.5397,-4.5397,-4.5259,-4.4716,-4.501,-4.5242,-4.4716,-4.5027,-4.5397,-4.5397,-4.5397,-4.5371,-4.5274,-4.5247,-4.522,-4.5086,-4.4807,-4.4637,-4.4648,-4.4626,-4.4513,-4.4282,-4.3758,-4.3115,-4.2354,-4.1627,-4.0882,-4.0146,-4.0121,-4.0213,-4.0337,-4.0485,-4.0607,-4.0745,-4.0864,-4.0912,-4.0912,-4.0912,-4.0912,-4.0912,-4.0864,-4.0728,-3.9217,-4.0556,-4.2526,-4.5416,-4.7428,-4.9103,-5.0846,-5.1736,-5.2244,-5.2421,-5.2499,-5.2595,-5.2783,-5.3017,-5.3185,-5.3185,-5.3185,-5.3185,-5.3185,-5.3185,-5.35,-5.4308,-5.4418,-5.506,0.0,-5.7519,-5.7556,-5.6507,-5.7163,-5.7461,-5.7195,-5.7043,-5.6313,-5.4925,-5.4528,-5.3771,-5.2516,-5.2358,-5.2358,-5.248,-5.1155,-5.0948,-5.1637,-4.9535,-4.8548,-4.8442,-4.6933,-4.7126,-4.8407,-4.6881,-4.7524,-4.9334,-4.7657,-4.7368,-4.7781,-4.6944,-4.6104,-4.5397,-4.5397,-4.5397,-4.5397,-4.5397,-4.5397,-4.5397,-4.5397,-4.5397,-4.5397,-4.5397,-4.5397,-4.5397,-4.5397,-4.5397,-4.5397,-4.5363,-4.538,-4.5397,-4.5363,-4.538,-4.5397,-4.5397,-4.5397,-4.5397,-4.5397,-4.5397,-4.5344,-4.5203,-4.4576,-4.4264,-4.4746,-4.4682,-4.4282,-4.3511,-4.3409,-4.3115,-4.2354,-4.1627,-4.0882,-4.0146,-4.0213,-4.0337,-4.0485,-4.0624,-4.0769,-4.0888,-4.0912,-4.0912,-4.0912,-4.0912,-4.0912,-4.0912,-4.0769,-4.0648,-4.0354,-4.1917,-4.3685,-4.6342,-4.7922,-4.9263,-5.0923,-5.1479,-5.1805,-5.2427,-5.1728,-5.1089,-5.1283,-5.1407,-5.1509,-5.1589,-5.2509,-5.3185,-5.3185,-5.3665,-5.3904,-5.3647,-5.4546,0.0,0.0,0.0,0.0,-5.7324,-5.7503,-5.7528,-5.7338,-5.6681,-5.5889,-5.4943,-5.4176,-5.3382,-5.2516,-5.2269,-5.2222,-5.2358,-5.1547,-5.1264,-5.1393,-5.0515,-4.9539,-4.8538,-4.7969,-4.7723,-4.7705,-4.7036,-4.7178,-4.777,-4.7028,-4.6531,-4.6201,-4.5906,-4.5621,-4.5397,-4.5397,-4.5397,-4.5397,-4.5397,-4.5397,-4.5397,-4.5397,-4.5397,-4.5397,-4.5397,-4.5397,-4.5397,-4.5397,-4.5397,-4.5397,-4.5397,-4.5397,-4.5397,-4.5397,-4.5397,-4.5397,-4.5397,-4.5397,-4.5397,-4.5397,-4.5397,-4.5198,-4.4551,-4.4197,-4.3835,-4.3473,-4.3829,-4.4024,-4.3768,-4.3248,-4.2796,-4.2462,-4.1325,-4.0485,-4.0255,-4.028,-4.0362,-4.0493,-4.0624,-4.0721,-4.0769,-4.0847,-4.0912,-4.0912,-4.0912,-4.0912,-4.0912,-4.0847,-4.0704,-4.1424,-4.2757,-4.415,-4.714,-4.8359,-4.9263,-5.0923,-5.1067,-5.1108,-5.196,-5.0918,-4.9895,-5.0081,-5.0183,-5.0263,-5.0362,-5.1481,-5.2546,-5.3112,-5.3408,-5.3665,-5.4014,-5.4711,-5.5188,0.0,0.0,0.0,-5.7316,-5.7509,-5.7425,-5.6994,-5.6339,-5.5522,-5.4508,-5.3893,-5.3224,-5.2498,-5.2317,-5.2101,-5.1789,-5.1739,-5.1279,-5.0466,-5.0567,-4.9873,-4.8591,-4.8538,-4.824,-4.774,-4.7316,-4.7222,-4.7335,-4.6603,-4.6124,-4.5793,-4.55,-4.5397,-4.5397,-4.5397,-4.5397,-4.5397,-4.5397,-4.5397,-4.5397,-4.5397,-4.5397,-4.5397,-4.5397,-4.5397,-4.5397,-4.5397,-4.5397,-4.5397,-4.5397,-4.5397,-4.5397,-4.5397,-4.5397,-4.5397,-4.5397,-4.5397,-4.5397,-4.5397,-4.5397,-4.5112,-4.4303,-4.3881,-4.3434,-4.2774,-4.3389,-4.3911,-4.3911,-4.3184,-4.2654,-4.2507,-4.1138,-4.0305,-4.0305,-4.0337,-4.0436,-4.0558,-4.0697,-4.0769,-4.0769,-4.0864,-4.0912,-4.0912,-4.0912,-4.0912,-4.0912,-4.0912,-4.0752,-4.2225,-4.3072,-4.3992,-4.7701,-4.8648,-4.9085,-5.0791,-5.0578,-5.0275,-5.1013,-5.0046,-4.9068,0.0,0.0,-4.95,-4.9537,-5.027,-5.1426,-5.3038,-5.2637,-5.3023,0.0,0.0,0.0,0.0,0.0,0.0,-5.6548,0.0,-5.7152,-5.6249,-5.6031,-5.5251,-5.3748,-5.3657,-5.3277,-5.2498,-5.2498,-5.1984,-5.098,-5.1724,-5.1046,-4.9171,-4.9854,-4.9613,-4.8644,-4.8608,-4.8512,-4.8372,-4.7678,-4.7647,-4.7839,-4.6404,-4.6144,-4.6458,-4.5725,-4.5432,-4.5397,-4.5397,-4.5397,-4.5397,-4.5397,-4.5397,-4.5397,-4.5397,-4.5397,-4.5397,-4.5397,-4.5397,-4.5397,-4.5397,-4.5397,-4.5397,-4.5397,-4.5397,-4.5397,-4.5397,-4.5397,-4.5397,-4.5397,-4.5397,-4.5397,-4.5397,-4.5363,-4.5113,-4.4414,-4.3672,-4.3089,-4.2775,-4.3398,-4.3877,-4.3911,-4.321,-4.268,-4.255,-4.1163,-4.033,-4.033,-4.0436,-4.0558,-4.0697,-4.084,-4.0912,-4.0912,-4.0912,-4.0912,-4.0912,-4.0912,-4.0912,-4.0912,-4.0912,-4.0752,-4.2317,-4.3789,-4.5141,-4.7288,-4.7861,-4.8236,-4.9271,-4.9365,-4.9275,-4.9474,-4.8393,-4.7224,0.0,0.0,0.0,-4.8526,-5.0343,0.0,-5.3867,-5.4418,0.0,-5.5541,0.0,-5.6106,-5.5923,-5.6253,0.0,0.0,-5.6716,-5.6593,-5.6374,-5.5607,-5.4725,-5.3729,-5.3114,-5.2715,-5.2498,-5.2405,-5.2203,-5.1939,-5.1964,-5.1618,-5.1002,-5.0994,-5.0426,-4.9425,-4.9398,-4.8731,-4.7661,-4.7366,-4.6966,-4.6532,-4.6534,-4.6273,-4.59,-4.6192,-4.5897,-4.5397,-4.5397,-4.5397,-4.5397,-4.5397,-4.5397,-4.5397,-4.5397,-4.5397,-4.5397,-4.5397,-4.5397,-4.5397,-4.5397,-4.5397,-4.5397,-4.5397,-4.5397,-4.5397,-4.5397,-4.5397,-4.5397,-4.5397,-4.5397,-4.5397,-4.5397,-4.4941,-4.4535,-4.4328,-4.3672,-4.3164,-4.3089,-4.3261,-4.3588,-4.4139,-4.3519,-4.3013,-4.2886,-4.1473,-4.06,-4.06,-4.0624,-4.0721,-4.084,-4.0888,-4.0912,-4.0912,-4.0912,-4.0912,-4.0912,-4.0912,-4.0912,-4.0912,-4.0912,-4.0752,-4.3302,-4.4535,-4.5441,-4.7175,-4.7636,-4.7826,-4.8257,-4.8094,-4.7862,-4.7862,-4.6739,-4.5602,-4.5165,-4.6193,-4.7241,0.0,0.0,0.0,-5.4124,-5.4473,-5.506,0.0,-5.6748,0.0,-5.6657,-5.6748,-5.6804,0.0,-5.6556,-5.6252,-5.5887,-5.4923,-5.4001,-5.3204,-5.2733,-5.2498,-5.2498,-5.2428,-5.2382,-5.2382,-5.224,-5.2054,-5.1864,-5.1589,-5.1085,-5.0391,0.0,-4.9521,-4.838,-4.797,-4.749,-4.7011,-4.6978,-4.6621,-4.6161,-4.6558,-4.6149,-4.5397,-4.5397,-4.5397,-4.5397,-4.5397,-4.5397,-4.5397,-4.5397,-4.5397,-4.5397,-4.5397,-4.5397,-4.5397,-4.5397,-4.5397,-4.5397,-4.5397,-4.5397,-4.5397,-4.5397,-4.5397,-4.5397,-4.5397,-4.5397,-4.5397,-4.5397,-4.5061,-4.4785,-4.4785,-4.4173,-4.381,-4.4113,-4.3897,-4.3983,-4.4699,-4.3845,-4.3156,-4.3005,-4.1589,-4.0697,-4.0697,-4.0697,-4.0769,-4.0894,-4.0912,-4.0912,-4.0912,-4.0912,-4.0912,-4.0912,-4.0912,-4.0912,-4.0912,-4.0912,-4.0776,-4.438,-4.5112,-4.5386,-4.7235,-4.7606,-4.7518,-4.7428,-4.6848,-4.6287,-4.6069,-4.5158,-4.4363,-4.4253,-4.5626,-4.6856,-4.7076,0.0,-5.1481,-5.3904,-5.383,-5.4601,-5.7501,-5.7317,-5.7226,-5.7923,-5.7281,-5.6804,-5.6804,-5.6337,-5.5778,-5.5085,-5.4197,-5.3331,-5.2516,-5.2498,-5.2498,-5.2498,-5.2498,-5.2498,-5.2498,-5.2498,-5.2364,-5.2102,-5.1864,-5.1589,-5.1281,-5.0929,-5.033,-4.9486,-4.8749,-4.8268,-4.7989,-4.7429,-4.6995,-4.6716,-4.6768,-4.6212,-4.5423,-4.5397,-4.5397,-4.5397,-4.5397,-4.5397,-4.5397,-4.5397,-4.5397,-4.5397,-4.5397,-4.5397,-4.5397,-4.5397,-4.5397,-4.5397,-4.5397,-4.5397,-4.5397,-4.5397,-4.5397,-4.5397,-4.5397,-4.5397,-4.5397,-4.5397,-4.5397,-4.5397,-4.5397,-4.4854,-4.4665,-4.5311,-4.4751,-4.4544,-4.5173,-4.4009,-4.3105,-4.2876,-4.1545,-4.0721,-4.0721,-4.0721,-4.0793,-4.0912,-4.0912,-4.0912,-4.0912,-4.0912,-4.0912,-4.0912,-4.0912,-4.0912,-4.0912,-4.0912,-4.084,-4.389,-4.5094,-4.6047,-4.738,-4.721,-4.654,-4.587,-4.5617,0.0,-4.3788,-4.3977,-4.4199,-4.3524,-4.4327,-4.5553,-4.6874,-4.8618,-5.0637,-5.3078,-5.4436,-5.5629,0.0,-5.7464,-5.785,-5.7997,-5.7281,0.0,0.0,-5.5313,-5.4355,-5.421,-5.3889,-5.3331,-5.2516,-5.2498,-5.2498,-5.2498,-5.2498,-5.2498,-5.2498,-5.2498,-5.2364,-5.2102,-5.2036,-5.1765,-5.1263,-5.0565,0.0,-4.8731,-4.7941,-4.7197,-4.6603,-4.7027,-4.6776,-4.6176,-4.6647,-4.6282,-4.5554,-4.545,-4.5397,-4.5397,-4.5397,-4.5397,-4.5397,-4.5397,-4.5397,-4.5397,-4.5397,-4.5397,-4.5397,-4.5397,-4.5397,-4.5397,-4.5397,-4.5397,-4.5397,-4.5397,-4.5397,-4.5397,-4.5397,-4.5397,-4.5397,-4.5397,-4.5397,-4.5397,-4.5397,-4.5276,-4.5259,-4.538,-4.4751,-4.4363,-4.4483,-4.3724,-4.293,-4.2226,-4.1364,-4.0864,-4.0864,-4.0864,-4.0888,-4.0912,-4.0912,-4.0912,-4.0912,-4.0912,-4.0912,-4.0912,-4.0912,-4.0912,-4.0912,-4.0912,-4.084,-4.4654,-4.5695,-4.6398,-4.7187,-4.6812,-4.5972,-4.4907,0.0,0.0,-4.2573,-4.3068,-4.3652,-4.3269,-4.4364,0.0,-4.6361,-4.8233,-5.0308,-5.2289,-5.3959,-5.5427,-5.6657,-5.7519,-5.7831,-5.7428,-5.7042,-5.6455,-5.5611,-5.4649,-5.4077,-5.4013,-5.3416,-5.2902,-5.2554,-5.2526,-5.2498,-5.2498,-5.2498,-5.2498,-5.2498,-5.2498,-5.241,-5.2293,-5.2209,-5.1975,-5.168,-5.084,-4.9915,-4.9032,-4.8512,-4.7802,-4.7135,-4.7678,-4.7367,-4.6661,-4.6917,-4.6734,-4.6274,-4.5771,-4.5892,-4.6152,-4.5754,-4.5528,-4.5397,-4.5397,-4.5397,-4.5397,-4.5397,-4.5397,-4.5397,-4.5397,-4.5397,-4.5397,-4.5397,-4.5397,-4.5397,-4.5397,-4.545,-4.5502,-4.5502,-4.5554,-4.5607,-4.5607,-4.5554,-4.5528,-4.5607,-4.5502,-4.5423,-4.5502,-4.5122,-4.4872,-4.4872,-4.388,-4.3034,-4.2654,-4.1567,-4.0912,-4.0912,-4.0912,-4.0912,-4.0912,-4.0912,-4.0912,-4.0912,-4.0912,-4.0912,-4.0912,-4.0912,-4.0935,-4.1,-4.0935,-4.0912,-4.5327,-4.6127,-4.6611,-4.7008,-4.6474,-4.5525,-4.4362,-4.3756,0.0,-4.1957,-4.2486,-4.3178,-4.3178,-4.4382,-4.5407,0.0,-4.7572,-4.9647,-5.1263,-5.317,-5.4932,0.0,-5.7244,0.0,-5.6877,-5.6492,0.0,-5.4509,-5.4126,-5.3865,-5.3735,-5.299,-5.2577,-5.2654,-5.2577,-5.2526,-5.2526,-5.2521,-5.2498,-5.2498,-5.2503,-5.2526,-5.2526,-5.2402,-5.2286,-5.2102,-5.1256,-5.0484,-4.9769,-4.9198,-4.8604,-4.804,-4.8113,-4.7711,-4.7109,-4.6982,-4.6898,-4.669,-4.6029,-4.6221,-4.6639,-4.6004,-4.5658,-4.545,-4.545,-4.545,-4.545,-4.545,-4.5476,-4.5476,-4.545,-4.5476,-4.5476,-4.5476,-4.5476,-4.5476,-4.5476,-4.5581,-4.5641,-4.5641,-4.5718,-4.5795,-4.5795,-4.5718,-4.5667,-4.5761,-4.5581,-4.5476,-4.5554,-4.5476,-4.5397,-4.5397,-4.4216,-4.3293,-4.2965,-4.1826,-4.1067,-4.0912,-4.0912,-4.0912,-4.0912,-4.0912,-4.0912,-4.0912,-4.0912,-4.0912,-4.0935,-4.0935,-4.1006,-4.114,-4.1006,-4.1,-4.4897,-4.5775,-4.6671,-4.6999,-4.6233,-4.5124,-4.4295,0.0,-4.2737,-4.1868,-4.2449,-4.3104,-4.3104,-4.3397,-4.3869,-4.4583,-4.6176,-4.7921,-4.9592,-5.2454,-5.473,-5.5592,0.0,0.0,-5.6822,-5.5482,-5.4564,-5.4418,-5.3594,-5.3065,-5.2915,-5.2838,-5.2779,-5.2783,-5.2654,-5.2586,-5.2586,-5.2531,-5.2498,-5.2498,-5.2559,-5.2586,-5.259,-5.2717,-5.2608,-5.2325,-5.1593,-5.1058,0.0,-4.9171,-4.852,-4.8349,-4.7356,-4.6909,-4.6785,-4.6302,-4.6102,-4.606,-4.5881,-4.5847,-4.5899,-4.5812,-4.5693,-4.5581,-4.5581,-4.5581,-4.5581,-4.5581,-4.5667,-4.5736,-4.5615,-4.5667,-4.577,-4.577,-4.577,-4.577,-4.577,-4.577,-4.577,-4.577,-4.5795,-4.5795,-4.5795,-4.5795,-4.5744,-4.5615,-4.5607,-4.5554,-4.5423,-4.5397,-4.5397,-4.5397,-4.4682,-4.3638,-4.224,-4.1999,-4.1619,-4.0946,-4.0912,-4.0912,-4.0912,-4.0912,-4.0912,-4.0912,-4.0912,-4.0959,-4.107,-4.107,-4.1123,-4.1186,-4.1123,-4.1087,-4.571,-4.6893,-4.778,-4.723,-4.6076,-4.4849,-4.4004,0.0,-4.2183,-4.1775,-4.2449,-4.3104,-4.3104,-4.3196,-4.356,-4.4455,-4.5572,0.0,-4.8581,-5.0784,-5.2894,-5.4656,-5.517,0.0,0.0,0.0,-5.4089,-5.3576,-5.3286,-5.306,-5.2934,-5.2828,-5.2846,-5.2934,-5.2783,-5.2721,-5.2721,-5.2672,-5.2667,-5.2667,-5.2717,-5.2721,-5.2721,-5.285,-5.2554,-5.189,-5.1277,-5.0614,0.0,-4.9133,-4.8507,-4.8073,-4.7846,-4.7491,-4.7053,-4.6637,-4.6897,-4.7323,-4.6636,-4.6698,-4.6991,-4.6557,-4.6147,-4.5821,-4.5744,-4.5718,-4.5718,-4.5718,-4.5744,-4.5795,-4.5718,-4.5744,-4.5795,-4.5795,-4.5795,-4.5795,-4.5795,-4.5947,-4.6005,-4.5947,-4.6048,-4.6105,-4.5947,-4.5846,-4.577,-4.5718,-4.5563,-4.5502,-4.5528,-4.545,-4.5397,-4.5397,-4.4734,-4.388,-4.281,-4.2341,-4.1819,-4.1058,-4.1059,-4.1041,-4.1006,-4.1023,-4.1023,-4.1023,-4.1023,-4.1076,-4.1175,-4.114,-4.1146,-4.1209,-4.1123,-4.1123,-4.5986,-4.7239,-4.8103,-4.7297,-4.6144,-4.4975,0.0,0.0,-4.2174,-4.2064,-4.2594,-4.303,-4.303,-4.3123,-4.3397,-4.4035,0.0,-4.6248,-4.7717,-4.9551,-5.1458,0.0,0.0,-5.4044,0.0,-5.4558,-5.3811,-5.301,-5.3039,-5.3039,-5.2955,-5.285,-5.285,-5.2999,-5.2868,-5.2806,-5.285,-5.2806,-5.2806,-5.2806,-5.2828,-5.285,-5.285,-5.2743,-5.2468,-5.202,-5.1181,-5.056,0.0,-4.9455,-4.8846,-4.8334,-4.8251,-4.7922,-4.741,-4.7057,-4.742,-4.7976,-4.7209,-4.7296,-4.7606,-4.7002,-4.6542,-4.6196,-4.5972,-4.5897,-4.5846,-4.5846,-4.5846,-4.5871,-4.5897,-4.5897,-4.5871,-4.5897,-4.5922,-4.5922,-4.5922,-4.6105,-4.6228,-4.6097,-4.6204,-4.6277,-4.6048,-4.5897,-4.5726,-4.5431,-4.5286,-4.5209,-4.526,-4.5018,-4.501,-4.5477,-4.4863,-4.4102,-4.3291,-4.2812,-4.2133,-4.1192,-4.1152,-4.1152,-4.1093,-4.1047,-4.1047,-4.1093,-4.1093,-4.1146,-4.1255,-4.1198,-4.1221,-4.1318,-4.1238,-4.1198,-4.5286,-4.6248,-4.7106,-4.7106,-4.6489,-4.5684,0.0,0.0,-4.2882,-4.2901,-4.2901,-4.2901,-4.2901,-4.3012,-4.3104,-4.3123,-4.4526,0.0,-4.687,-4.9085,-5.0955,0.0,0.0,-5.2471,-5.406,-5.4072,-5.3658,-5.2878,-5.2806,0.0,-5.2806,-5.2806,-5.285,-5.2999,-5.2868,-5.285,-5.2999,-5.2868,-5.2806,-5.2806,-5.2915,-5.2999,-5.2962,-5.232,-5.2435,-5.3075,-5.1499,-5.1242,0.0,-5.0233,-4.9592,-4.9461,-4.8281,-4.7793,-4.7752,-4.7432,-4.7298,-4.732,-4.7298,-4.7298,-4.7254,-4.6893,-4.6795,-4.6725,-4.6319,-4.6097,-4.5998,-4.5998,-4.5998,-4.6023,-4.6147,-4.6097,-4.6023,-4.6147,-4.6214,-4.6214,-4.6214,-4.6301,-4.6374,-4.6221,-4.6204,-4.6161,-4.6023,-4.5897,-4.5509,-4.4644,-4.4632,-4.4657,-4.4539,-4.3937,-4.4108,-4.5639,-4.5134,-4.4319,-4.3398,-4.3286,-4.2677,-4.1273,-4.1146,-4.1093,-4.1093,-4.0959,-4.0959,-4.1093,-4.1093,-4.121,-4.1403,-4.1403,-4.1471,-4.1604,-4.1471,-4.1318,-4.4877,-4.5926,-4.6699,-4.5715,-4.4841,-4.412,-4.3594,0.0,-4.2249,-4.2611,-4.2689,-4.2747,-4.2863,-4.2938,-4.3356,-4.4558,-4.5197,0.0,0.0,0.0,0.0,-5.2438,-5.3606,-5.4001,0.0,0.0,-5.3034,-5.2694,-5.2586,-5.2495,-5.2389,-5.1739,-5.1629,-5.2154,-5.1916,-5.1809,-5.1919,-5.1857,-5.213,-5.2676,-5.2977,-5.2849,-5.2339,-5.2671,-5.2068,-5.0729,-5.0784,-5.0288,-4.9426,-4.893,-4.871,-4.8673,-4.8281,-4.8132,-4.8093,-4.7752,-4.7772,-4.7953,-4.771,-4.7648,-4.7627,-4.7521,-4.7345,-4.7075,-4.6708,-4.6392,-4.6122,-4.6122,-4.6122,-4.6147,-4.6196,-4.6172,-4.6147,-4.6196,-4.6196,-4.6196,-4.6196,-4.6374,-4.6495,-4.6374,-4.6495,-4.6542,-4.6326,-4.6228,-4.6067,-4.5598,-4.5145,-4.4781,-4.464,-4.4456,-4.4491,-4.4995,-4.5291,-4.4908,-4.3555,-4.3506,-4.2933,-4.1445,-4.1403,-4.1398,-4.1307,-4.1267,-4.1267,-4.129,-4.1307,-4.138,-4.1538,-4.1448,-4.1426,-4.1471,-4.1426,-4.1426,0.0,-4.536,-4.5917,-4.5256,-4.4405,0.0,0.0,-4.2526,-4.2207,-4.2631,-4.2709,-4.2747,-4.2881,-4.2901,-4.3264,-4.4337,-4.5027,0.0,0.0,0.0,0.0,-5.2156,0.0,0.0,0.0,-5.2963,-5.2949,-5.2462,-5.2333,-5.2071,-5.1581,-5.0946,-5.0592,-5.0471,-5.1008,-5.1338,-5.1409,-5.185,-5.2317,-5.2828,-5.3082,-5.2784,-5.1995,-5.2197,-5.1481,-5.005,-4.9903,-4.9444,0.0,-4.8434,-4.8306,-4.8306,-4.8306,-4.8306,-4.8267,-4.8073,-4.8113,-4.8267,-4.8073,-4.7994,-4.7974,-4.7834,-4.7563,-4.7254,-4.6893,-4.6512,-4.6196,-4.6196,-4.6196,-4.6196,-4.6196,-4.6196,-4.6196,-4.6196,-4.6196,-4.6196,-4.6253,-4.6447,-4.659,-4.6495,-4.6613,-4.6661,-4.6447,-4.6357,-4.6154,-4.5726,-4.506,-4.4668,-4.49,-4.4159,-4.3949,-4.4841,-4.4775,-4.4272,-4.3312,-4.3517,-4.3051,-4.1558,-4.1515,-4.1493,-4.1403,-4.134,-4.134,-4.1403,-4.1403,-4.1471,-4.1604,-4.1515,-4.1471,-4.1471,-4.1471,-4.1515,0.0,-4.4575,-4.4732,-4.5376,-4.4662,-4.3701,-4.3221,-4.2828,0.0,-4.2806,-4.2863,-4.29,-4.2955,-4.2955,-4.2955,-4.3064,-4.4313,0.0,0.0,-4.8174,0.0,0.0,-5.2935,0.0,-5.2544,-5.3132,-5.3177,-5.218,-5.206,-5.158,-5.0537,-5.0399,-4.9716,-4.8274,-5.0064,-5.113,-5.1278,-5.2385,-5.3033,-5.3164,-5.313,-5.2692,-5.1885,-5.1132,-5.0729,0.0,-4.904,-4.882,-4.9445,-4.8636,-4.8306,-4.8306,-4.8306,-4.8306,-4.8306,-4.8306,-4.8306,-4.8306,-4.8306,-4.8306,-4.8267,-4.7935,-4.7606,-4.728,-4.6962,-4.6584,-4.6246,-4.6196,-4.6196,-4.6196,-4.6196,-4.6196,-4.6196,-4.6196,-4.6196,-4.6246,-4.6374,-4.6518,-4.6613,-4.6613,-4.6613,-4.659,-4.6453,-4.6332,-4.6031,-4.5328,-4.4642,-4.4482,-4.5229,-4.3406,-4.2855,-4.4971,-4.3868,-4.2938,-4.2816,-4.3314,-4.3045,-4.1692,-4.1493,-4.1426,-4.1426,-4.1277,-4.1295,-4.1403,-4.1426,-4.1471,-4.1604,-4.1604,-4.1604,-4.1604,-4.1604,-4.1604,-4.3162,0.0,-4.3185,-4.2821,-4.2457,-4.2163,0.0,0.0,-4.2145,-4.2391,0.0,-4.2907,-4.3678,-4.3318,-4.3299,-4.453,0.0,-4.558,-4.6436,0.0,0.0,-5.1504,-5.2984,-5.3394,-5.1896,-5.224,-5.2414,-5.2126,-5.1715,-5.1106,-5.0239,-4.947,-4.8627,-4.7647,-4.8372,-4.919,-5.01,-5.0371,-5.128,-5.2743,-5.2419,-5.1867,-5.1077,-5.0894,-5.0105,-4.8912,-4.9169,-4.9022,-4.86,-4.8379,-4.8306,-4.8306,-4.8306,-4.8306,-4.8306,-4.8306,-4.8363,-4.8438,-4.8343,-4.8363,-4.8419,-4.8248,-4.7974,-4.7669,-4.7585,-4.7129,-4.659,-4.6295,-4.6196,-4.6196,-4.6196,-4.6196,-4.6196,-4.6196,-4.6196,-4.6246,-4.6374,-4.6518,-4.6637,-4.6731,-4.6842,-4.6888,-4.6865,-4.6842,-4.6724,-4.6436,-4.5797,-4.5326,-4.5294,-4.4812,-4.4418,-4.4255,-4.4437,-4.4079,-4.2903,-4.2928,-4.2594,-4.1657,-4.156,-4.156,-4.156,-4.152,-4.152,-4.156,-4.156,-4.156,-4.1604,-4.1604,-4.1604,-4.1604,-4.1604,-4.1604,-4.2254,-4.2254,-4.2236,-4.2273,-4.193,-4.1648,-4.1805,0.0,0.0,0.0,0.0,0.0,0.0,0.0,0.0,0.0,-4.5628,0.0,0.0,0.0,-5.1635,-5.2007,-5.2875,-5.3176,0.0,-5.2384,-5.2071,-5.1418,-5.1105,-5.0381,-4.9111,-4.8536,-4.7854,-4.7068,-4.7227,-4.811,-4.9675,-4.9839,-5.074,-5.2306,-5.1729,-5.1022,-5.0251,-5.0251,-4.9536,-4.8343,-4.8802,-4.8728,-4.8306,-4.8306,-4.8306,-4.8306,-4.8306,-4.8306,-4.8306,-4.8306,-4.8382,-4.8494,-4.8419,-4.8438,-4.8476,-4.8325,-4.8172,-4.8014,-4.7854,-4.7542,-4.7147,-4.6613,-4.6343,-4.6196,-4.6196,-4.6196,-4.6196,-4.6196,-4.6196,-4.6246,-4.6374,-4.6518,-4.6637,-4.6754,-4.6911,-4.6998,-4.6998,-4.6998,-4.6975,-4.6911,-4.6247,-4.5681,-4.5515,-4.5104,-4.4482,-4.3575,-4.3804,-4.357,-4.2359,-4.2254,-4.2061,-4.1639,-4.1604,-4.1604,-4.1604,-4.1604,-4.1604,-4.1604,-4.1648,-4.1692,-4.1692,-4.1754,-4.1776,-4.1776,-4.1776,-4.1754,-4.1745,-4.178,-4.192,-4.2505,-4.2113,-4.1648,0.0,0.0,0.0,0.0,0.0,0.0,0.0,-4.342,0.0,0.0,0.0,0.0,-5.0079,-5.098,-5.17,-5.2358,-5.2626,0.0,-5.3204,-5.2633,-5.1753,-5.0591,-5.0339,-4.9521,-4.7882,-4.7811,-4.7439,-4.6649,-4.659,-4.7523,-4.9477,-4.9796,-5.0578,-5.1752,-5.0986,-5.0271,-4.961,-4.9463,-4.9023,-4.8306,0.0,0.0,-4.8306,-4.8306,-4.8306,-4.8306,-4.8306,-4.8306,-4.8306,-4.8325,-4.8401,-4.8513,-4.855,-4.8531,-4.8476,-4.8363,-4.8306,-4.8248,-4.7955,-4.7834,-4.7689,-4.7098,-4.6631,-4.6295,-4.627,-4.6221,-4.6214,-4.6221,-4.6221,-4.6253,-4.6423,-4.6542,-4.6661,-4.6801,-4.6911,-4.6998,-4.6998,-4.6998,-4.6998,-4.6998,-4.632,-4.5811,-4.5836,-4.4941,-4.3991,-4.3225,-4.2936,-4.2482,-4.1674,-4.1604,-4.1604,-4.1604,-4.1604,-4.1604,-4.1604,-4.1626,-4.1626,-4.1626,-4.1758,-4.1841,-4.1841,-4.1945,-4.2005,-4.2005,-4.2005,-4.1945,-4.2447,-4.2622,-4.2522,-4.2071,-4.1798,-4.1648,0.0,0.0,0.0,0.0,0.0,0.0,0.0,-4.4032,-4.4268,0.0,0.0,-4.8535,0.0,0.0,-5.1433,-5.1723,0.0,-5.2309,-5.1701,-5.1225,-5.0838,-5.0513,-4.9668,-4.8756,-4.7847,-4.7811,-4.7439,-4.6649,-4.659,-4.7228,-4.859,-4.882,-4.9524,-5.0626,-5.0105,-4.978,-4.9574,-4.8953,-4.8529,-4.8306,0.0,-4.8306,-4.8306,-4.8306,-4.8306,-4.8306,-4.8306,-4.8306,-4.8306,-4.8438,-4.8513,-4.8605,-4.8697,-4.8642,-4.8494,-4.8494,-4.8382,-4.8287,-4.8248,-4.8034,-4.7752,-4.7597,-4.716,-4.6684,-4.6566,-4.6368,-4.6221,-4.635,-4.6374,-4.6447,-4.6684,-4.6754,-4.6819,-4.6934,-4.6998,-4.6998,-4.6998,-4.6998,-4.6998,-4.6998,-4.632,-4.5944,-4.6395,-4.5191,-4.4163,-4.3792,-4.3167,-4.2482,-4.1674,-4.1604,-4.1604,-4.1604,-4.1604,-4.1604,-4.1604,-4.1714,-4.1758,-4.1758,-4.1902,-4.1984,-4.1984,-4.1984,-4.2005,-4.2005,-4.2005,-4.1984,-4.2061,-4.2166,-4.2166,-4.2303,-4.2597,-4.2873,0.0,0.0,0.0,0.0,0.0,0.0,0.0,0.0,-4.567,-4.8105,0.0,-4.9131,-5.0728,-5.0608,-5.0551,0.0,0.0,-5.1563,-5.1138,-5.0921,-5.0372,-4.9341,-4.8787,-4.8164,-4.7423,-4.737,-4.721,-4.6819,-4.6819,-4.7089,-4.7648,-4.7837,-4.8562,-4.9742,-4.9201,-4.8914,-4.8893,-4.8546,-4.8363,-4.8306,0.0,-4.8306,-4.8306,-4.8306,-4.8306,-4.8306,-4.8306,-4.8325,-4.8438,-4.8606,-4.8642,-4.8605,-4.875,-4.8678,-4.855,-4.8513,-4.8401,-4.8306,-4.8306,-4.8191,-4.8014,-4.7783,-4.7341,-4.6898,-4.6661,-4.6495,-4.6398,-4.6405,-4.6405,-4.6453,-4.6637,-4.6731,-4.6819,-4.6888,-4.6934,-4.6998,-4.6998,-4.6998,-4.6998,-4.6998,-4.6631,-4.6267,-4.6029,-4.5317,-4.4465,-4.3418,-4.3009,-4.2482,-4.1674,-4.1604,-4.1604,-4.1604,-4.167,-4.167,-4.1604,-4.1797,-4.1862,-4.1801,-4.197,-4.2055,-4.2055,-4.2118,-4.216,-4.216,-4.216,-4.2118,-4.181,-4.1885,-4.2078,-4.2868,0.0,0.0,0.0,0.0,0.0,0.0,0.0,0.0,0.0,-4.5333,0.0,-4.9792,-4.987,-4.987,-5.0673,-5.0378,-5.0265,-5.082,-5.0944,-5.0896,-5.0628,-5.0419,-4.9674,-4.8288,-4.8038,-4.7663,-4.7015,-4.6998,-4.6998,-4.6998,-4.6998,-4.6998,-4.6998,-4.7254,-4.7886,-4.8839,-4.8462,-4.8287,-4.8306,-4.8325,-4.8325,-4.8306,-4.8306,-4.8306,-4.8306,-4.8306,-4.8306,-4.8306,-4.8306,-4.8401,-4.855,-4.8733,-4.875,-4.8678,-4.8786,-4.8732,-4.8587,-4.8532,-4.842,-4.8306,-4.8306,-4.8306,-4.8209,-4.7824,-4.749,-4.7147,-4.6713,-4.6542,-4.6495,-4.6471,-4.6447,-4.6495,-4.6661,-4.6754,-4.6842,-4.6842,-4.6934,-4.6998,-4.6998,-4.6998,-4.6998,-4.6957,-4.6705,-4.6323,-4.577,-4.5323,-4.4589,-4.3447,-4.3184,-4.2745,-4.1955,-4.1732,-4.1648,-4.1648,-4.1736,-4.1758,-4.1648,-4.1884,-4.1987,-4.1866,-4.204,-4.2163,-4.2163,-4.2246,-4.2308,-4.2308,-4.2308,-4.2246,-4.2472,-4.2705,-4.2903,-4.3641,-4.278,0.0,-4.357,-4.3377,0.0,-4.3763,0.0,0.0,0.0,-4.6458,-4.8032,-4.9198,-4.9953,-5.0691,-5.1494,0.0,-5.1526,-5.0964,-5.0785,-5.0474,-4.9855,-4.8952,-4.8347,-4.8216,-4.752,-4.7051,-4.6998,-4.6998,-4.6998,-4.6998,-4.6998,-4.6998,-4.6998,-4.7443,-4.7714,-4.7811,-4.8085,-4.8228,-4.8306,-4.8438,-4.8419,-4.8306,-4.8306,-4.8306,-4.8306,-4.8306,-4.8306,-4.8306,-4.8306,-4.842,-4.8624,-4.8751,-4.8821,-4.8891,-4.8891,-4.8767,-4.8605,-4.8587,-4.8476,-4.8306,-4.8306,-4.8306,-4.8209,-4.7824,-4.7678,-4.749,-4.6778,-4.6416,-4.6295,-4.6518,-4.659,-4.6661,-4.6911,-4.698,-4.6998,-4.6998,-4.698,-4.6998,-4.6998,-4.6998,-4.6957,-4.6842,-4.6156,-4.5833,-4.627,-4.5076,-4.4372,-4.4869,-4.4273,-4.3518,-4.2798,-4.2154,-4.1797,-4.1797,-4.178,-4.1797,-4.1797,-4.1995,-4.2082,-4.2082,-4.2207,-4.2287,-4.2287,-4.2287,-4.2308,-4.2308,-4.2308,-4.2287,-4.1838,-4.2361,-4.2886,-4.3149,-4.3131,0.0,0.0,-4.5109,-4.5126,-4.5923,-4.5677,0.0,0.0,0.0,-4.8524,-4.9401,-5.0222,-5.084,-5.114,-5.0951,-5.0702,-5.045,-5.0066,-4.9555,-4.8857,-4.7977,-4.7467,-4.7467,-4.6712,-4.6462,-4.6962,-4.6998,-4.6998,-4.6998,-4.6998,-4.6748,-4.6266,-4.6557,-4.6813,-4.7044,-4.7951,-4.842,-4.8495,-4.8532,-4.8532,-4.8495,-4.8495,-4.8495,-4.8476,-4.8438,-4.842,-4.8438,-4.8476,-4.8495,-4.855,-4.8786,-4.8839,-4.8839,-4.8891,-4.8767,-4.8605,-4.8605,-4.8458,-4.8306,-4.8306,-4.8306,-4.8229,-4.7852,-4.7767,-4.7582,-4.6806,-4.6518,-4.6471,-4.659,-4.659,-4.6661,-4.6934,-4.6998,-4.6998,-4.6998,-4.6998,-4.6998,-4.6998,-4.6998,-4.698,-4.6934,-4.6529,-4.63,-4.6507,-4.5018,-4.4267,-4.501,-4.3974,-4.2926,-4.2242,-4.1952,-4.1841,-4.1923,-4.1952,-4.1973,-4.1923,-4.2121,-4.2205,-4.2103,-4.2246,-4.2308,-4.2308,-4.2308,-4.2308,-4.2308,-4.2308,-4.2308,-4.1318,-4.1805,-4.234,-4.259,0.0,0.0,-4.6059,-4.6347,-4.6425,-4.7222,-4.6958,-4.6565,-4.6565,0.0,0.0,0.0,-4.9837,-5.0434,-5.0206,-4.9915,-4.9634,-4.9379,-4.9112,-4.8657,-4.7895,-4.7324,-4.689,-4.6641,-4.6105,-4.5927,-4.623,-4.648,-4.6498,-4.6248,-4.648,-4.623,-4.5445,-4.571,-4.5985,-4.6289,-4.7297,-4.7923,-4.8236,-4.8236,-4.807,-4.7848,-4.7848,-4.7996,-4.8218,-4.8163,-4.8292,-4.8532,-4.8642,-4.8642,-4.8624,-4.8821,-4.8874,-4.884,-4.8891,-4.8767,-4.8605,-4.8605,-4.8458,-4.8306,-4.8306,-4.8306,-4.8229,-4.7895,-4.7793,-4.7648,-4.6926,-4.6708,-4.6661,-4.6661,-4.6637,-4.6661,-4.6888,-4.6957,-4.6998,-4.6998,-4.6998,-4.6998,-4.6998,-4.6957,-4.6911,-4.6888,-4.6684,-4.6518,-4.6471,-4.5393,-4.4852,-4.5396,-4.4079,-4.2984,-4.2573,-4.2335,-4.2259,-4.2402,-4.2491,-4.2388,-4.2048,-4.2451,-4.2513,-4.2184,-4.2267,-4.2308,-4.2308,-4.2308,-4.2308,-4.2308,-4.2308,-4.2308,-4.114,-4.1169,-4.1307,0.0,0.0,0.0,-4.6477,-4.6683,-4.6425,-4.7239,-4.7397,-4.7397,-4.7397,-4.8012,0.0,-4.752,-4.8679,-4.9416,-4.8696,-4.8768,-4.8625,-4.7882,-4.8034,-4.7877,-4.7069,-4.698,-4.6659,-4.5856,-4.5802,-4.5445,-4.4638,-4.5374,-4.5427,-4.4621,-4.5374,-4.541,-4.4603,-4.505,-4.5391,-4.5585,-4.601,-4.6611,-4.7387,-4.7387,-4.6962,-4.6206,-4.6224,-4.6667,-4.7404,-4.7405,-4.7867,-4.8605,-4.875,-4.8787,-4.8804,-4.8855,-4.889,-4.889,-4.889,-4.8767,-4.8605,-4.8605,-4.8476,-4.8306,-4.8306,-4.8306,-4.8229,-4.7895,-4.7813,-4.771,-4.724,-4.6944,-4.6819,-4.6795,-4.6684,-4.6637,-4.6772,-4.6911,-4.6998,-4.6998,-4.6998,-4.6998,-4.6998,-4.6888,-4.6754,-4.6613,-4.6495,-4.635,-4.6221,-4.6196,-4.6196,-4.6179,-4.4834,-4.395,-4.4101,-4.3496,-4.3168,-4.3294,-4.3437,-4.308,-4.2157,-4.3009,-4.3108,-4.2325,-4.2308,-4.2308,-4.2308,-4.2308,-4.2308,-4.2308,-4.2308,-4.2308,-4.1238,-4.1568,0.0,-4.234,0.0,0.0,0.0,-4.6273,0.0,0.0,-4.8187,-4.8029,-4.7485,-4.8012,0.0,-4.752,-4.8222,-4.8784,-4.8573,-4.8217,-4.7894,-4.7682,-4.7394,-4.7114,-4.6883,-4.6435,-4.607,-4.582,-4.5285,-4.4835,-4.4603,-4.4817,-4.4835,-4.4603,-4.4817,-4.4585,-4.3818,-4.4281,-4.4614,-4.4765,-4.5215,-4.5916,-4.6763,-4.6763,-4.6633,-4.6448,-4.7004,-4.7394,-4.7653,-4.8175,-4.8475,-4.8605,-4.875,-4.8452,-4.7952,-4.8039,-4.8054,-4.8054,-4.8054,-4.8375,-4.8732,-4.8732,-4.8587,-4.8438,-4.8438,-4.8382,-4.8287,-4.8172,-4.8111,-4.803,-4.779,-4.7496,-4.7209,-4.6888,-4.6684,-4.6637,-4.6772,-4.6911,-4.6998,-4.6998,-4.6998,-4.6998,-4.6998,-4.6888,-4.6795,-4.6749,-4.6542,-4.6156,-4.5501,-4.5881,-4.5775,-4.4711,-4.4747,-4.4724,-4.4269,-4.3647,-4.3507,-4.4167,-4.3765,-4.339,-4.3098,-4.2802,-4.2537,-4.2308,-4.2308,-4.2308,-4.2308,-4.2308,-4.2308,-4.2308,-4.2308,-4.2308,-4.1073,-4.1536,0.0,-4.2608,-4.4108,-4.5618,-4.6253,0.0,0.0,0.0,-4.8503,-4.7898,-4.7417,-4.7689,0.0,-4.6971,-4.7497,-4.7882,-4.7541,-4.7229,-4.703,-4.703,-4.6554,-4.6241,-4.6315,-4.569,-4.5169,-4.4928,-4.4424,-4.4014,-4.3697,-4.4,-4.4014,-4.3697,-4.3996,-4.3782,-4.3036,-4.349,-4.3796,-4.3944,-4.4403,-4.4927,-4.5528,-4.5862,-4.5825,-4.5565,-4.6717,-4.7218,-4.7311,-4.8393,-4.86,-4.825,-4.8322,-4.7857,-4.7207,-4.7573,-4.7701,-4.7757,-4.8073,-4.8448,-4.8787,-4.8787,-4.8661,-4.8513,-4.8513,-4.8419,-4.8306,-4.8306,-4.8267,-4.8189,-4.7992,-4.7666,-4.732,-4.698,-4.6772,-4.6684,-4.6708,-4.6819,-4.6952,-4.6998,-4.6998,-4.6998,-4.6998,-4.6888,-4.6795,-4.6731,-4.6495,-4.6143,-4.5607,-4.5933,-4.5828,-4.4922,-4.5111,-4.5141,-4.4779,-4.4436,-4.4476,-4.5031,-4.4353,-4.3925,-4.3925,-4.3197,-4.2626,-4.2308,-4.2308,-4.2308,-4.2308,-4.2308,-4.2308,-4.2308,-4.2308,-4.2348,-4.0824,0.0,0.0,-4.3078,-4.3998,0.0,-4.6726,-4.7762,-4.8592,-4.939,0.0,-4.7417,-4.7219,-4.7219,-4.6932,-4.6162,-4.6617,-4.6844,-4.6102,-4.6052,-4.6056,-4.6056,-4.5545,-4.5235,-4.543,-4.4876,-4.4231,-4.3529,-4.3479,-4.3161,-4.2343,-4.3001,-4.3054,-4.2325,-4.3019,-4.3036,-4.2308,-4.2787,-4.3069,-4.3214,-4.3682,-4.3945,-4.4023,-4.4822,-4.4785,-4.4191,-4.5732,-4.6475,-4.6717,-4.811,-4.8296,-4.7683,-4.7627,-4.7107,-4.6475,-4.7218,-4.7534,-4.7701,-4.8426,-4.8745,-4.8804,-4.8804,-4.8661,-4.8513,-4.8513,-4.8419,-4.8306,-4.8306,-4.8287,-4.8209,-4.7875,-4.7582,-4.7276,-4.7048,-4.6888,-4.6731,-4.6637,-4.6708,-4.6865,-4.6975,-4.6998,-4.6998,-4.698,-4.6888,-4.6754,-4.6613,-4.6374,-4.6221,-4.6221,-4.6196,-4.6196,-4.6221,-4.5727,-4.5447,-4.5528,-4.5648,-4.5761,-4.5909,-4.5035,-4.4531,-4.4603,-4.3818,-4.3054,-4.2305,-4.2308,-4.2308,-4.2308,-4.2308,-4.2308,-4.2308,-4.2308,-4.2409,-4.1702,-4.2221,0.0,0.0,-4.5191,-4.6569,-4.7639,-4.7579,-4.7544,-4.8294,-4.8189,-4.7814,-4.7299,-4.7219,-4.6982,-4.627,-4.6213,-4.619,-4.6015,-4.5449,-4.504,-4.504,-4.4528,-4.422,-4.4249,-4.4422,-4.4191,-4.339,-4.3437,-4.3161,-4.2343,-4.2448,-4.2465,-4.2308,-4.2486,-4.2465,-4.2308,-4.2881,-4.316,-4.3214,-4.3732,-4.3989,-4.4005,-4.4191,-4.4544,-4.5026,-4.5398,-4.6271,-4.7423,-4.7125,-4.7293,-4.7646,-4.6995,-4.6271,-4.5565,-4.5751,-4.6215,-4.6773,-4.6958,-4.7833,-4.8874,-4.8822,-4.8697,-4.8569,-4.8513,-4.8419,-4.8306,-4.8306,-4.8267,-4.8149,-4.7854,-4.7705,-4.7508,-4.7111,-4.6819,-4.6637,-4.6613,-4.6795,-4.6975,-4.698,-4.6998,-4.6975,-4.6865,-4.6819,-4.6754,-4.6613,-4.6471,-4.635,-4.635,-4.627,-4.6246,-4.635,-4.6329,-4.6366,-4.6482,-4.6046,-4.6047,-4.6694,-4.4856,-4.3996,-4.4567,-4.3286,-4.2465,-4.2308,-4.2308,-4.2308,-4.2308,-4.2308,-4.2308,-4.2308,-4.2308,-4.2328,-4.1734,0.0,0.0,-4.4423,0.0,-4.635,-4.7192,-4.6776,-4.6447,-4.7209,-4.723,-4.6986,-4.6602,-4.6532,-4.6393,-4.5992,-4.5846,-4.5699,-4.5316,-4.4908,-4.4458,-4.4136,-4.355,-4.322,-4.3354,-4.3275,-4.3062,-4.2761,-4.2786,-4.2671,-4.2305,-4.2308,-4.2308,-4.2308,-4.2308,-4.2308,-4.2308,-4.2825,-4.3142,-4.3214,-4.3716,-4.3958,-4.4005,-4.4005,-4.4246,-4.4692,-4.5119,-4.5769,-4.655,-4.6513,-4.6513,-4.6513,-4.6085,-4.5398,-4.4766,-4.5584,-4.6141,-4.6605,-4.7386,-4.8203,-4.8891,-4.8822,-4.8715,-4.8605,-4.8513,-4.8419,-4.8306,-4.8306,-4.8267,-4.8189,-4.7953,-4.7811,-4.7663,-4.7316,-4.7025,-4.6754,-4.6708,-4.6819,-4.6911,-4.6998,-4.6998,-4.698,-4.6911,-4.6842,-4.6754,-4.6613,-4.6495,-4.6405,-4.6405,-4.635,-4.635,-4.6495,-4.6613,-4.6708,-4.6778,-4.6537,-4.6391,-4.6409,-4.4997,-4.4142,-4.4089,-4.3033,-4.2409,-4.2308,-4.2308,-4.2308,-4.2308,-4.2308,-4.2308,-4.2308,-4.2308,-4.2348,0.0,0.0,-4.3452,-4.4988,-4.5377,0.0,-4.6224,-4.588,-4.5587,-4.6295,-4.6135,-4.5871,-4.577,-4.5787,-4.5736,-4.5641,-4.5511,-4.5199,-4.4584,-4.4246,-4.3848,-4.3224,-4.2599,-4.2271,-4.2496,-4.2079,-4.1866,-4.2058,-4.2082,-4.2145,-4.2267,-4.2287,-4.2308,-4.2308,-4.2308,-4.2308,-4.2308,-4.2768,-4.3069,-4.3214,-4.3718,-4.3992,-4.4051,-4.4036,-4.402,-4.4042,-4.4748,-4.5157,-4.5342,-4.5862,-4.5751,-4.5287,-4.5119,-4.4636,-4.4191,-4.5732,-4.6382,-4.6717,-4.8184,-4.8779,-4.8891,-4.8786,-4.8697,-4.8569,-4.8476,-4.8382,-4.8306,-4.8306,-4.8306,-4.8248,-4.8052,-4.7913,-4.7772,-4.7597,-4.7316,-4.707,-4.6957,-4.6957,-4.698,-4.7048,-4.7002,-4.6921,-4.6801,-4.6776,-4.6695,-4.646,-4.643,-4.6429,-4.6429,-4.6429,-4.6495,-4.6613,-4.6731,-4.6819,-4.6842,-4.6809,-4.6516,-4.5838,-4.5083,-4.4316,-4.3536,-4.288,-4.2542,-4.2522,-4.2358,-4.2379,-4.2501,-4.2379,-4.2308,-4.2308,-4.2328,-4.245,0.0,0.0,-4.4152,0.0,-4.5684,-4.5308,0.0,0.0,-4.5458,0.0,-4.5598,-4.5502,-4.5607,-4.5632,-4.5641,-4.5761,-4.5137,-4.4618,-4.4514,-4.3254,-4.2299,-4.2196,-4.1695,-4.1366,-4.1411,-4.1657,-4.1801,-4.1845,-4.1998,-4.2103,-4.2124,-4.2246,-4.2308,-4.2308,-4.2308,-4.2308,-4.2308,-4.2768,-4.3069,-4.3214,-4.3849,-4.4199,-4.427,-4.4214,-4.4119,-4.4005,-4.4116,-4.4599,-4.5249,-4.4599,-4.4711,-4.5212,-4.4469,-4.4098,-4.4116,-4.5101,-4.59,-4.6624,-4.7534,-4.8314,-4.8874,-4.8696,-4.8605,-4.8587,-4.8382,-4.8306,-4.8306,-4.8306,-4.8306,-4.8248,-4.8052,-4.7992,-4.7911,-4.772,-4.7636,-4.7572,-4.7446,-4.749,-4.7529,-4.7298,-4.703,-4.6651,-4.6065,-4.6333,-4.643,-4.5808,-4.6194,-4.6566,-4.6566,-4.6566,-4.6613,-4.6754,-4.6795,-4.6842,-4.6957,-4.6355,-4.5909,-4.582,-4.4468,-4.3629,-4.3518,-4.2736,-4.2667,-4.334,-4.2662,-4.2626,-4.3358,-4.2626,-4.2308,-4.2308,-4.249,-4.257,-4.2029,-4.3048,-4.4061,0.0,-4.5272,-4.5113,-4.5167,0.0,-4.53,-4.5353,-4.5397,-4.545,-4.5581,-4.5607,-4.5451,-4.5018,-4.4646,-4.4076,-4.3212,-4.2455,-4.1861,-4.1429,-4.1279,-4.1209,-4.1209,-4.1498,-4.1714,-4.178,-4.1948,-4.2076,-4.2103,-4.2225,-4.2308,-4.2308,-4.2308,-4.2308,-4.2308,-4.2729,-4.3142,-4.3532,-4.3979,-4.4214,-4.4244,-4.4214,-4.4169,-4.4119,-4.402,-4.4228,-4.4544,-4.4153,-4.4228,-4.4525,-4.4153,-4.4005,-4.4116,-4.4971,-4.5807,-4.6624,-4.7423,-4.8206,-4.8804,-4.8641,-4.8569,-4.8513,-4.8344,-4.8306,-4.8306,-4.8306,-4.8306,-4.8287,-4.819,-4.817,-4.8151,-4.807,-4.7949,-4.7847,-4.7788,-4.7621,-4.7425,-4.7183,-4.7025,-4.6827,-4.6534,-4.6656,-4.6694,-4.6333,-4.6518,-4.6708,-4.6708,-4.6708,-4.6754,-4.6888,-4.7007,-4.6874,-4.6355,-4.6149,-4.5577,-4.4571,-4.3981,-4.3411,-4.284,-4.2606,-4.2846,-4.3653,-4.2759,-4.2894,-4.4103,-4.3018,-4.2703,-4.3115,-4.2886,-4.2767,0.0,0.0,0.0,0.0,-4.4804,-4.5005,0.0,0.0,-4.515,0.0,-4.5119,-4.5104,-4.526,-4.5286,-4.507,-4.4423,-4.3983,-4.3327,-4.2171,-4.1843,-4.1533,-4.0981,-4.1088,-4.1139,-4.0948,-4.1326,-4.149,-4.119,-4.1672,-4.192,-4.1795,-4.1922,-4.2004,-4.2004,-4.1787,-4.1787,-4.1984,-4.2639,-4.3268,-4.3837,-4.4107,-4.4244,-4.4259,-4.4259,-4.4244,-4.4214,-4.407,-4.4005,-4.4005,-4.4005,-4.4005,-4.4005,-4.4005,-4.4005,-4.4135,-4.5212,-4.5974,-4.6643,-4.7646,-4.8355,-4.8787,-4.8642,-4.855,-4.8476,-4.8343,-4.8306,-4.8306,-4.8306,-4.8306,-4.8306,-4.8306,-4.8306,-4.8306,-4.8306,-4.8151,-4.7992,-4.7931,-4.76,-4.7254,-4.7116,-4.7025,-4.6926,-4.673,-4.6832,-4.6863,-4.6644,-4.6746,-4.6893,-4.6962,-4.7025,-4.707,-4.7178,-4.7092,-4.6733,-4.5966,-4.566,-4.4943,-4.359,-4.3512,-4.3158,-4.2407,-4.257,-4.3048,-4.3876,-4.2945,-4.3112,-4.4471,-4.3274,-4.2976,-4.3552,-4.3153,-4.2994,0.0,-4.2185,0.0,0.0,0.0,0.0,0.0,0.0,0.0,-4.5177,-4.4654,-4.4208,-4.4337,-4.4363,-4.4345,-4.4311,-4.3086,-4.2102,-4.1992,-4.1412,-4.0946,-4.0912,-4.1088,-4.0948,-4.0229,-4.1028,-4.1007,-3.955,-4.1029,-4.1669,-4.0911,-4.1042,-4.1163,-4.1163,-4.0431,-4.0396,-4.1145,-4.252,-4.3427,-4.3915,-4.4165,-4.4329,-4.4383,-4.4383,-4.434,-4.4285,-4.4101,-4.4005,-4.4005,-4.4005,-4.4005,-4.4005,-4.4005,-4.4005,-4.4191,-4.5825,-4.6457,-4.6717,-4.8296,-4.8819,-4.8787,-4.8642,-4.855,-4.8476,-4.8343,-4.8306,-4.8306,-4.8306,-4.8306,-4.8306,-4.8306,-4.8306,-4.8306,-4.8306,-4.8151,-4.7949,-4.7762,-4.7511,-4.7298,-4.7298,-4.712,-4.6748,-4.5998,-4.6389,-4.6639,-4.6131,-4.6637,-4.7191,-4.7446,-4.7554,-4.7675,-4.7657,-4.6819,-4.6241,-4.6166,-4.461,-4.3607,-4.3518,-4.2974,-4.2625,-4.2589,-4.2786,-4.3261,-4.4075,-4.3278,-4.3278,-4.4127,-4.3298,-4.2918,-4.2955,-4.3105,-4.3178,0.0,0.0,0.0,0.0,0.0,-4.399,0.0,-4.4241,-4.4868,-4.4443,-4.4293,-4.4242,-4.4285,-4.3914,-4.3414,-4.2913,-4.2378,-4.1843,-4.136,-4.1067,-4.0912,-4.0912,-4.1053,-4.1042,-4.0758,-4.076,-4.0548,-3.9966,-4.0243,-4.0341,-4.0058,-4.0704,-4.086,-4.036,-4.0556,-4.0712,-4.0781,-4.1832,-4.2603,-4.3138,-4.3274,-4.3688,-4.4329,-4.4188,-4.4207,-4.4285,-4.4101,-4.4005,-4.4005,-4.4005,-4.4005,-4.4005,-4.4005,-4.4005,-4.4079,-4.4674,-4.5199,-4.5762,-4.6856,-4.7493,-4.7905,-4.8384,-4.8457,-4.8363,-4.8306,-4.8306,-4.8306,-4.8306,-4.8306,-4.8306,-4.8306,-4.8209,-4.8072,-4.7949,-4.7847,-4.7783,-4.7717,-4.7381,-4.7116,-4.7116,-4.6637,-4.6186,-4.6032,-4.5763,-4.5556,-4.5554,-4.5773,-4.6176,-4.6765,-4.6897,-4.6876,-4.6747,-4.6988,-4.6636,-4.5294,-4.5321,-4.4916,-4.3763,-4.3606,-4.3328,-4.2804,-4.2844,-4.3338,-4.4269,-4.3487,-4.3666,-4.4871,-4.3666,-4.336,-4.3851,-4.3542,-4.3667,-4.1199,0.0,0.0,0.0,0.0,-4.3284,-4.2957,0.0,-4.4036,-4.3594,-4.3443,-4.3408,-4.3509,-4.293,-4.2327,-4.205,-4.1809,-4.1464,-4.0981,-4.0912,-4.0912,-4.0912,-4.1023,-4.0903,-4.0412,-4.0314,-3.9997,-3.9252,-3.9453,0.0,-3.9244,-3.9921,-3.9968,-3.9147,-4.001,-4.0399,-4.0233,-4.1188,-4.1879,-4.2335,-4.2389,-4.2936,-4.3855,-4.3733,-4.3882,-4.4255,-4.4135,-4.4036,-4.4005,-4.4005,-4.4005,-4.4005,-4.4005,-4.4005,-4.4042,-4.4321,-4.4721,-4.523,-4.6027,-4.6739,-4.7353,-4.7611,-4.7978,-4.8251,-4.7994,-4.8104,-4.8306,-4.8306,-4.8306,-4.8306,-4.8306,-4.8209,-4.8052,-4.7847,-4.7804,-4.7783,-4.7699,-4.7381,-4.7138,-4.7223,-4.6599,-4.6087,-4.6215,-4.557,-4.5111,-4.5368,-4.5388,-4.5678,-4.6497,-4.6352,-4.6325,-4.6678,-4.6819,-4.6455,-4.5329,-4.5763,-4.5576,-4.4367,-4.424,-4.3957,-4.343,-4.3468,-4.3834,-4.4492,-4.4236,-4.4418,-4.5086,-4.3889,-4.3706,-4.4492,-4.4088,-4.4195,0.0,0.0,0.0,0.0,0.0,0.0,-4.3496,0.0,-4.2541,-4.2637,-4.2108,-4.1688,-4.1943,-4.1371,-4.1136,-4.1861,-4.1378,-4.0912,-4.0912,-4.0912,-4.0912,-4.0912,-4.0989,-4.0493,-3.9077,-3.9748,-3.9371,-3.7216,-3.8629,-3.9261,-3.8538,-3.8658,-3.8415,-3.7666,-3.8654,-3.9299,-3.9469,-4.0602,-4.1311,-4.1575,-4.164,-4.2122,-4.3001,-4.2996,-4.3453,-4.4199,-4.4184,-4.4119,-4.4005,-4.4005,-4.4005,-4.4005,-4.4005,-4.4005,-4.4098,-4.4952,-4.5182,-4.5193,-4.599,-4.6684,-4.7113,-4.634,-4.7059,-4.8104,-4.7333,-4.7645,-4.8269,-4.8306,-4.8306,-4.8306,-4.8287,-4.8287,-4.8248,-4.8052,-4.7992,-4.7949,-4.7762,-4.7511,-4.7407,-4.7621,-4.7011,-4.6468,-4.6432,-4.5759,-4.5314,-4.5511,-4.5549,-4.5822,-4.6642,-4.6059,-4.6091,-4.7485,-4.6253,-4.5657,-4.6436,-4.582,-4.5367,-4.5349,-4.4797,-4.4473,-4.4436,-4.4601,-4.4709,-4.4764,-4.5461,-4.5461,-4.4728,-4.392,-4.392,-4.4654,-4.4691,-4.469,-4.0745,0.0,0.0,0.0,0.0,0.0,0.0,0.0,0.0,-4.2006,-4.1808,-4.1763,-4.1845,-4.134,-4.0981,-4.117,-4.1032,-4.0912,-4.0912,-4.0912,-4.0912,-4.0912,-4.0417,-3.9963,-3.9643,-3.9464,-3.9124,0.0,-3.8657,-3.864,-3.8445,-3.8107,-3.8094,-3.8469,-3.8941,-3.9027,-3.8713,-3.9785,-4.047,-4.0736,-4.0859,-4.161,-4.2928,-4.2928,-4.3379,-4.4184,-4.4104,-4.402,-4.4005,-4.4005,-4.4005,-4.4005,-4.4005,-4.4005,-4.4023,-4.4265,-4.4262,-4.428,-4.5075,-4.538,-4.5479,-4.5828,-4.6232,-4.6636,-4.6984,-4.7259,-4.7553,-4.8141,-4.8306,-4.8267,-4.8131,-4.819,-4.8248,-4.8052,-4.7992,-4.8032,-4.8111,-4.7972,-4.7606,-4.6959,-4.6178,-4.5494,-4.505,-4.4324,-4.3852,-4.4052,-4.4088,-4.4381,-4.5187,-4.5096,-4.5278,-4.6091,-4.6309,-4.6413,-4.649,-4.6957,-4.7001,-4.6418,-4.6356,-4.6085,-4.5517,-4.4985,-4.5241,-4.6415,-4.4947,-4.4617,-4.5571,-4.4764,-4.4176,-4.3846,-4.4433,-4.4397,-4.0817,-4.084,-4.0981,-4.1291,0.0,0.0,-4.1128,-4.1423,-4.1647,0.0,-4.1134,-4.1209,-4.1324,-4.1061,-4.084,-4.0888,-4.0912,-4.0912,-4.0912,-4.0912,-4.0791,-4.0446,-3.9974,-3.9525,-3.9076,-3.9012,-3.8911,-3.8709,-3.8534,-3.8343,-3.8065,-3.7771,-3.7809,-3.8272,-3.867,-3.871,-3.8399,-3.9242,-3.9764,-3.9979,-4.0056,-4.0942,-4.2478,-4.2454,-4.3077,-4.4184,-4.4119,-4.4055,-4.4005,-4.4005,-4.4005,-4.4005,-4.4005,-4.4005,-4.4005,-4.4005,-4.3913,-4.3878,-4.434,-4.459,-4.4727,-4.4856,-4.5351,-4.592,-4.6049,-4.6562,-4.7204,-4.7663,-4.8049,-4.8194,-4.7748,-4.7953,-4.8267,-4.8151,-4.8131,-4.8059,-4.7846,-4.7715,-4.7432,-4.6858,-4.6092,-4.5329,-4.4638,-4.3852,-4.3357,-4.3479,-4.3515,-4.3774,-4.4473,-4.4565,-4.493,-4.587,-4.6456,-4.6895,-4.7102,-4.7738,-4.793,-4.7453,-4.7221,-4.6892,-4.6434,-4.5938,-4.5975,-4.6581,-4.5553,-4.5149,-4.5442,-4.4616,-4.4121,-4.4011,-4.4505,-4.4486,-4.0912,-4.0912,-4.1067,-4.1723,-4.1395,0.0,-4.1429,-4.0996,-4.0485,0.0,0.0,-4.0429,-4.0648,-4.0697,-4.0769,-4.0888,-4.0912,-4.0912,-4.0912,-4.0912,-4.0636,-3.9905,-3.9681,-3.9133,-3.8034,-3.8585,-3.8775,-3.8266,-3.8556,-3.8454,-3.7773,-3.7809,-3.7791,-3.7613,-3.821,-3.849,-3.8415,-3.896,-3.9288,-3.9405,-3.9418,-4.0285,-4.1879,-4.1842,-4.2687,-4.4199,-4.4199,-4.4135,-4.402,-4.4005,-4.4005,-4.4005,-4.4005,-4.4005,-4.4005,-4.3989,-4.3897,-4.3804,-4.3804,-4.4148,-4.4452,-4.3735,-4.4469,-4.5516,-4.4892,-4.57,-4.6856,-4.6947,-4.7535,-4.8012,-4.7278,-4.77,-4.8288,-4.8196,-4.8177,-4.7957,-4.7131,-4.6966,-4.6947,-4.6856,-4.6269,-4.5516,-4.4709,-4.3975,-4.3515,-4.3515,-4.3515,-4.3739,-4.4346,-4.4437,-4.4982,-4.6404,-4.6748,-4.7175,-4.7959,-4.8209,-4.8306,-4.8306,-4.7626,-4.7223,-4.7223,-4.7058,-4.6654,-4.6049,-4.6562,-4.614,-4.4683,-4.3897,-4.3882,-4.4598,-4.4667,-4.4683,-4.0864,-4.0912,-4.0929,-4.1084,-4.1015,0.0,-4.1013,-4.0848,-4.0648,0.0,-4.0624,-4.0624,-4.0697,-4.0793,-4.0864,-4.0912,-4.0912,-4.0912,-4.0912,-4.0912,-4.0843,-4.0687,-3.9583,-3.877,-3.8695,-3.8877,-3.9019,-3.9073,-3.9864,-3.984,-3.8628,-3.9129,-3.8879,-3.7648,-3.8683,-3.9037,-3.8494,-3.9064,-3.9373,-3.9405,-3.952,-4.0351,-4.1815,-4.1851,-4.2754,-4.4289,-4.4229,-4.4184,-4.415,-4.4036,-4.4005,-4.4005,-4.4005,-4.4005,-4.3989,-4.3945,-4.3867,-4.3804,-4.3804,-4.378,-4.3717,-4.362,-4.3751,-4.4048,-4.4562,-4.4911,-4.5296,-4.5957,-4.6709,-4.7296,-4.7131,-4.77,-4.8141,-4.748,-4.7333,-4.7113,-4.6305,-4.614,-4.5938,-4.5278,-4.5057,-4.469,-4.3864,-4.3606,-4.3515,-4.3515,-4.3515,-4.3791,-4.4545,-4.4655,-4.5242,-4.6816,-4.7019,-4.7368,-4.8175,-4.8287,-4.8306,-4.8306,-4.8159,-4.8086,-4.8086,-4.6819,-4.6361,-4.6856,-4.5791,-4.4831,-4.3992,-4.3708,-4.3726,-4.3994,-4.3992,-4.3992,-4.0888,-4.0912,-4.0912,-4.0912,-4.0912,0.0,0.0,-4.0745,-4.0673,-4.0607,-4.0292,-4.0179,-4.0628,-4.0418,-4.0352,-4.0819,-4.0912,-4.0912,-4.0912,-4.0912,-4.0756,-4.0359,-3.9612,-3.9098,-3.896,-3.9317,-3.9674,-4.0031,-4.0509,-4.0213,-3.8878,-3.9484,-3.9379,-3.8237,-3.946,-3.9768,-3.9015,-3.9657,-3.9797,-3.9405,-3.9939,-4.0796,-4.1916,-4.2382,-4.325,-4.4358,-4.427,-4.4229,-4.4184,-4.4055,-4.4005,-4.4005,-4.4005,-4.4005,-4.4005,-4.3958,-4.3899,-4.3804,-4.3804,-4.3669,-4.3515,-4.3531,-4.3532,-4.3588,-4.3975,-4.4378,-4.4764,-4.5186,-4.5883,-4.6416,-4.6012,-4.6507,-4.7003,-4.6599,-4.6507,-4.6287,-4.548,-4.5296,-4.5057,-4.4268,-4.4103,-4.3975,-4.357,-4.3515,-4.3515,-4.3515,-4.3828,-4.4103,-4.4103,-4.5168,-4.6049,-4.6452,-4.7204,-4.7846,-4.8269,-4.8306,-4.816,-4.7812,-4.7738,-4.7554,-4.7224,-4.6434,-4.6011,-4.6046,-4.4902,-4.414,-4.3851,-4.3783,-4.3769,-4.3804,-4.3818,-4.3851,-4.0894,-4.0912,-4.0912,-4.0912,-4.0912,-4.0864,0.0,0.0,0.0,-4.0607,0.0,0.0,0.0,0.0,0.0,0.0,0.0,0.0,0.0,-4.0912,0.0,-4.0198,-3.9871,-3.9588,-3.9242,-3.9652,-4.0184,-4.0763,-4.0925,-4.0514,-3.9306,-3.995,-3.995,-3.9039,-4.0311,-4.0624,-3.9803,-4.0329,-4.0283,-3.9687,-4.0446,-4.1229,-4.2023,-4.29,-4.3717,-4.4411,-4.4329,-4.4255,-4.4214,-4.407,-4.4005,-4.4005,-4.4005,-4.4005,-4.4005,-4.3989,-4.3913,-4.382,-4.3804,-4.3686,-4.3513,-4.3513,-4.3515,-4.3515,-4.3515,-4.3956,-4.447,-4.447,-4.5057,-4.5516,-4.4856,-4.5296,-4.5865,-4.5718,-4.5663,-4.5461,-4.4635,-4.447,-4.4287,-4.3643,-4.3515,-4.3515,-4.3515,-4.3515,-4.3515,-4.3515,-4.4048,-4.4287,-4.3791,-4.5443,-4.6434,-4.5957,-4.7058,-4.7847,-4.7847,-4.7847,-4.7628,-4.7059,-4.6967,-4.6654,-4.6119,-4.5953,-4.5562,-4.4814,-4.4167,-4.3883,-4.3995,-4.3995,-4.3947,-4.3886,-4.3931,-4.3961,-4.0864,-4.0912,-4.0912,-4.0912,-4.0912,-4.0912,-4.0888,0.0,-4.0871,-4.0847,0.0,0.0,0.0,0.0,0.0,0.0,0.0,0.0,-4.0808,-4.0912,-4.1119,-4.1664,-4.0526,-3.9772,-3.9964,-3.9625,-3.9772,-4.0728,-4.1456,-4.1558,-4.0875,-4.1591,-4.1341,-3.9805,-4.1071,-4.1461,-4.084,-4.0684,-4.0616,-4.064,-4.0747,-4.1229,-4.2023,-4.29,-4.3726,-4.4487,-4.4358,-4.4285,-4.427,-4.4067,-4.4005,-4.4005,-4.4005,-4.4005,-4.3989,-4.3929,-4.3897,-4.3883,-4.382,-4.3719,-4.3582,-4.3582,-4.3548,-4.3515,-4.3515,-4.3552,-4.3626,-4.3626,-4.4213,-4.4837,-4.4709,-4.5296,-4.5718,-4.5021,-4.4838,-4.4635,-4.3809,-4.3626,-4.3608,-4.3533,-4.3515,-4.3515,-4.3515,-4.3515,-4.3515,-4.3515,-4.3588,-4.3864,-4.4488,-4.4801,-4.5223,-4.5828,-4.6067,-4.6177,-4.6177,-4.6177,-4.614,-4.6067,-4.6158,-4.6193,-4.6101,-4.547,-4.4813,-4.4122,-4.4029,-4.407,-4.4255,-4.4255,-4.4211,-4.4153,-4.4153,-4.4199,-4.0871,-4.0912,-4.0912,-4.0912,-4.0912,-4.0912,-4.0912,-4.0912,-4.0912,-4.0912,0.0,0.0,0.0,0.0,0.0,0.0,-4.0636,0.0,0.0,0.0,-4.1015,0.0,0.0,0.0,-4.0842,-4.0723,-4.0866,-4.1453,-4.181,-4.1735,-4.1125,-4.1859,-4.177,-4.0646,-4.194,-4.2284,-4.1514,-4.1364,-4.1081,-4.068,-4.0759,-4.0985,-4.136,-4.2693,-4.3455,-4.3769,-4.4138,-4.4289,-4.4244,-4.407,-4.4005,-4.4005,-4.3961,-4.3976,-4.4005,-4.3958,-4.3929,-4.3899,-4.382,-4.3719,-4.3582,-4.3548,-4.3513,-4.3515,-4.3515,-4.3515,-4.3515,-4.3515,-4.3736,-4.3993,-4.3993,-4.425,-4.4415,-4.4085,-4.3993,-4.3901,-4.357,-4.3515,-4.3515,-4.3515,-4.3515,-4.3515,-4.3515,-4.3515,-4.3515,-4.3515,-4.3901,-4.4158,-4.4011,-4.4819,-4.5351,-4.5223,-4.5626,-4.5902,-4.5902,-4.5974,-4.5826,-4.54,-4.5026,-4.4818,-4.4818,-4.4519,-4.4281,-4.4119,-4.4119,-4.418,-4.43,-4.43,-4.43,-4.4314,-4.4289,-4.427,-4.0912,-4.0935,-4.0959,-4.0912,-4.0942,-4.0989,-4.0959,-4.0959,-4.0959,-4.0989,-4.0452,0.0,0.0,0.0,-3.9957,-4.0774,0.0,-4.0653,0.0,-4.0959,0.0,0.0,0.0,0.0,0.0,-4.1007,-4.1147,-4.163,-4.1669,-4.1614,-4.1448,-4.177,-4.1787,-4.1431,-4.2574,-4.2904,-4.2302,-4.2187,-4.1838,-4.1319,-4.1196,-4.1248,-4.1529,-4.2736,-4.3371,-4.3559,-4.4057,-4.4244,-4.4184,-4.4055,-4.3989,-4.3958,-4.3913,-4.3913,-4.3945,-4.3945,-4.3913,-4.3867,-4.3769,-4.3667,-4.3582,-4.3513,-4.3549,-4.3566,-4.3549,-4.3549,-4.3583,-4.3583,-4.3583,-4.3566,-4.3549,-4.3532,-4.3513,-4.3496,-4.3515,-4.3515,-4.3515,-4.3515,-4.3515,-4.3515,-4.3515,-4.3515,-4.3515,-4.3515,-4.3515,-4.3515,-4.3993,-4.4158,-4.3588,-4.4507,-4.5021,-4.4433,-4.491,-4.5277,-4.5277,-4.5384,-4.5249,-4.4742,-4.4198,-4.3897,-4.3929,-4.3961,-4.4058,-4.4229,-4.4244,-4.4304,-4.4358,-4.4358,-4.4387,-4.4426,-4.4373,-4.4344,0.0,0.0,0.0,-4.0935,-4.1041,-4.1163,-4.1117,-4.1093,-4.1117,-4.118,-4.1024,-4.0901,-4.107,-4.0343,-3.9957,-4.0774,-4.0256,0.0,0.0,0.0,0.0,0.0,0.0,0.0,0.0,-3.9746,-3.9775,-4.0766,-4.0837,-4.1242,-4.2216,-4.1538,-4.1484,-4.2254,-4.2863,-4.3214,-4.3248,-4.3052,-4.3006,-4.3109,-4.2334,-4.2399,-4.3219,-4.3207,-4.3615,-4.4345,-4.4255,-4.4199,-4.4184,-4.4055,-4.3958,-4.3897,-4.3897,-4.3867,-4.3804,-4.3804,-4.3804,-4.3788,-4.3651,-4.3599,-4.3582,-4.3513,-4.3617,-4.3771,-4.3634,-4.3703,-4.3788,-4.3788,-4.3788,-4.3753,-4.3634,-4.3599,-4.3582,-4.3532,-4.3515,-4.3515,-4.3515,-4.3515,-4.3515,-4.3515,-4.3515,-4.3515,-4.3515,-4.3515,-4.3515,-4.3515,-4.3533,-4.3533,-4.3515,-4.3551,-4.357,-4.3551,-4.3621,-4.3672,-4.3672,-4.3793,-4.3892,-4.3918,-4.3915,-4.3929,-4.3989,-4.4119,-4.4229,-4.4285,-4.4373,-4.443,-4.4501,-4.4501,-4.4501,-4.4501,-4.4426,-4.4426,0.0,0.0,-4.1093,-4.1088,0.0,0.0,0.0,-4.1175,-4.118,-4.1209,-4.1105,-4.1047,-4.1093,-4.0775,-4.0584,-4.086,-4.0734,-4.0545,0.0,0.0,0.0,0.0,0.0,0.0,0.0,0.0,-4.0334,-4.0766,-4.0864,-4.1111,-4.1484,-4.1752,-4.2022,-4.2308,-4.2671,-4.2995,-4.3232,-4.2853,-4.2809,-4.3062,-4.2304,-4.2115,-4.2455,-4.2968,-4.3306,-4.3492,-4.3987,-4.4135,-4.407,-4.402,-4.3989,-4.3958,-4.3913,-4.3867,-4.3804,-4.3804,-4.3804,-4.3788,-4.3651,-4.3599,-4.3599,-4.3565,-4.3667,-4.3788,-4.3754,-4.3753,-4.3804,-4.3804,-4.3804,-4.3788,-4.3736,-4.3667,-4.3634,-4.3686,-4.3634,-4.36,-4.3686,-4.3703,-4.3703,-4.3703,-4.3617,-4.3565,-4.3565,-4.3513,-4.3515,-4.3515,-4.3515,-4.3515,-4.3515,-4.3531,-4.3565,-4.3565,-4.3686,-4.3736,-4.3736,-4.3818,-4.3881,-4.3958,-4.4058,-4.4104,-4.4135,-4.4211,-4.43,-4.4354,-4.4383,-4.4426,-4.4501,-4.4501,-4.4501,-4.4501,-4.4487,-4.4487,-4.1186,-4.1203,0.0,-4.1186,-4.1277,0.0,-4.1277,0.0,-4.1277,-4.1323,-4.1198,-4.1117,-4.1123,-4.1006,-4.0912,-4.0912,-4.1006,-4.0839,0.0,-4.0157,-4.018,-3.9966,-4.0552,-4.0963,0.0,-4.0651,-4.0634,-4.0801,-4.0864,-4.109,-4.152,-4.1752,-4.1984,-4.2308,-4.2573,-4.2845,-4.3196,-4.3015,-4.3098,-4.3419,-4.2698,-4.2524,-4.2805,-4.3025,-4.3249,-4.3442,-4.3923,-4.407,-4.4005,-4.4005,-4.3989,-4.3958,-4.3913,-4.3783,-4.3634,-4.3703,-4.3736,-4.3719,-4.3634,-4.3651,-4.3699,-4.3684,-4.3751,-4.3867,-4.3835,-4.3851,-4.3867,-4.3835,-4.3851,-4.3867,-4.382,-4.3753,-4.3718,-4.3788,-4.3736,-4.3684,-4.3788,-4.3804,-4.3804,-4.3804,-4.3736,-4.3667,-4.3667,-4.3652,-4.3583,-4.3515,-4.3513,-4.3549,-4.3549,-4.3617,-4.3667,-4.3667,-4.3769,-4.3853,-4.3867,-4.3913,-4.3942,-4.4005,-4.4119,-4.4199,-4.4199,-4.4285,-4.4358,-4.4397,-4.4411,-4.4473,-4.4501,-4.4501,-4.4501,-4.4501,-4.4501,-4.4501]},{"header":{"parameterUnit":"m.s-1","parameterCategory":1,"la1":30.6,"la2":29.2853,"lo1":-89.7004,"lo2":-87.6739,"dy":0.0162,"dx":0.0183,"nx":112,"ny":82,"refTime":"2023-06-09T12:00:00:Z","depth":0,"parameterNumber":3,"parameterNumberName":"V-component_of_WINDS"},"data":[0.0,0.0,0.0,0.0,0.0,0.0,0.0,0.0,0.0,0.0,0.0,0.0,0.0,0.0,0.0,0.0,0.0,0.0,0.0,0.0,0.0,0.0,0.0,0.0,0.0,0.0,0.0,0.0,0.0,0.0,0.0,0.0,0.0,0.0,0.0,0.0,0.0,0.0,0.0,0.0,0.0,0.0,0.0,0.0,0.0,0.0,0.0,0.0,0.0,0.0,0.0,0.0,0.0,0.0,0.0,0.0,0.0,0.0,0.0,0.0,0.0,0.0,0.0,0.0,0.0,0.0,0.0,0.0,0.0,0.0,0.0,0.0,0.0,0.0,0.0,0.0,0.0,0.0,0.0,0.0,0.0,0.0,0.0,0.0,0.0,0.0,0.0,0.0,0.0,0.0,-1.6662,-1.7382,-1.8893,-2.0132,-2.0787,-2.2389,-2.2814,-2.1544,0.0,0.0,0.0,0.0,0.0,0.0,0.0,0.0,0.0,0.0,0.0,0.0,0.0,0.0,0.0,0.0,0.0,0.0,0.0,0.0,0.0,0.0,0.0,0.0,0.0,0.0,0.0,0.0,0.0,0.0,0.0,0.0,0.0,0.0,0.0,0.0,0.0,0.0,0.0,0.0,0.0,0.0,0.0,0.0,0.0,0.0,0.0,0.0,0.0,0.0,0.0,0.0,0.0,0.0,0.0,0.0,0.0,0.0,0.0,0.0,0.0,0.0,0.0,0.0,0.0,0.0,0.0,0.0,0.0,0.0,0.0,0.0,0.0,0.0,0.0,0.0,0.0,0.0,0.0,0.0,0.0,0.0,0.0,0.0,0.0,0.0,0.0,0.0,0.0,0.0,0.0,0.0,0.0,0.0,0.0,0.0,0.0,0.0,0.0,0.0,0.0,0.0,0.0,0.0,-1.6259,-1.7464,-1.9138,-2.0545,-2.1364,-2.2592,-2.3108,-2.268,0.0,0.0,0.0,0.0,0.0,0.0,0.0,0.0,0.0,0.0,0.0,0.0,0.0,0.0,0.0,0.0,0.0,0.0,0.0,0.0,0.0,0.0,0.0,0.0,0.0,0.0,0.0,0.0,0.0,0.0,0.0,0.0,0.0,0.0,0.0,0.0,0.0,0.0,0.0,0.0,0.0,0.0,0.0,0.0,0.0,0.0,0.0,0.0,0.0,0.0,0.0,0.0,0.0,0.0,0.0,0.0,0.0,0.0,0.0,0.0,0.0,0.0,0.0,0.0,0.0,0.0,0.0,0.0,0.0,0.0,0.0,0.0,0.0,0.0,0.0,0.0,0.0,0.0,0.0,0.0,0.0,0.0,0.0,0.0,0.0,0.0,0.0,0.0,0.0,0.0,0.0,0.0,0.0,0.0,0.0,0.0,0.0,0.0,0.0,0.0,0.0,0.0,0.0,-1.7363,-1.7647,-1.9138,-2.0436,-2.168,-2.276,-2.3568,-2.3751,-2.3235,-2.3803,0.0,0.0,0.0,0.0,0.0,0.0,0.0,0.0,0.0,0.0,0.0,0.0,0.0,0.0,0.0,0.0,0.0,0.0,0.0,0.0,0.0,0.0,0.0,0.0,0.0,0.0,0.0,0.0,0.0,0.0,0.0,0.0,0.0,0.0,0.0,0.0,0.0,0.0,0.0,0.0,0.0,0.0,0.0,0.0,0.0,0.0,0.0,0.0,0.0,0.0,0.0,0.0,0.0,0.0,0.0,0.0,0.0,0.0,0.0,0.0,0.0,0.0,0.0,0.0,0.0,0.0,0.0,0.0,0.0,0.0,0.0,0.0,0.0,0.0,0.0,0.0,0.0,0.0,0.0,0.0,0.0,0.0,0.0,0.0,0.0,0.0,0.0,0.0,0.0,0.0,0.0,0.0,0.0,0.0,0.0,0.0,0.0,0.0,0.0,0.0,0.0,0.0,-1.8775,-1.9234,-2.0566,-2.1666,-2.2675,-2.3591,-2.4202,-2.4193,-2.3384,-2.3823,0.0,0.0,0.0,0.0,0.0,0.0,0.0,0.0,0.0,0.0,0.0,0.0,0.0,0.0,0.0,0.0,0.0,0.0,0.0,0.0,0.0,0.0,0.0,0.0,0.0,0.0,0.0,0.0,0.0,0.0,0.0,0.0,0.0,0.0,0.0,0.0,0.0,0.0,0.0,0.0,0.0,0.0,0.0,0.0,0.0,0.0,0.0,0.0,0.0,0.0,0.0,0.0,0.0,0.0,0.0,0.0,0.0,0.0,0.0,0.0,0.0,0.0,0.0,0.0,0.0,0.0,0.0,0.0,0.0,0.0,0.0,0.0,0.0,0.0,0.0,0.0,0.0,0.0,0.0,0.0,0.0,0.0,0.0,0.0,0.0,0.0,0.0,0.0,0.0,0.0,0.0,0.0,0.0,0.0,0.0,0.0,0.0,0.0,0.0,0.0,0.0,0.0,-1.9422,-2.0162,-2.0544,-2.2198,-2.3218,-2.2877,-2.3867,-2.4099,-2.317,-2.3502,0.0,0.0,0.0,0.0,0.0,0.0,0.0,0.0,0.0,0.0,0.0,0.0,0.0,0.0,0.0,0.0,0.0,0.0,0.0,0.0,0.0,0.0,0.0,0.0,0.0,0.0,0.0,0.0,0.0,0.0,0.0,0.0,0.0,0.0,0.0,0.0,0.0,0.0,0.0,0.0,0.0,0.0,0.0,0.0,0.0,0.0,0.0,0.0,0.0,0.0,0.0,0.0,0.0,0.0,0.0,0.0,0.0,0.0,0.0,0.0,0.0,0.0,0.0,0.0,0.0,0.0,0.0,0.0,0.0,0.0,0.0,0.0,0.0,0.0,0.0,0.0,0.0,0.0,0.0,0.0,0.0,0.0,0.0,0.0,0.0,0.0,0.0,0.0,0.0,0.0,0.0,0.0,0.0,0.0,0.0,0.0,0.0,0.0,0.0,0.0,0.0,0.0,-2.015,-2.0732,-2.2168,-2.297,-2.3651,-2.4169,-2.4333,-2.4059,-2.3408,0.0,0.0,0.0,0.0,0.0,0.0,0.0,0.0,0.0,0.0,0.0,0.0,0.0,0.0,0.0,0.0,0.0,0.0,0.0,0.0,0.0,0.0,0.0,0.0,0.0,0.0,0.0,0.0,0.0,0.0,0.0,0.0,0.0,0.0,0.0,0.0,0.0,0.0,0.0,0.0,0.0,0.0,0.0,0.0,0.0,0.0,0.0,0.0,0.0,0.0,0.0,0.0,0.0,0.0,0.0,0.0,0.0,0.0,0.0,0.0,0.0,0.0,0.0,0.0,0.0,0.0,0.0,0.0,0.0,0.0,0.0,0.0,0.0,0.0,0.0,0.0,0.0,0.0,0.0,0.0,0.0,0.0,0.0,0.0,0.0,0.0,0.0,0.0,0.0,0.0,0.0,0.0,0.0,0.0,0.0,0.0,0.0,0.0,0.0,0.0,0.0,0.0,-2.0934,-2.0937,-2.1487,-2.32,-2.3574,-2.3974,-2.4756,-2.4277,-2.3732,-2.3352,0.0,0.0,0.0,0.0,0.0,0.0,0.0,0.0,0.0,0.0,0.0,0.0,0.0,0.0,0.0,0.0,0.0,0.0,0.0,0.0,0.0,0.0,0.0,0.0,0.0,0.0,0.0,0.0,0.0,0.0,0.0,0.0,0.0,0.0,0.0,0.0,0.0,0.0,0.0,0.0,0.0,0.0,0.0,0.0,0.0,0.0,0.0,0.0,0.0,0.0,0.0,0.0,0.0,0.0,0.0,0.0,0.0,0.0,0.0,0.0,0.0,0.0,0.0,0.0,0.0,0.0,0.0,0.0,0.0,0.0,0.0,0.0,0.0,0.0,0.0,0.0,0.0,0.0,0.0,0.0,0.0,0.0,0.0,0.0,0.0,0.0,0.0,0.0,0.0,0.0,0.0,0.0,0.0,0.0,0.0,0.0,0.0,0.0,0.0,0.0,0.0,0.0,-2.1259,-2.1747,-2.2378,-2.3383,-2.3852,-2.4131,-2.4275,-2.357,-2.3036,0.0,0.0,0.0,0.0,0.0,0.0,0.0,0.0,0.0,0.0,0.0,0.0,0.0,0.0,0.0,0.0,0.0,0.0,0.0,0.0,0.0,0.0,0.0,0.0,0.0,0.0,0.0,0.0,0.0,0.0,0.0,0.0,0.0,0.0,0.0,0.0,0.0,0.0,0.0,0.0,0.0,0.0,0.0,0.0,0.0,0.0,0.0,0.0,0.0,0.0,0.0,0.0,0.0,0.0,0.0,0.0,0.0,0.0,0.0,0.0,0.0,0.0,0.0,0.0,0.0,0.0,0.0,0.0,0.0,0.0,0.0,0.0,0.0,0.0,0.0,0.0,0.0,0.0,0.0,0.0,0.0,0.0,0.0,0.0,0.0,0.0,0.0,0.0,0.0,0.0,0.0,0.0,0.0,0.0,0.0,0.0,0.0,0.0,0.0,0.0,0.0,0.0,0.0,-2.1176,-2.1631,-2.2218,-2.3252,-2.3681,-2.4018,-2.429,-2.3768,-2.3229,-2.2931,0.0,0.0,0.0,0.0,0.0,0.0,0.0,0.0,0.0,0.0,0.0,0.0,0.0,0.0,0.0,0.0,0.0,0.0,0.0,0.0,0.0,0.0,0.0,0.0,0.0,0.0,0.0,0.0,0.0,0.0,0.0,0.0,0.0,0.0,0.0,0.0,0.0,0.0,0.0,0.0,0.0,0.0,0.0,0.0,0.0,0.0,0.0,0.0,0.0,0.0,0.0,0.0,0.0,0.0,0.0,0.0,0.0,0.0,0.0,0.0,0.0,0.0,0.0,0.0,0.0,0.0,0.0,0.0,0.0,0.0,0.0,0.0,0.0,0.0,0.0,0.0,0.0,0.0,0.0,0.0,0.0,0.0,0.0,0.0,0.0,0.0,0.0,0.0,0.0,0.0,0.0,0.0,0.0,0.0,0.0,0.0,0.0,0.0,0.0,0.0,0.0,0.0,-2.1139,-2.1523,-2.2043,-2.2881,-2.3139,-2.3434,-2.3718,-2.3292,-2.2904,-2.2675,0.0,0.0,0.0,0.0,0.0,0.0,0.0,0.0,0.0,0.0,0.0,0.0,0.0,0.0,0.0,0.0,0.0,0.0,0.0,0.0,0.0,0.0,0.0,0.0,0.0,0.0,0.0,0.0,0.0,0.0,0.0,0.0,0.0,0.0,0.0,0.0,0.0,0.0,0.0,0.0,0.0,0.0,0.0,0.0,0.0,0.0,0.0,0.0,0.0,0.0,0.0,0.0,0.0,0.0,0.0,0.0,0.0,0.0,0.0,0.0,0.0,0.0,0.0,0.0,0.0,0.0,0.0,0.0,0.0,0.0,0.0,0.0,0.0,0.0,0.0,0.0,0.0,0.0,0.0,0.0,0.0,0.0,0.0,0.0,0.0,0.0,0.0,0.0,0.0,0.0,0.0,0.0,0.0,0.0,0.0,0.0,0.0,0.0,0.0,0.0,0.0,0.0,-2.118,-2.1444,-2.1835,-2.2427,-2.2499,-2.2621,-2.2857,-2.2519,-2.2282,-2.2282,0.0,0.0,0.0,0.0,0.0,0.0,0.0,0.0,0.0,0.0,0.0,0.0,0.0,0.0,0.0,0.0,0.0,0.0,0.0,0.0,0.0,0.0,0.0,0.0,0.0,0.0,0.0,0.0,0.0,0.0,0.0,0.0,0.0,0.0,0.0,0.0,0.0,0.0,0.0,0.0,0.0,0.0,0.0,0.0,0.0,0.0,0.0,0.0,0.0,0.0,0.0,0.0,0.0,0.0,0.0,0.0,0.0,0.0,0.0,0.0,-1.9925,0.0,0.0,0.0,0.0,0.0,0.0,0.0,0.0,0.0,0.0,0.0,0.0,0.0,0.0,0.0,0.0,0.0,0.0,0.0,0.0,0.0,0.0,0.0,0.0,0.0,0.0,0.0,0.0,0.0,0.0,0.0,0.0,0.0,0.0,0.0,0.0,0.0,0.0,0.0,0.0,0.0,-2.1283,-2.1688,-2.2005,-2.2308,-2.2618,-2.2857,-2.2904,-2.2519,-2.2282,-2.2282,-2.1752,0.0,0.0,0.0,0.0,0.0,0.0,0.0,0.0,0.0,0.0,0.0,0.0,0.0,0.0,0.0,0.0,0.0,0.0,0.0,0.0,0.0,0.0,0.0,0.0,0.0,0.0,0.0,0.0,0.0,0.0,0.0,0.0,0.0,0.0,0.0,0.0,0.0,0.0,0.0,0.0,0.0,0.0,0.0,0.0,0.0,0.0,0.0,0.0,0.0,0.0,0.0,0.0,0.0,0.0,0.0,0.0,0.0,0.0,0.0,0.0,-2.0943,0.0,0.0,0.0,0.0,0.0,0.0,0.0,0.0,0.0,0.0,0.0,0.0,0.0,0.0,0.0,0.0,0.0,0.0,0.0,0.0,0.0,0.0,0.0,0.0,0.0,0.0,0.0,0.0,0.0,0.0,0.0,0.0,0.0,0.0,0.0,0.0,0.0,0.0,0.0,0.0,-2.1517,-2.1924,-2.2224,-2.2359,-2.2554,-2.2639,-2.2639,-2.248,-2.2314,-2.2224,-2.1826,0.0,0.0,0.0,0.0,0.0,0.0,0.0,0.0,0.0,0.0,0.0,0.0,0.0,0.0,0.0,0.0,0.0,0.0,0.0,0.0,0.0,0.0,0.0,0.0,0.0,0.0,0.0,0.0,0.0,0.0,0.0,0.0,0.0,0.0,0.0,0.0,0.0,0.0,0.0,0.0,0.0,0.0,0.0,0.0,0.0,0.0,0.0,0.0,0.0,0.0,0.0,0.0,0.0,-1.9672,-1.9911,-2.0641,-2.0581,-2.1131,-2.2212,-2.2207,-2.2319,-2.2516,-2.2329,0.0,0.0,0.0,0.0,0.0,0.0,0.0,0.0,0.0,0.0,0.0,0.0,0.0,0.0,0.0,0.0,0.0,0.0,0.0,0.0,0.0,0.0,0.0,0.0,-2.3317,-2.3075,-2.1744,0.0,0.0,0.0,0.0,0.0,0.0,0.0,0.0,0.0,0.0,0.0,-2.183,-2.2176,-2.2397,-2.2397,-2.2397,-2.2397,-2.2397,-2.2397,-2.2309,-2.2141,-2.1976,-2.1811,0.0,0.0,0.0,0.0,0.0,0.0,0.0,0.0,0.0,0.0,0.0,0.0,0.0,0.0,0.0,0.0,0.0,0.0,0.0,0.0,0.0,0.0,0.0,0.0,0.0,0.0,0.0,0.0,0.0,0.0,0.0,0.0,-1.5424,-1.5625,0.0,0.0,0.0,0.0,0.0,0.0,0.0,0.0,0.0,0.0,0.0,0.0,0.0,-1.907,-1.9597,-2.0241,-2.0634,-2.0837,-2.0612,-2.1194,-2.2425,-2.1991,-2.2527,-2.39,-2.4179,0.0,-2.2968,-2.3372,0.0,0.0,0.0,0.0,0.0,0.0,0.0,0.0,0.0,0.0,0.0,0.0,0.0,0.0,0.0,0.0,0.0,0.0,0.0,0.0,0.0,0.0,-2.4287,-2.3748,-2.3626,-2.3597,0.0,-2.2778,-2.2309,-2.2335,-2.1978,0.0,0.0,0.0,0.0,0.0,0.0,0.0,-2.2264,-2.2353,-2.2397,-2.2397,-2.2397,-2.2397,-2.2397,-2.2397,-2.2397,-2.2353,-2.2236,-2.2212,-2.2293,-2.1801,0.0,0.0,0.0,0.0,0.0,0.0,0.0,0.0,0.0,0.0,0.0,0.0,0.0,0.0,0.0,0.0,0.0,0.0,0.0,0.0,0.0,0.0,0.0,0.0,0.0,0.0,0.0,0.0,0.0,-1.5316,-1.5625,-1.5591,-1.5651,-1.5551,0.0,0.0,0.0,0.0,0.0,0.0,0.0,0.0,0.0,-1.9079,-1.9922,-2.061,-2.1048,-2.1503,-2.1727,-2.161,-2.1716,-2.2174,-2.2892,-2.2994,-2.3635,-2.4556,-2.4821,-2.4806,-2.4518,-2.4344,-2.3802,-2.3059,0.0,0.0,0.0,0.0,-2.2579,-2.2977,-2.3542,-2.3975,-2.4371,-2.4459,0.0,0.0,0.0,0.0,0.0,0.0,0.0,0.0,0.0,0.0,-2.4888,-2.4861,-2.4823,-2.4823,-2.4823,-2.4344,-2.3671,0.0,-2.2785,-2.2582,-2.1814,0.0,0.0,0.0,0.0,-2.2397,-2.2618,-2.2706,-2.2794,-2.2794,-2.2794,-2.2794,-2.2794,-2.2794,-2.275,-2.2618,-2.2674,-2.2689,-2.2618,-2.2472,-2.2494,0.0,0.0,0.0,0.0,0.0,0.0,0.0,0.0,0.0,0.0,0.0,0.0,0.0,0.0,0.0,0.0,0.0,0.0,0.0,0.0,0.0,0.0,0.0,0.0,0.0,0.0,0.0,0.0,-1.5705,-1.6059,-1.5765,-1.6253,-1.6308,0.0,0.0,0.0,0.0,0.0,0.0,-1.865,-1.9255,-1.9782,-2.0152,-2.1179,-2.1892,-2.2236,-2.2558,-2.2513,-2.2116,-2.2513,-2.2796,-2.3014,-2.3632,-2.4256,-2.4821,-2.5017,-2.5348,-2.5626,-2.5058,-2.458,-2.4176,-2.3637,-2.3166,-2.2775,-2.321,-2.3584,-2.4024,-2.4856,-2.5305,-2.5468,-2.5435,-2.5101,-2.4593,-2.3662,0.0,0.0,0.0,0.0,-2.4435,-2.4744,-2.5004,-2.5322,-2.5615,-2.5693,-2.5693,-2.5693,-2.5478,-2.4878,0.0,-2.3547,-2.3368,-2.2303,0.0,0.0,0.0,0.0,-2.2803,-2.2882,-2.3013,-2.3091,-2.3091,-2.3091,-2.3091,-2.3091,-2.3091,-2.3057,-2.2882,-2.3013,-2.3013,-2.2794,-2.2925,-2.3013,-2.2916,0.0,0.0,0.0,0.0,0.0,0.0,0.0,0.0,0.0,0.0,0.0,0.0,0.0,0.0,0.0,0.0,0.0,0.0,0.0,0.0,0.0,0.0,0.0,0.0,0.0,0.0,0.0,0.0,0.0,-1.6673,-1.7161,0.0,0.0,0.0,0.0,-1.7222,-1.868,-1.9636,-1.9691,-2.0325,-2.0903,-2.1505,-2.1899,-2.2252,-2.2595,-2.2837,-2.2675,-2.2116,-2.2675,-2.3014,-2.3014,-2.3632,-2.4256,-2.4821,-2.4821,-2.5145,-2.5707,-2.5523,-2.5376,-2.5307,-2.5289,-2.4794,-2.4183,-2.5061,-2.5421,-2.5493,-2.5624,-2.576,-2.5848,-2.5569,-2.5235,-2.4827,-2.4392,-2.4295,0.0,0.0,-2.451,-2.5039,-2.5059,-2.5381,-2.5664,-2.5684,-2.5693,-2.5693,-2.5693,-2.5674,-2.5518,0.0,-2.4365,-2.3673,-2.3345,0.0,-2.2803,-2.2759,-2.2803,-2.2882,-2.3057,-2.3091,-2.3091,-2.3091,-2.3091,-2.3091,-2.3091,-2.3091,-2.3091,-2.3101,-2.3091,-2.3013,-2.2794,-2.2794,-2.2706,-2.2441,-2.2323,0.0,0.0,0.0,0.0,0.0,0.0,0.0,0.0,0.0,0.0,0.0,0.0,0.0,0.0,0.0,0.0,0.0,0.0,0.0,0.0,0.0,0.0,0.0,0.0,0.0,0.0,0.0,0.0,-1.7503,-1.7923,0.0,-1.7448,-1.8325,-1.8809,-1.8635,-2.0052,-2.0943,-2.0996,-2.1574,-2.2023,-2.227,-2.2551,-2.2718,-2.2853,-2.2958,-2.2901,-2.2675,-2.3296,-2.3576,-2.3576,-2.42,-2.4599,-2.4821,-2.4821,-2.5145,-2.5652,-2.5379,-2.5459,-2.58,-2.58,-2.547,-2.5001,-2.5507,-2.5877,-2.6144,-2.6355,-2.6454,-2.6332,-2.5415,-2.4728,-2.4169,-2.3767,-2.3862,-2.4042,-2.3994,-2.443,-2.4947,-2.4947,-2.5071,-2.5186,-2.5186,-2.5186,-2.5235,-2.5391,-2.5294,-2.5187,-2.5228,-2.4644,-2.3933,-2.3156,-2.2978,-2.2969,-2.2803,-2.2925,-2.3013,-2.3101,-2.3091,-2.3091,-2.3091,-2.3389,-2.3447,-2.312,-2.3398,-2.3437,-2.311,-2.3091,-2.3057,-2.3013,-2.2882,-2.2759,-2.2662,-2.2431,-2.2387,0.0,0.0,0.0,0.0,0.0,0.0,0.0,0.0,0.0,0.0,0.0,0.0,0.0,0.0,0.0,0.0,0.0,0.0,0.0,0.0,0.0,0.0,0.0,0.0,0.0,0.0,-1.7776,-1.7822,-1.8504,-1.8691,-1.8083,-1.9207,-1.995,-1.9729,-2.1082,-2.1936,-2.1995,-2.2456,-2.274,-2.274,-2.2909,-2.3014,-2.3014,-2.2901,-2.2788,-2.2675,-2.3416,-2.3697,-2.3632,-2.4423,-2.4821,-2.4821,-2.4821,-2.5012,-2.5375,-2.5188,-2.5433,-2.5852,-2.5958,-2.5773,-2.5451,-2.599,-2.6197,-2.6259,-2.6558,-2.6667,-2.6497,-2.5427,-2.4728,-2.421,-2.3819,-2.3971,-2.4234,-2.4234,-2.4577,-2.4883,-2.4883,-2.4883,-2.4883,-2.4883,-2.4883,-2.4981,-2.5235,-2.5137,-2.5089,-2.5199,-2.4724,-2.4055,-2.3313,-2.3279,-2.3271,-2.3148,-2.3227,-2.3359,-2.3359,-2.3188,-2.3091,-2.3091,-2.3398,-2.3457,-2.312,-2.332,-2.3359,-2.311,-2.3057,-2.2969,-2.2872,-2.275,-2.2574,-2.2441,-2.2397,-2.2265,-2.1991,0.0,0.0,0.0,0.0,0.0,0.0,0.0,0.0,0.0,0.0,0.0,0.0,0.0,0.0,0.0,0.0,0.0,0.0,0.0,0.0,0.0,0.0,0.0,-1.6754,-1.7463,-1.7916,-1.7682,-1.8918,-1.9345,-1.8155,-1.9961,-2.0923,-2.0371,-2.1748,-2.257,-2.2578,-2.2853,-2.3014,-2.3014,-2.3014,-2.3014,-2.3014,-2.274,-2.2456,-2.2173,-2.3078,-2.336,-2.307,-2.4256,-2.4821,-2.4821,-2.4821,-2.4772,-2.4715,-2.5064,-2.5367,-2.562,-2.5914,-2.5738,-2.5534,-2.6593,-2.6495,-2.588,-2.6244,-2.6374,-2.6247,-2.5568,-2.5256,-2.4991,-2.4601,-2.4686,-2.4883,-2.4883,-2.4883,-2.4883,-2.4883,-2.4883,-2.4883,-2.4883,-2.4873,-2.4913,-2.5216,-2.5265,-2.5189,-2.5099,-2.4483,-2.4007,-2.3988,-2.389,-2.3809,-2.3809,-2.3809,0.0,-2.3789,-2.3418,-2.311,-2.3101,-2.311,-2.311,-2.3101,-2.2935,-2.2901,-2.3101,-2.2925,-2.2706,-2.2441,-2.2397,-2.2176,-2.1687,-2.2132,-2.201,-2.1216,0.0,0.0,0.0,0.0,0.0,0.0,0.0,0.0,0.0,0.0,0.0,0.0,0.0,0.0,0.0,0.0,0.0,0.0,0.0,0.0,0.0,0.0,-1.7255,-1.7909,-1.839,-1.8804,-1.9152,-1.9366,-1.9439,-1.9332,-2.0442,-2.0953,-2.033,-2.1941,-2.2683,-2.2279,-2.2732,-2.3014,-2.3014,-2.3014,-2.3014,-2.3014,-2.274,-2.2853,-2.3408,-2.3472,-2.3753,-2.4312,-2.4654,-2.4821,-2.4821,-2.4821,-2.4772,-2.4689,-2.4731,-2.4915,-2.5214,-2.5847,-2.599,-2.5911,-2.6498,-2.6553,-2.6295,-2.586,-2.5694,-2.5522,-2.4762,-2.4509,-2.4439,-2.4328,-2.435,-2.4399,-2.4399,-2.4399,-2.4399,-2.4399,-2.4399,-2.4399,-2.4399,-2.4119,-2.3955,-2.4245,-2.4149,-2.4111,-2.444,-2.4364,-2.4231,-2.4287,-2.427,-2.4248,-2.4248,-2.4248,0.0,-2.3828,-2.3682,-2.3407,-2.292,-2.3152,-2.321,-2.2911,-2.3117,-2.321,-2.311,-2.3047,-2.2925,-2.2706,-2.2485,-2.2176,-2.1687,-2.2008,-2.2161,0.0,0.0,0.0,0.0,0.0,0.0,0.0,0.0,0.0,0.0,0.0,0.0,0.0,0.0,0.0,0.0,0.0,0.0,0.0,0.0,0.0,0.0,-1.7318,-1.7829,-1.8731,-1.8898,-1.9098,-1.9566,-1.9579,-1.9566,-1.9613,-2.0662,-2.1206,-2.0691,-2.2135,-2.2837,-2.2494,-2.2837,-2.2994,-2.3022,-2.3014,-2.2965,-2.2845,-2.2513,-2.274,-2.3352,-2.3304,-2.3697,-2.4423,-2.471,-2.4821,-2.4821,-2.4821,-2.4653,-2.4527,-2.4628,-2.4743,0.0,0.0,0.0,0.0,0.0,-2.6178,-2.6287,-2.5644,-2.5424,-2.5313,-2.467,-2.4468,-2.4431,-2.4257,-2.4202,-2.4202,-2.4202,-2.4202,-2.4202,-2.4202,-2.4202,-2.4202,-2.4202,-2.3969,-2.3843,-2.4087,-2.3908,-2.3834,-2.4447,-2.4535,0.0,-2.4744,-2.4721,-2.4687,-2.4687,-2.4687,-2.46,-2.4355,-2.4014,-2.3656,-2.327,-2.3245,-2.3264,-2.3206,-2.3165,0.0,0.0,0.0,-2.2882,-2.2618,-2.2397,0.0,0.0,0.0,-2.2141,-2.2264,-2.253,0.0,0.0,-2.2775,-2.28,0.0,0.0,0.0,0.0,0.0,0.0,0.0,0.0,0.0,0.0,0.0,0.0,0.0,0.0,0.0,0.0,-1.8023,-1.837,-1.9245,-1.9138,-1.9072,-1.9339,-1.9593,-1.9646,-1.9392,-2.0718,-2.1401,-2.1138,-2.2233,-2.2945,-2.2848,0.0,0.0,0.0,0.0,-2.2909,-2.2626,-2.2286,-2.2343,-2.274,-2.2901,-2.3352,-2.4033,-2.4543,-2.4821,-2.4821,-2.4821,-2.4598,-2.421,-2.4603,-2.4789,-2.4849,-2.529,-2.5492,-2.5479,-2.5442,-2.5644,-2.5892,-2.5488,0.0,0.0,-2.484,-2.4711,-2.4689,-2.4321,-2.4202,-2.4202,-2.4202,-2.4202,-2.4202,-2.4202,-2.4165,-2.4137,-2.4137,-2.4064,-2.4058,-2.4291,-2.4022,-2.3988,-2.4634,-2.4736,-2.4823,-2.5217,-2.5208,-2.5194,-2.5194,-2.5194,-2.5174,-2.5125,-2.4404,-2.3916,-2.3822,0.0,0.0,-2.3783,-2.3293,-2.3171,-2.3769,-2.3167,-2.2706,-2.2441,-2.223,-2.2008,-2.1741,-2.1963,-2.2097,-2.2097,-2.2309,-2.253,-2.2803,-2.2969,-2.3091,0.0,0.0,0.0,0.0,0.0,0.0,0.0,0.0,0.0,0.0,0.0,0.0,0.0,0.0,0.0,-1.7566,-1.8097,-1.8624,-1.9336,-1.9319,-1.9305,-1.9417,-1.9477,-1.9491,-1.943,-2.055,-2.103,-2.0491,-2.1823,-2.2447,-2.2002,-2.2386,-2.2697,-2.2691,-2.2909,-2.2958,-2.2901,-2.24,-2.2619,-2.3641,0.0,0.0,-2.4654,-2.4765,-2.4821,-2.4821,-2.4821,-2.4598,-2.421,-2.4603,-2.5101,-2.5491,-2.5505,-2.5655,-2.5865,-2.5543,-2.547,-2.5479,-2.5032,-2.4895,-2.4831,-2.4459,-2.4321,-2.4312,-2.4229,-2.4202,0.0,-2.4202,-2.4202,-2.4202,-2.4202,-2.3904,-2.3657,-2.3657,-2.3153,-2.2777,-2.3107,-2.3173,-2.3284,-2.397,-2.4493,-2.4935,-2.5274,-2.547,-2.5557,-2.5557,-2.5557,-2.5478,-2.5165,-2.4969,-2.4641,-2.4115,-2.3953,-2.3934,-2.4021,-2.3907,-2.3835,-2.3809,-2.3167,-2.2803,-2.2706,-2.2318,-2.2097,-2.2008,-2.2052,-2.2097,-2.2097,-2.2309,-2.253,-2.2803,-2.2838,-2.2925,0.0,0.0,0.0,0.0,0.0,0.0,0.0,0.0,0.0,0.0,0.0,-1.7636,0.0,0.0,-1.796,-1.8611,-1.8725,-1.8858,-1.9305,-1.9424,-1.9424,-1.9424,-1.9424,-1.9426,-1.9573,-2.0406,-2.0972,-2.1016,-2.2,-2.249,-2.2176,-2.2627,-2.2698,-2.2358,-2.2788,-2.2845,-2.2562,-2.2222,-2.2505,-2.3247,-2.307,-2.3464,-2.4368,-2.4654,-2.4821,-2.4821,-2.4821,-2.4598,-2.4176,-2.4239,-2.4735,-2.5415,-2.5316,-2.5594,-2.5993,-2.5791,-2.547,-2.5051,-2.4849,-2.4647,-2.4486,-2.4275,-2.4202,-2.4202,-2.4202,-2.4202,-2.4202,-2.4202,-2.4202,-2.4202,-2.4202,-2.4055,-2.3794,-2.3544,-2.3382,-2.3244,-2.3197,-2.3197,-2.3373,-2.3922,-2.424,-2.4549,-2.5001,-2.5333,-2.5538,-2.5684,-2.5693,-2.5606,-2.543,-2.5205,-2.498,-2.4635,-2.4365,-2.4326,-2.4586,-2.4411,-2.4013,-2.3461,-2.313,-2.2838,-2.2618,-2.2353,-2.2132,-2.1919,-2.1919,-2.1963,-2.2097,-2.2185,-2.2353,-2.2618,-2.2618,-2.2794,0.0,0.0,0.0,0.0,0.0,0.0,0.0,0.0,-1.7993,-1.7962,-1.8205,-1.8611,-1.9131,-1.8833,-1.8763,-1.9507,-1.9201,-1.9025,-1.9325,-1.9424,-1.945,-1.9446,-1.9511,-1.9546,-1.978,-2.0429,-2.1008,-2.1507,-2.213,-2.2491,-2.255,-2.2885,-2.2782,-2.2116,-2.272,-2.2802,-2.2116,-2.2116,-2.2286,-2.257,-2.2845,-2.3296,-2.3921,-2.4535,-2.4778,-2.4701,-2.4624,-2.4496,-2.4253,-2.3853,-2.4263,-2.5186,-2.5154,-2.5379,-2.5786,-2.5848,-2.5387,-2.4656,-2.4656,-2.4486,-2.4202,-2.4202,-2.4202,-2.4202,-2.4202,-2.4202,-2.4202,-2.4202,-2.4202,-2.4202,-2.4202,-2.4137,-2.395,-2.3572,-2.373,-2.3849,-2.3544,-2.3499,-2.3618,-2.4128,-2.4082,-2.4205,-2.4728,-2.5039,-2.5333,-2.5635,-2.5693,-2.5693,-2.5693,-2.542,-2.5195,-2.5195,-2.4883,-2.4775,-2.5086,-2.4668,-2.4092,-2.3276,-2.314,-2.2916,-2.2485,-2.2441,-2.222,-2.1785,-2.1741,-2.183,-2.2008,-2.2008,-2.2141,-2.2353,-2.2397,-2.2618,-2.0227,-1.9573,-1.8985,-1.9054,-1.8714,-1.8622,0.0,0.0,-2.0396,-1.9693,-1.9929,-2.0008,-1.9138,-1.8904,-1.8885,-1.8978,-1.8925,-1.9025,-1.9325,-1.9424,-1.9466,-1.972,-1.9753,-1.9766,-1.98,-2.0631,-2.1051,-2.0938,-2.1697,-2.2187,-2.2258,-2.2811,-2.2815,-2.2109,-2.2964,-2.2988,-2.2116,-2.2116,-2.2286,-2.257,-2.2845,-2.3296,-2.3921,-2.4535,-2.4633,-2.4227,-2.3939,-2.4162,-2.4701,-2.3965,-2.4263,-2.5186,-2.5154,-2.5058,-2.5052,-2.5384,-2.4973,-2.4275,-2.4275,-2.4248,-2.4202,-2.4202,-2.4202,-2.4202,-2.4202,-2.4202,-2.4202,-2.4202,-2.4202,-2.4202,-2.4202,-2.3877,-2.3553,-2.3508,-2.3261,-2.3123,-2.3425,-2.3499,-2.3618,-2.4128,-2.4313,-2.4482,-2.4529,-2.4784,-2.5137,-2.5635,-2.5693,-2.5693,-2.5693,-2.5645,-2.5615,-2.5615,-2.5567,-2.5449,-2.5145,-2.4668,-2.4219,-2.375,-2.3305,-2.3013,-2.2759,-2.253,-2.2309,-2.2052,-2.183,-2.1687,-2.1741,-2.1741,-2.1874,-2.2141,-2.2309,-2.2574,-2.0662,-1.9807,-1.9035,-1.9415,-1.9212,-1.9146,-1.9815,-2.0278,-2.0453,-2.0143,-2.0531,-2.0634,-1.985,-1.9689,-1.9651,0.0,-1.9293,-1.9225,-1.941,-1.9424,-1.9472,-1.9766,-1.9947,-2.012,-2.0294,-2.0651,-2.1074,-2.1544,-2.1892,-2.2215,-2.2394,-2.2863,-2.2744,-2.1884,-2.2736,-2.2797,-2.1896,-2.2002,-2.2116,-2.2067,-2.2683,-2.3127,-2.3408,-2.4368,-2.4607,-2.4159,-2.3845,-2.399,-2.4419,-2.3877,-2.4112,-2.4863,-2.497,-2.4841,-2.4621,-2.5176,-2.49,-2.4202,-2.4202,-2.4202,-2.4202,-2.4202,-2.4202,-2.4202,-2.4202,-2.4202,-2.4202,-2.4202,-2.4202,-2.4202,-2.4202,-2.4073,-2.384,-2.3544,-2.3602,-2.3629,-2.3508,-2.373,-2.395,-2.4165,-2.4251,-2.4341,-2.448,-2.4578,-2.4784,-2.5186,-2.5391,-2.5538,-2.5684,-2.5693,-2.5693,-2.5693,-2.5508,-2.5166,-2.4727,-2.4297,-2.3867,-2.3437,-2.3198,-2.3013,-2.2794,-2.253,-2.2309,-2.2097,-2.183,-2.1696,-2.1696,-2.1696,-2.1785,-2.1874,-2.1954,-2.222,-2.0518,-1.985,-1.9289,-1.961,-1.9626,-1.9618,-1.9984,-2.0362,-2.0617,-2.0547,-2.0796,-2.0854,-2.04,-2.0162,-1.9989,-1.97,-1.954,-1.9424,-1.9424,-1.9424,-1.9472,-1.9766,-1.9987,-2.0261,-2.0641,-2.0748,-2.1161,-2.1909,-2.2062,-2.2263,-2.2708,-2.3083,-2.2794,-2.1854,-2.2632,-2.2543,-2.1554,-2.1831,-2.1831,-2.1554,-2.2404,-2.2862,-2.3006,-2.4038,-2.435,-2.405,-2.358,-2.3648,-2.4016,-2.354,-2.3835,-2.4619,-2.4719,-2.4623,-2.453,-2.503,-2.4808,-2.4202,-2.4202,-2.4202,-2.4202,-2.4202,-2.4202,-2.4202,-2.4202,-2.4202,-2.4202,-2.4202,-2.4202,-2.4202,-2.4202,-2.4202,-2.4128,-2.3776,-2.3932,-2.4119,-2.3776,-2.3941,-2.4202,-2.4202,-2.4202,-2.4251,-2.439,-2.444,-2.4489,-2.4735,-2.4837,-2.5062,-2.5518,-2.5635,-2.5635,-2.5566,-2.5264,-2.4893,-2.4453,-2.4033,-2.3603,-2.312,-2.3047,-2.2925,-2.2706,-2.2441,-2.222,-2.2008,-2.1785,-2.1696,-2.1696,-2.1696,-2.1696,-2.1696,-2.1785,-2.1998,-1.9393,-1.9453,-1.9717,-1.9571,-1.9828,-2.0276,-2.0608,-2.1166,-2.1574,-2.1246,-2.0945,-2.0651,-2.0328,-1.9822,-1.9424,-1.9424,-1.9424,-1.9424,-1.9424,-1.9424,-1.9472,-1.9766,-1.9806,-2.004,0.0,-2.0935,-2.1233,-2.1691,-2.1943,-2.2418,-2.3036,-2.341,-2.3182,-2.2191,-2.2796,-2.2479,-2.1218,-2.1554,-2.1554,-2.1203,-2.2044,-2.2617,-2.299,-2.3494,-2.3744,-2.3692,-2.2954,-2.3049,-2.3675,-2.2929,-2.3436,-2.4664,-2.4217,-2.4396,-2.4873,-2.4829,-2.4578,-2.4202,-2.4202,-2.4202,-2.4202,-2.4202,-2.4202,-2.4202,-2.4202,-2.4202,-2.4202,-2.4202,-2.4202,-2.4202,-2.4202,-2.4202,-2.4202,-2.4183,-2.4192,-2.4202,-2.4183,-2.4192,-2.4202,-2.4202,-2.4202,-2.4202,-2.4202,-2.4202,-2.4301,-2.448,-2.4203,-2.4284,-2.5187,-2.5538,-2.5566,-2.5184,-2.5125,-2.4893,-2.4453,-2.4033,-2.3603,-2.312,-2.2925,-2.2706,-2.2441,-2.223,-2.1963,-2.1741,-2.1696,-2.1696,-2.1696,-2.1696,-2.1696,-2.1696,-2.1963,-2.2185,-1.9736,-1.9546,-1.9336,-1.979,-1.9911,-2.0092,-2.0574,-2.0864,-2.0996,-2.0916,-2.0507,-1.9996,-1.9493,-1.922,-1.9003,-1.8841,-1.9112,-1.9424,-1.9424,-1.9533,-1.9619,-1.9526,-1.9853,0.0,0.0,0.0,0.0,-2.1575,-2.193,-2.2299,-2.2731,-2.2901,-2.2723,-2.2198,-2.2371,-2.2043,-2.1218,-2.1717,-2.1831,-2.1554,-2.2614,-2.3295,-2.3624,-2.4162,-2.4162,-2.3674,-2.3461,-2.334,-2.3332,-2.3451,-2.378,-2.4209,-2.4416,-2.4481,-2.4436,-2.4409,-2.4321,-2.4202,-2.4202,-2.4202,-2.4202,-2.4202,-2.4202,-2.4202,-2.4202,-2.4202,-2.4202,-2.4202,-2.4202,-2.4202,-2.4202,-2.4202,-2.4202,-2.4202,-2.4202,-2.4202,-2.4202,-2.4202,-2.4202,-2.4202,-2.4202,-2.4202,-2.4202,-2.4202,-2.4159,-2.4126,-2.4122,-2.4173,-2.4222,-2.4546,-2.4718,-2.4574,-2.4344,-2.4151,-2.4146,-2.35,-2.308,-2.2891,-2.2847,-2.2662,-2.2388,-2.223,-2.2052,-2.1963,-2.1776,-2.1696,-2.1696,-2.1696,-2.1696,-2.1696,-2.1776,-2.2043,-2.0036,-1.9824,-1.9541,-2.001,-2.0031,-2.0092,-2.0574,-2.0633,-2.0584,-2.0664,-2.0057,-1.9403,-1.8974,-1.87,-1.8543,-1.833,-1.8738,-1.9125,-1.9397,-1.9439,-1.9533,-1.9659,-1.9913,-2.0087,0.0,0.0,0.0,-2.143,-2.186,-2.2187,-2.2379,-2.2548,-2.2432,-2.2023,-2.198,-2.1707,-2.1211,-2.1603,-2.1714,-2.1651,-2.2564,-2.3167,-2.3533,-2.4052,-2.4056,-2.3699,-2.3674,-2.3528,-2.3349,-2.3591,-2.3866,-2.4118,-2.426,-2.4331,-2.4413,-2.4257,-2.4202,-2.4202,-2.4202,-2.4202,-2.4202,-2.4202,-2.4202,-2.4202,-2.4202,-2.4202,-2.4202,-2.4202,-2.4202,-2.4202,-2.4202,-2.4202,-2.4202,-2.4202,-2.4202,-2.4202,-2.4202,-2.4202,-2.4202,-2.4202,-2.4202,-2.4202,-2.4202,-2.4202,-2.4113,-2.3805,-2.3763,-2.3767,-2.371,-2.4051,-2.4278,-2.4278,-2.3937,-2.3765,-2.3988,-2.3275,-2.2803,-2.2803,-2.2706,-2.253,-2.2309,-2.2097,-2.1963,-2.1963,-2.1785,-2.1696,-2.1696,-2.1696,-2.1696,-2.1696,-2.1696,-2.1954,-2.031,-2.0257,-2.0223,-2.0187,-2.0151,-2.0269,-2.0586,-2.0435,-2.0249,-2.0611,-1.9714,-1.8835,0.0,0.0,-1.7955,-1.7969,-1.8297,-1.8718,-1.937,-1.9158,-1.9299,0.0,0.0,0.0,0.0,0.0,0.0,-2.1142,0.0,-2.2082,-2.2086,-2.2425,-2.2323,-2.1715,-2.1679,-2.1525,-2.1211,-2.1211,-2.1333,-2.1509,-2.1956,-2.2394,-2.2798,-2.3181,-2.3465,-2.3725,-2.3708,-2.3727,-2.3658,-2.3254,-2.3626,-2.4375,-2.3708,-2.3957,-2.4702,-2.4376,-2.422,-2.4202,-2.4202,-2.4202,-2.4202,-2.4202,-2.4202,-2.4202,-2.4202,-2.4202,-2.4202,-2.4202,-2.4202,-2.4202,-2.4202,-2.4202,-2.4202,-2.4202,-2.4202,-2.4202,-2.4202,-2.4202,-2.4202,-2.4202,-2.4202,-2.4202,-2.4202,-2.4183,-2.3987,-2.3553,-2.316,-2.3092,-2.3588,-2.3994,-2.4259,-2.4278,-2.389,-2.3719,-2.3951,-2.323,-2.2759,-2.2759,-2.253,-2.2309,-2.2097,-2.183,-2.1696,-2.1696,-2.1696,-2.1696,-2.1696,-2.1696,-2.1696,-2.1696,-2.1696,-2.1954,-2.0071,-1.9726,-1.9219,-1.9708,-1.9702,-1.9611,-1.9969,-1.9945,-1.9908,-1.9989,-1.9062,-1.8187,0.0,0.0,0.0,-1.7662,-1.8323,0.0,-1.9606,-1.9806,0.0,-2.0147,0.0,-2.0421,-2.0354,-2.0474,0.0,0.0,-2.1417,-2.1795,-2.1711,-2.2115,-2.2111,-2.1708,-2.1459,-2.1298,-2.1211,-2.1439,-2.1623,-2.1647,-2.2191,-2.2645,-2.2975,-2.3509,-2.385,-2.4039,-2.4093,-2.3768,-2.3246,-2.3358,-2.3417,-2.3454,-2.3967,-2.4088,-2.4085,-2.4496,-2.4468,-2.4202,-2.4202,-2.4202,-2.4202,-2.4202,-2.4202,-2.4202,-2.4202,-2.4202,-2.4202,-2.4202,-2.4202,-2.4202,-2.4202,-2.4202,-2.4202,-2.4202,-2.4202,-2.4202,-2.4202,-2.4202,-2.4202,-2.4202,-2.4202,-2.4202,-2.4202,-2.3895,-2.3618,-2.3508,-2.316,-2.2951,-2.3092,-2.3184,-2.336,-2.3655,-2.3323,-2.3233,-2.3467,-2.2753,-2.2274,-2.2274,-2.223,-2.2052,-2.183,-2.1741,-2.1696,-2.1696,-2.1696,-2.1696,-2.1696,-2.1696,-2.1696,-2.1696,-2.1696,-2.1954,-2.0365,-1.9828,-1.9113,-1.942,-1.9428,-1.9323,-1.9558,-1.9492,-1.9338,-1.9338,-1.8411,-1.7562,-1.7394,-1.7271,-1.7253,0.0,0.0,0.0,-1.97,-1.9826,-2.004,0.0,-2.0655,0.0,-2.0621,-2.0655,-2.0675,0.0,-2.1286,-2.1593,-2.1453,-2.1773,-2.1818,-2.1496,-2.1306,-2.1211,-2.1211,-2.1382,-2.1497,-2.1497,-2.1839,-2.223,-2.2619,-2.3239,-2.3686,-2.4103,0.0,-2.4153,-2.3597,-2.3591,-2.3548,-2.3503,-2.3872,-2.4011,-2.4094,-2.443,-2.4409,-2.4202,-2.4202,-2.4202,-2.4202,-2.4202,-2.4202,-2.4202,-2.4202,-2.4202,-2.4202,-2.4202,-2.4202,-2.4202,-2.4202,-2.4202,-2.4202,-2.4202,-2.4202,-2.4202,-2.4202,-2.4202,-2.4202,-2.4202,-2.4202,-2.4202,-2.4202,-2.396,-2.3813,-2.3813,-2.3425,-2.3233,-2.3455,-2.3279,-2.3325,-2.3767,-2.3251,-2.3007,-2.3289,-2.2581,-2.2097,-2.2097,-2.2097,-2.1963,-2.1687,-2.1696,-2.1696,-2.1696,-2.1696,-2.1696,-2.1696,-2.1696,-2.1696,-2.1696,-2.1696,-2.1909,-2.0872,-2.0262,-1.9441,-1.9324,-1.9294,-1.9199,-1.9162,-1.8928,-1.8701,-1.8613,-1.7788,-1.7085,-1.7043,-1.7059,-1.7112,-1.7192,0.0,-1.8738,-1.9619,-1.9593,-1.9873,-2.0929,-2.0862,-2.0828,-2.1082,-2.0848,-2.0675,-2.0675,-2.1204,-2.1411,-2.1145,-2.1486,-2.1547,-2.1218,-2.1211,-2.1211,-2.1211,-2.1211,-2.1211,-2.1211,-2.1211,-2.1489,-2.2116,-2.2619,-2.3239,-2.3913,-2.4428,-2.4412,-2.4136,-2.3776,-2.3738,-2.3861,-2.3583,-2.3752,-2.4125,-2.4281,-2.4249,-2.4152,-2.4202,-2.4202,-2.4202,-2.4202,-2.4202,-2.4202,-2.4202,-2.4202,-2.4202,-2.4202,-2.4202,-2.4202,-2.4202,-2.4202,-2.4202,-2.4202,-2.4202,-2.4202,-2.4202,-2.4202,-2.4202,-2.4202,-2.4202,-2.4202,-2.4202,-2.4202,-2.4202,-2.4202,-2.3849,-2.3749,-2.4156,-2.3794,-2.3684,-2.4082,-2.34,-2.298,-2.3159,-2.2499,-2.2052,-2.2052,-2.2052,-2.1919,-2.1696,-2.1696,-2.1696,-2.1696,-2.1696,-2.1696,-2.1696,-2.1696,-2.1696,-2.1696,-2.1696,-2.183,-2.0583,-2.0254,-1.9783,-1.9384,-1.9074,-1.8803,-1.8533,-1.843,0.0,-1.7691,-1.7323,-1.7022,-1.6762,-1.6573,-1.6636,-1.7119,-1.7695,-1.843,-1.9319,-1.9813,-2.0247,0.0,-2.0915,-2.1056,-2.1109,-2.0848,0.0,0.0,-2.0818,-2.0865,-2.0809,-2.1363,-2.1547,-2.1218,-2.1211,-2.1211,-2.1211,-2.1211,-2.1211,-2.1211,-2.1211,-2.1489,-2.2116,-2.2222,-2.2845,-2.3904,-2.3646,0.0,-2.3768,-2.3383,-2.3083,-2.2919,-2.3383,-2.3449,-2.3338,-2.4089,-2.4157,-2.3904,-2.4102,-2.4202,-2.4202,-2.4202,-2.4202,-2.4202,-2.4202,-2.4202,-2.4202,-2.4202,-2.4202,-2.4202,-2.4202,-2.4202,-2.4202,-2.4202,-2.4202,-2.4202,-2.4202,-2.4202,-2.4202,-2.4202,-2.4202,-2.4202,-2.4202,-2.4202,-2.4202,-2.4202,-2.4137,-2.4128,-2.4192,-2.3794,-2.3526,-2.359,-2.3187,-2.2767,-2.2511,-2.2052,-2.1785,-2.1785,-2.1785,-2.1741,-2.1696,-2.1696,-2.1696,-2.1696,-2.1696,-2.1696,-2.1696,-2.1696,-2.1696,-2.1696,-2.1696,-2.183,-2.1478,-2.0584,-1.9456,-1.9848,-1.963,-1.916,-1.8258,0.0,0.0,-1.7309,-1.6965,-1.6811,-1.6609,-1.6532,0.0,-1.6874,-1.7555,-1.8249,-1.9032,-1.9639,-2.0174,-2.0621,-2.0935,-2.1049,-2.0902,-2.0762,-2.0548,-2.0241,-2.0365,-2.0555,-2.0666,-2.1176,-2.1307,-2.0967,-2.1089,-2.1211,-2.1211,-2.1211,-2.1211,-2.1211,-2.1211,-2.1375,-2.166,-2.1759,-2.2263,-2.2942,-2.2569,-2.2485,-2.2539,-2.2686,-2.2545,-2.2356,-2.3254,-2.3488,-2.3328,-2.3776,-2.3877,-2.3833,-2.3827,-2.389,-2.4025,-2.3818,-2.3954,-2.4202,-2.4202,-2.4202,-2.4202,-2.4202,-2.4202,-2.4202,-2.4202,-2.4202,-2.4202,-2.4202,-2.4202,-2.4202,-2.4202,-2.4102,-2.4003,-2.4003,-2.3904,-2.3805,-2.3805,-2.3904,-2.3954,-2.3805,-2.4003,-2.4152,-2.4003,-2.3929,-2.3859,-2.3859,-2.327,-2.2821,-2.262,-2.2044,-2.1696,-2.1696,-2.1696,-2.1696,-2.1696,-2.1696,-2.1696,-2.1696,-2.1696,-2.1696,-2.1696,-2.1696,-2.1651,-2.1571,-2.1651,-2.1696,-2.2414,-2.1143,-1.9605,-2.0318,-2.0027,-1.9266,-1.8093,-1.818,0.0,-1.7112,-1.6789,-1.6683,-1.6683,-1.6649,-1.6639,0.0,-1.7315,-1.8009,-1.8595,-1.9352,-1.9993,0.0,-2.0835,0.0,-2.0702,-2.0561,0.0,-1.984,-2.0035,-2.0341,-2.0627,-2.0873,-2.091,-2.0608,-2.091,-2.1089,-2.1089,-2.1153,-2.1211,-2.1211,-2.1146,-2.1089,-2.1089,-2.1238,-2.1524,-2.1915,-2.1559,-2.1429,-2.1511,-2.184,-2.1831,-2.1703,-2.2756,-2.3142,-2.304,-2.3297,-2.351,-2.3662,-2.3453,-2.3551,-2.3764,-2.3503,-2.3705,-2.4102,-2.4102,-2.4102,-2.4102,-2.4102,-2.4053,-2.4053,-2.4102,-2.4053,-2.4053,-2.4053,-2.4053,-2.4053,-2.4053,-2.3854,-2.3696,-2.3696,-2.3546,-2.3397,-2.3397,-2.3546,-2.3646,-2.3506,-2.3854,-2.4053,-2.3904,-2.4053,-2.4202,-2.4202,-2.351,-2.2959,-2.2785,-2.2181,-2.1778,-2.1696,-2.1696,-2.1696,-2.1696,-2.1696,-2.1696,-2.1696,-2.1696,-2.1696,-2.1651,-2.1651,-2.1517,-2.1302,-2.1517,-2.1571,-2.2446,-2.1895,-2.1269,-2.068,-1.9446,-1.8346,-1.7896,0.0,-1.7321,-1.6969,-1.6936,-1.6979,-1.6979,-1.655,-1.6348,-1.6669,-1.7035,-1.7442,-1.7989,-1.9092,-1.992,-2.0234,0.0,0.0,-2.0681,-2.0194,-1.986,-1.9806,-1.9838,-1.9972,-2.0312,-2.0349,-2.0392,-2.0328,-2.0608,-2.078,-2.078,-2.1024,-2.1211,-2.1211,-2.0902,-2.078,-2.0716,-2.05,-2.0723,-2.1274,-2.0845,-2.1018,0.0,-2.0872,-2.0658,-2.071,-2.127,-2.1501,-2.163,-2.2645,-2.3049,-2.309,-2.3314,-2.3423,-2.345,-2.3406,-2.3596,-2.3854,-2.3854,-2.3854,-2.3854,-2.3854,-2.3646,-2.3555,-2.3746,-2.3646,-2.3447,-2.3447,-2.3447,-2.3447,-2.3447,-2.3447,-2.3447,-2.3447,-2.3397,-2.3397,-2.3397,-2.3397,-2.3497,-2.3746,-2.3805,-2.3904,-2.4152,-2.4202,-2.4202,-2.4202,-2.3758,-2.3142,-2.24,-2.2272,-2.2071,-2.1714,-2.1696,-2.1696,-2.1696,-2.1696,-2.1696,-2.1696,-2.1696,-2.1607,-2.1437,-2.1437,-2.1293,-2.1042,-2.1293,-2.1446,-2.3605,-2.3125,-2.2407,-2.2338,-2.1486,-2.0321,-1.8849,0.0,-1.8287,-1.7144,-1.6936,-1.6979,-1.6979,-1.669,-1.6504,-1.6676,-1.6925,0.0,-1.7682,-1.8484,-1.9252,-1.9893,-2.008,0.0,0.0,0.0,-2.0022,-1.9832,-1.9658,-1.9707,-1.9989,-2.0213,-2.022,-1.9989,-2.0328,-2.0436,-2.0436,-2.0615,-2.068,-2.068,-2.05,-2.0436,-2.0436,-2.0155,-2.0108,-2.0309,-1.9619,-1.9492,0.0,-1.9789,-1.9721,-1.9545,-2.0494,-2.0773,-2.0704,-2.1623,-2.1806,-2.1629,-2.1995,-2.2274,-2.2476,-2.2207,-2.2695,-2.3347,-2.3497,-2.3546,-2.3546,-2.3546,-2.3497,-2.3397,-2.3546,-2.3497,-2.3397,-2.3397,-2.3397,-2.3397,-2.3397,-2.3097,-2.2937,-2.3097,-2.2896,-2.2736,-2.3097,-2.3297,-2.3447,-2.3546,-2.3845,-2.4003,-2.3954,-2.4102,-2.4202,-2.4202,-2.3785,-2.327,-2.2702,-2.2336,-2.1944,-2.1544,-2.1374,-2.1365,-2.1517,-2.1526,-2.1526,-2.1526,-2.1526,-2.1383,-2.115,-2.1302,-2.1248,-2.0997,-2.1293,-2.1293,-2.4258,-2.3875,-2.3138,-2.3453,-2.2568,-2.1212,0.0,0.0,-1.8502,-1.7263,-1.7047,-1.7113,-1.7113,-1.6878,-1.6713,-1.6793,0.0,-1.7291,-1.7544,-1.8158,-1.8857,0.0,0.0,-1.9804,0.0,-2.033,-2.032,-1.9952,-1.9764,-1.9764,-1.9931,-2.0155,-2.0155,-1.9815,-2.0162,-2.027,-2.0155,-2.027,-2.027,-2.027,-2.0213,-2.0155,-2.0155,-1.972,-1.9617,-1.9644,-1.8818,-1.8527,0.0,-1.886,-1.8812,-1.8675,-1.9678,-1.9911,-1.982,-2.0644,-2.0742,-2.0488,-2.0834,-2.1119,-2.1382,-2.1296,-2.1827,-2.2594,-2.3046,-2.3197,-2.3297,-2.3297,-2.3297,-2.3247,-2.3197,-2.3197,-2.3247,-2.3197,-2.3147,-2.3147,-2.3147,-2.2736,-2.2485,-2.2795,-2.2535,-2.2384,-2.2896,-2.3197,-2.3361,-2.3336,-2.3574,-2.3722,-2.3624,-2.3623,-2.3681,-2.3926,-2.3541,-2.3142,-2.2837,-2.2405,-2.1933,-2.1329,-2.1195,-2.1195,-2.1392,-2.1482,-2.1482,-2.1392,-2.1392,-2.1248,-2.0907,-2.1105,-2.106,-2.0826,-2.1069,-2.1105,-2.3952,-2.3883,-2.3486,-2.3486,-2.1802,-1.9983,0.0,0.0,-1.7326,-1.7279,-1.7279,-1.7279,-1.7279,-1.7106,-1.6979,-1.6986,-1.7259,0.0,-1.7524,-1.8291,-1.8925,0.0,0.0,-1.9553,-2.0212,-2.0621,-2.0665,-2.0298,-2.027,0.0,-2.027,-2.027,-2.0155,-1.9815,-2.0162,-2.0155,-1.9815,-2.0162,-2.027,-2.027,-1.9982,-1.9815,-1.9802,-1.9172,-1.9085,-1.9383,-1.8744,-1.8651,0.0,-1.8283,-1.7989,-1.8063,-1.8594,-1.8826,-1.893,-1.9768,-2.0138,-2.0086,-2.0138,-2.0138,-2.0241,-2.1062,-2.1326,-2.1479,-2.2342,-2.2795,-2.2996,-2.2996,-2.2996,-2.2946,-2.2695,-2.2795,-2.2946,-2.2695,-2.2603,-2.2603,-2.2603,-2.2333,-2.2182,-2.2544,-2.2535,-2.2577,-2.2946,-2.3197,-2.3313,-2.3116,-2.2925,-2.2877,-2.3062,-2.2568,-2.2535,-2.3317,-2.3059,-2.2765,-2.2591,-2.2593,-2.2157,-2.1086,-2.1248,-2.1392,-2.1392,-2.1607,-2.1607,-2.1392,-2.1392,-2.1167,-2.0699,-2.0699,-2.0564,-2.0292,-2.0564,-2.0826,-2.3175,-2.3527,-2.373,-2.3167,-2.2296,-2.1281,-2.0386,0.0,-1.8866,-1.8032,-1.7846,-1.7707,-1.7372,-1.7239,-1.7297,-1.7552,-1.769,0.0,0.0,0.0,0.0,-1.9475,-1.9976,-2.0257,0.0,0.0,-2.0491,-2.0558,-2.078,-2.101,-2.1167,-2.1365,-2.0859,-1.9565,-2.0189,-2.0408,-2.0125,-2.0231,-2.0338,-2.0551,-1.9873,-1.9432,-1.9179,-1.9236,-1.8951,-1.8464,-1.8484,-1.8303,-1.7989,-1.7809,-1.7729,-1.7716,-1.7932,-1.7996,-1.8101,-1.893,-1.8878,-1.8468,-1.9034,-1.919,-1.9242,-1.9502,-1.9975,-2.0652,-2.1471,-2.219,-2.2745,-2.2745,-2.2745,-2.2695,-2.2594,-2.2644,-2.2695,-2.2594,-2.2594,-2.2594,-2.2594,-2.2182,-2.1928,-2.2182,-2.1928,-2.1827,-2.2283,-2.2485,-2.2593,-2.2921,-2.2693,-2.2633,-2.2868,-2.2713,-2.273,-2.2988,-2.3139,-2.2944,-2.2372,-2.2167,-2.1699,-2.0833,-2.0699,-2.0753,-2.0934,-2.097,-2.097,-2.0925,-2.0934,-2.0744,-2.0428,-2.0609,-2.0654,-2.0564,-2.0654,-2.0654,0.0,-2.3175,-2.3459,-2.3121,-2.2382,0.0,0.0,-1.9717,-1.8958,-1.7986,-1.78,-1.7707,-1.738,-1.7279,-1.737,-1.7633,-1.7907,0.0,0.0,0.0,0.0,-1.989,0.0,0.0,0.0,-2.0729,-2.0924,-2.1196,-2.141,-2.1635,-2.1895,-2.2086,-2.1475,-2.0072,-2.0415,-2.0482,-2.0251,-2.0033,-2.0017,-2.0213,-1.9649,-1.9212,-1.8925,-1.8998,-1.8738,-1.8217,-1.8163,-1.7996,0.0,-1.7629,-1.7582,-1.7582,-1.7582,-1.7582,-1.7687,-1.8153,-1.8048,-1.7687,-1.8153,-1.8363,-1.8415,-1.8722,-1.9398,-2.0241,-2.1062,-2.1937,-2.2594,-2.2594,-2.2594,-2.2594,-2.2594,-2.2594,-2.2594,-2.2594,-2.2594,-2.2594,-2.2434,-2.203,-2.1725,-2.1928,-2.1674,-2.1573,-2.203,-2.2173,-2.2324,-2.2488,-2.216,-2.2028,-2.2264,-2.1957,-2.1852,-2.2296,-2.2385,-2.2254,-2.1772,-2.1756,-2.1465,-2.0607,-2.0473,-2.0518,-2.0699,-2.0781,-2.0781,-2.0699,-2.0699,-2.0564,-2.0292,-2.0473,-2.0564,-2.0564,-2.0564,-2.0473,0.0,-2.2651,-2.273,-2.3058,-2.2085,-2.0844,-1.9983,-1.8956,0.0,-1.7512,-1.7372,-1.7333,-1.7355,-1.7301,-1.7301,-1.7344,-1.7904,0.0,0.0,-1.8976,0.0,0.0,-2.0585,0.0,-2.1096,-2.1467,-2.1823,-2.2082,-2.2165,-2.2294,-2.2435,-2.2505,-2.207,-2.1178,-2.0865,-2.0528,-2.0264,-1.9782,-1.9499,-1.9482,-1.9403,-1.9178,-1.8885,-1.8611,-1.8464,0.0,-1.7849,-1.7769,-1.7935,-1.7702,-1.7582,-1.7582,-1.7582,-1.7582,-1.7582,-1.7582,-1.7582,-1.7582,-1.7582,-1.7582,-1.7687,-1.8461,-1.9294,-2.013,-2.0909,-2.1784,-2.2493,-2.2594,-2.2594,-2.2594,-2.2594,-2.2594,-2.2594,-2.2594,-2.2594,-2.2493,-2.2182,-2.1878,-2.1674,-2.1674,-2.1674,-2.1725,-2.1971,-2.2224,-2.2265,-2.1924,-2.1413,-2.1157,-2.1452,-2.0646,-2.0441,-2.145,-2.1219,-2.0942,-2.0883,-2.1419,-2.1344,-2.0335,-2.0518,-2.0654,-2.0654,-2.0862,-2.0871,-2.0699,-2.0654,-2.0564,-2.0292,-2.0292,-2.0292,-2.0292,-2.0292,-2.0292,-2.1285,0.0,-2.1238,-2.0827,-2.0593,-2.0394,0.0,0.0,-1.9096,-1.8542,0.0,-1.7882,-1.7702,-1.7447,-1.7494,-1.7991,0.0,-1.8416,-1.8644,0.0,0.0,-1.99,-2.0405,-2.0697,-2.0508,-2.1172,-2.1777,-2.2059,-2.2958,-2.3358,-2.3094,-2.3266,-2.3129,-2.2599,-2.1917,-2.1325,-2.088,-2.0736,-2.0523,-2.0378,-1.9469,-1.8878,-1.8591,-1.8524,-1.8237,-1.7802,-1.7896,-1.7842,-1.7689,-1.7609,-1.7582,-1.7582,-1.7582,-1.7582,-1.7582,-1.7582,-1.7483,-1.7331,-1.7536,-1.7483,-1.7384,-1.774,-1.8415,-1.9138,-1.9346,-2.0431,-2.1725,-2.2392,-2.2594,-2.2594,-2.2594,-2.2594,-2.2594,-2.2594,-2.2594,-2.2493,-2.2182,-2.1878,-2.1623,-2.142,-2.1224,-2.1121,-2.1173,-2.1224,-2.1293,-2.1407,-2.1113,-2.1016,-2.1543,-2.1374,-2.1246,-2.1406,-2.1613,-2.1499,-2.0925,-2.1053,-2.089,-2.0317,-2.0382,-2.0382,-2.0382,-2.0419,-2.0419,-2.0382,-2.0382,-2.0382,-2.0292,-2.0292,-2.0292,-2.0292,-2.0292,-2.0292,-2.0609,-2.0609,-2.06,-2.039,-2.0337,-2.0201,-1.9828,0.0,0.0,0.0,0.0,0.0,0.0,0.0,0.0,0.0,-1.8609,0.0,0.0,0.0,-2.021,-2.0224,-2.0363,-2.0612,0.0,-2.1231,-2.1635,-2.2224,-2.2887,-2.3159,-2.2835,-2.2956,-2.2889,-2.245,-2.2022,-2.1546,-2.1086,-2.0644,-2.0243,-1.9882,-1.9084,-1.8571,-1.829,-1.829,-1.8029,-1.7595,-1.7762,-1.7736,-1.7582,-1.7582,-1.7582,-1.7582,-1.7582,-1.7582,-1.7582,-1.7582,-1.743,-1.7232,-1.7384,-1.7331,-1.7226,-1.7529,-1.7891,-1.8311,-1.867,-1.945,-2.0439,-2.1674,-2.2291,-2.2594,-2.2594,-2.2594,-2.2594,-2.2594,-2.2594,-2.2493,-2.2182,-2.1878,-2.1623,-2.1369,-2.107,-2.0925,-2.0925,-2.0925,-2.0976,-2.107,-2.0833,-2.0758,-2.1164,-2.1213,-2.1157,-2.1018,-2.1306,-2.1251,-2.066,-2.0609,-2.0514,-2.0309,-2.0292,-2.0292,-2.0292,-2.0292,-2.0292,-2.0292,-2.0201,-2.011,-2.011,-2.0027,-1.9982,-1.9982,-1.9982,-2.0027,-2.036,-2.0377,-2.0446,-2.0673,-2.054,-2.0201,0.0,0.0,0.0,0.0,0.0,0.0,0.0,-1.8375,0.0,0.0,0.0,0.0,-2.0106,-2.0274,-2.0365,-2.0559,-2.0465,0.0,-2.1496,-2.1399,-2.1636,-2.2458,-2.2544,-2.2503,-2.2328,-2.2295,-2.2121,-2.1691,-2.1725,-2.147,-2.1002,-2.0182,-1.9478,-1.8964,-1.8557,-1.8235,-1.7995,-1.7942,-1.7782,-1.7582,0.0,0.0,-1.7582,-1.7582,-1.7582,-1.7582,-1.7582,-1.7582,-1.7582,-1.7529,-1.7378,-1.712,-1.7073,-1.7126,-1.7226,-1.7483,-1.7582,-1.774,-1.8408,-1.8722,-1.9086,-2.0601,-2.1683,-2.2392,-2.2443,-2.2544,-2.2603,-2.2544,-2.2544,-2.2434,-2.208,-2.1827,-2.1573,-2.1267,-2.107,-2.0925,-2.0925,-2.0925,-2.0925,-2.0925,-2.0623,-2.0516,-2.0889,-2.0778,-2.0689,-2.0617,-2.0768,-2.072,-2.0326,-2.0292,-2.0292,-2.0292,-2.0292,-2.0292,-2.0292,-2.0246,-2.0246,-2.0246,-1.9973,-1.9845,-1.9845,-1.9671,-1.9587,-1.9587,-1.9587,-1.9671,-2.0703,-2.0788,-2.0682,-2.018,-2.0161,-2.0201,0.0,0.0,0.0,0.0,0.0,0.0,0.0,-1.9031,-1.8677,0.0,0.0,-1.9548,0.0,0.0,-2.0455,-1.9984,0.0,-2.1001,-2.0889,-2.1481,-2.2039,-2.249,-2.27,-2.2671,-2.2311,-2.2295,-2.2121,-2.1691,-2.1725,-2.1461,-2.0939,-2.0347,-1.9758,-1.9244,-1.8237,-1.7812,-1.7982,-1.7516,-1.7424,-1.7582,0.0,-1.7582,-1.7582,-1.7582,-1.7582,-1.7582,-1.7582,-1.7582,-1.7582,-1.7331,-1.706,-1.6736,-1.653,-1.6749,-1.7232,-1.7232,-1.743,-1.7635,-1.774,-1.8258,-1.893,-1.9472,-2.0506,-2.1522,-2.1776,-2.2241,-2.2544,-2.2232,-2.2182,-2.203,-2.1522,-2.1369,-2.1275,-2.1019,-2.0925,-2.0925,-2.0925,-2.0925,-2.0925,-2.0925,-2.0623,-2.0696,-2.145,-2.1073,-2.0829,-2.1241,-2.1054,-2.072,-2.0326,-2.0292,-2.0292,-2.0292,-2.0292,-2.0292,-2.0292,-2.0065,-1.9973,-1.9973,-1.9762,-1.9633,-1.9633,-1.9633,-1.9587,-1.9587,-1.9587,-1.9633,-2.0514,-2.0566,-2.0566,-2.0462,-2.0661,-2.0853,0.0,0.0,0.0,0.0,0.0,0.0,0.0,0.0,-1.9917,-2.0979,0.0,-2.0918,-2.1402,-2.1287,-2.1068,0.0,0.0,-2.1227,-2.1182,-2.1549,-2.1837,-2.1904,-2.2041,-2.195,-2.155,-2.1525,-2.1453,-2.1275,-2.1275,-2.115,-2.0903,-2.0367,-1.9744,-1.9094,-1.809,-1.7682,-1.7796,-1.755,-1.7483,-1.7582,0.0,-1.7582,-1.7582,-1.7582,-1.7582,-1.7582,-1.7582,-1.7529,-1.7331,-1.6855,-1.669,-1.6677,-1.6371,-1.6583,-1.6955,-1.712,-1.7378,-1.7582,-1.7582,-1.7838,-1.8311,-1.9063,-2.0034,-2.1003,-2.1573,-2.1928,-2.2131,-2.2072,-2.2072,-2.1971,-2.1623,-2.142,-2.1275,-2.1121,-2.1019,-2.0925,-2.0925,-2.0925,-2.0925,-2.0925,-2.0883,-2.1024,-2.1403,-2.1312,-2.1149,-2.1118,-2.0977,-2.072,-2.0326,-2.0292,-2.0292,-2.0292,-2.0155,-2.0155,-2.0292,-1.9936,-1.9799,-1.9882,-1.9571,-1.9387,-1.9387,-1.925,-1.9158,-1.9158,-1.9158,-1.925,-2.0449,-2.0429,-2.0523,-2.0908,0.0,0.0,0.0,0.0,0.0,0.0,0.0,0.0,0.0,-2.1139,0.0,-2.2234,-2.2204,-2.2204,-2.2561,-2.2167,-2.1791,-2.1637,-2.1494,-2.1408,-2.149,-2.1532,-2.1534,-2.1436,-2.1325,-2.1159,-2.0933,-2.0925,-2.0925,-2.0925,-2.0925,-2.0925,-2.0925,-2.0241,-1.9591,-1.8993,-1.8119,-1.7635,-1.7582,-1.7529,-1.7529,-1.7582,-1.7582,-1.7582,-1.7582,-1.7582,-1.7582,-1.7582,-1.7582,-1.7378,-1.7014,-1.6483,-1.6371,-1.6465,-1.6264,-1.6424,-1.673,-1.7008,-1.7325,-1.7582,-1.7582,-1.7582,-1.7845,-1.8959,-1.9732,-2.0439,-2.1412,-2.1827,-2.1928,-2.1979,-2.203,-2.1928,-2.1573,-2.1369,-2.1224,-2.1224,-2.1019,-2.0925,-2.0925,-2.0925,-2.0925,-2.0968,-2.11,-2.1233,-2.1404,-2.1436,-2.1387,-2.1191,-2.1062,-2.0848,-2.0463,-2.0298,-2.0201,-2.0201,-2.0019,-1.9973,-2.0201,-1.9754,-1.9579,-1.9745,-1.9325,-1.9104,-1.9104,-1.892,-1.8781,-1.8781,-1.8781,-1.892,-2.083,-2.0886,-2.0925,-2.1285,-2.0865,0.0,-2.1251,-2.1156,0.0,-2.1345,0.0,0.0,0.0,-2.2097,-2.2143,-2.2033,-2.2306,-2.2569,-2.2927,0.0,-2.227,-2.1698,-2.1819,-2.1751,-2.1162,-2.1285,-2.1399,-2.1404,-2.1095,-2.0948,-2.0925,-2.0925,-2.0925,-2.0925,-2.0925,-2.0925,-2.0925,-1.9894,-1.9338,-1.9256,-1.8398,-1.7852,-1.7582,-1.7331,-1.7384,-1.7582,-1.7582,-1.7582,-1.7582,-1.7582,-1.7582,-1.7582,-1.7582,-1.7265,-1.6683,-1.643,-1.6158,-1.5945,-1.5945,-1.6258,-1.6677,-1.673,-1.7107,-1.7582,-1.7582,-1.7582,-1.7845,-1.8959,-1.9324,-1.9732,-2.1318,-2.2139,-2.2392,-2.1878,-2.1725,-2.1573,-2.107,-2.0917,-2.0925,-2.0925,-2.0917,-2.0925,-2.0925,-2.0925,-2.0968,-2.1224,-2.1034,-2.1129,-2.1946,-2.15,-2.1343,-2.1884,-2.1593,-2.1225,-2.0874,-2.0276,-1.9936,-1.9936,-1.9928,-1.9936,-1.9936,-1.9471,-1.9234,-1.9234,-1.8958,-1.8827,-1.8827,-1.8827,-1.8781,-1.8781,-1.8781,-1.8827,-2.0746,-2.0833,-2.0917,-2.1045,-2.1037,0.0,0.0,-2.2062,-2.207,-2.2398,-2.2278,0.0,0.0,0.0,-2.321,-2.3365,-2.3686,-2.3978,-2.4119,-2.3556,-2.2973,-2.2726,-2.2291,-2.1805,-2.1307,-2.1173,-2.1071,-2.1071,-2.0798,-2.0686,-2.0909,-2.0925,-2.0925,-2.0925,-2.0925,-2.0813,-2.0599,-1.9882,-1.9271,-1.865,-1.7868,-1.7325,-1.7054,-1.6948,-1.6948,-1.7054,-1.7054,-1.7054,-1.7047,-1.7272,-1.7325,-1.7331,-1.7107,-1.7054,-1.6955,-1.6264,-1.6105,-1.6105,-1.5945,-1.6258,-1.6677,-1.6677,-1.71,-1.7582,-1.7582,-1.7582,-1.7793,-1.8729,-1.8997,-1.9406,-2.1208,-2.1878,-2.1979,-2.1725,-2.1725,-2.1573,-2.1019,-2.0925,-2.0925,-2.0925,-2.0925,-2.0925,-2.0925,-2.0925,-2.0917,-2.1019,-2.1204,-2.1467,-2.181,-2.1533,-2.1471,-2.1953,-2.1448,-2.0879,-2.0319,-2.0066,-1.9845,-1.9716,-1.9563,-1.9517,-1.9716,-1.9196,-1.9012,-1.9188,-1.892,-1.8781,-1.8781,-1.8781,-1.8781,-1.8781,-1.8781,-1.8781,-2.0826,-2.09,-2.1052,-2.1119,0.0,0.0,-2.2652,-2.273,-2.2705,-2.3032,-2.2903,-2.2774,-2.2774,0.0,0.0,0.0,-2.4307,-2.4598,-2.4487,-2.3741,-2.3145,-2.3091,-2.2317,-2.1663,-2.1262,-2.1008,-2.0877,-2.0766,-2.0527,-2.0448,-2.0583,-2.0694,-2.0702,-2.0591,-2.0694,-2.0583,-2.0234,-1.9579,-1.8872,-1.8059,-1.7215,-1.6736,-1.655,-1.655,-1.6552,-1.6475,-1.6475,-1.6526,-1.6603,-1.6819,-1.6983,-1.7008,-1.669,-1.669,-1.6802,-1.6158,-1.5998,-1.6164,-1.5945,-1.6258,-1.6677,-1.6677,-1.71,-1.7582,-1.7582,-1.7582,-1.7793,-1.8565,-1.8826,-1.919,-2.0893,-2.1471,-2.1573,-2.1573,-2.1623,-2.1573,-2.1121,-2.0968,-2.0925,-2.0925,-2.0925,-2.0925,-2.0925,-2.0968,-2.107,-2.1121,-2.1522,-2.1878,-2.1979,-2.1834,-2.1876,-2.2141,-2.1499,-2.0849,-2.0306,-2.0079,-1.9874,-1.966,-1.942,-1.9317,-1.9496,-1.9178,-1.9039,-1.9058,-1.8874,-1.8781,-1.8781,-1.8781,-1.8781,-1.8781,-1.8781,-1.8781,-2.1132,-2.1203,-2.1446,0.0,0.0,0.0,-2.3173,-2.3021,-2.2705,-2.304,-2.3117,-2.3117,-2.3117,-2.3417,0.0,-2.3177,-2.3742,-2.4102,-2.3751,-2.3196,-2.2674,-2.2328,-2.1764,-2.1254,-2.0956,-2.0917,-2.0774,-2.0416,-2.0392,-2.0234,-1.9933,-2.0202,-2.0226,-1.9925,-2.0202,-2.0218,-1.9917,-1.8833,-1.7995,-1.7498,-1.6406,-1.6049,-1.6317,-1.6317,-1.617,-1.5966,-1.5973,-1.6126,-1.6265,-1.6323,-1.6482,-1.6677,-1.6371,-1.6324,-1.6271,-1.5992,-1.5885,-1.5885,-1.5885,-1.6258,-1.6677,-1.6677,-1.7107,-1.7582,-1.7582,-1.7582,-1.7793,-1.8565,-1.8774,-1.9034,-2.0174,-2.0901,-2.1275,-2.1326,-2.1522,-2.1623,-2.1377,-2.107,-2.0925,-2.0925,-2.0925,-2.0925,-2.0925,-2.1121,-2.1369,-2.1674,-2.1928,-2.2232,-2.2544,-2.2594,-2.2594,-2.2585,-2.1867,-2.1318,-2.1094,-2.0456,-1.9958,-1.973,-1.951,-1.935,-1.9212,-1.9318,-1.9193,-1.8789,-1.8781,-1.8781,-1.8781,-1.8781,-1.8781,-1.8781,-1.8781,-1.8781,-2.141,-2.1409,0.0,-2.1573,0.0,0.0,0.0,-2.2882,0.0,0.0,-2.3502,-2.3425,-2.316,-2.3417,0.0,-2.3177,-2.352,-2.3794,-2.3691,-2.3127,-2.2716,-2.2616,-2.1849,-2.1285,-2.1181,-2.0796,-2.0512,-2.04,-2.0162,-2.002,-1.9917,-2.0012,-2.002,-1.9917,-2.0012,-1.9909,-1.9566,-1.8342,-1.7518,-1.7128,-1.5901,-1.5363,-1.5477,-1.5477,-1.5434,-1.5372,-1.5557,-1.5685,-1.5771,-1.6119,-1.6455,-1.6677,-1.6371,-1.6153,-1.5986,-1.5725,-1.5614,-1.5614,-1.5614,-1.5952,-1.6424,-1.6424,-1.6849,-1.7331,-1.7331,-1.743,-1.7635,-1.7891,-1.8108,-1.8377,-1.8885,-1.9613,-2.0344,-2.1121,-2.1522,-2.1623,-2.1377,-2.107,-2.0925,-2.0925,-2.0925,-2.0925,-2.0925,-2.1121,-2.1326,-2.1428,-2.1827,-2.2139,-2.2192,-2.2439,-2.2388,-2.1807,-2.1644,-2.1332,-2.0878,-2.0179,-1.9827,-1.9838,-1.9542,-1.9375,-1.9358,-1.9112,-1.8939,-1.8781,-1.8781,-1.8781,-1.8781,-1.8781,-1.8781,-1.8781,-1.8781,-1.8781,-2.1724,-2.1853,0.0,-2.2121,-2.2535,-2.3056,-2.3314,0.0,0.0,0.0,-2.3657,-2.3426,-2.3255,-2.3453,0.0,-2.31,-2.3358,-2.3548,-2.3445,-2.2971,-2.2621,-2.2621,-2.1894,-2.1317,-2.1107,-2.0642,-2.0229,-2.0003,-1.9837,-1.9654,-1.9455,-1.959,-1.9654,-1.9455,-1.9646,-1.955,-1.9161,-1.7903,-1.7141,-1.6814,-1.5561,-1.4869,-1.4793,-1.4902,-1.489,-1.4805,-1.5179,-1.5342,-1.5372,-1.5899,-1.6143,-1.6203,-1.6051,-1.5839,-1.5566,-1.5515,-1.5499,-1.5517,-1.562,-1.5917,-1.6324,-1.6324,-1.6696,-1.7179,-1.7179,-1.7384,-1.7582,-1.7582,-1.7747,-1.7957,-1.8422,-1.9198,-2.0086,-2.0917,-2.1377,-2.1522,-2.1471,-2.1275,-2.1027,-2.0925,-2.0925,-2.0925,-2.0925,-2.1121,-2.1326,-2.142,-2.1928,-2.2257,-2.2244,-2.2465,-2.2414,-2.191,-2.1698,-2.141,-2.094,-2.0427,-2.0152,-2.0108,-1.9805,-1.9614,-1.9614,-1.9233,-1.8978,-1.8781,-1.8781,-1.8781,-1.8781,-1.8781,-1.8781,-1.8781,-1.8781,-1.8689,-2.2108,0.0,0.0,-2.2905,-2.3087,0.0,-2.3936,-2.3878,-2.3831,-2.4156,0.0,-2.3255,-2.3478,-2.3478,-2.3399,-2.3016,-2.3242,-2.3356,-2.3049,-2.271,-2.2525,-2.2525,-2.1968,-2.1394,-2.0883,-2.0451,-1.9983,-1.9494,-1.9415,-1.9217,-1.8797,-1.9145,-1.9169,-1.8789,-1.9153,-1.9161,-1.8781,-1.7559,-1.6857,-1.6588,-1.5255,-1.4544,-1.4304,-1.4564,-1.4552,-1.4358,-1.4859,-1.5101,-1.5179,-1.5632,-1.5692,-1.5493,-1.5475,-1.5306,-1.5101,-1.5342,-1.5445,-1.5499,-1.5734,-1.6015,-1.6271,-1.6271,-1.6696,-1.7179,-1.7179,-1.7384,-1.7582,-1.7582,-1.7635,-1.7845,-1.8617,-1.9406,-2.0189,-2.0763,-2.1121,-2.142,-2.1623,-2.1471,-2.1173,-2.0976,-2.0925,-2.0925,-2.0917,-2.1121,-2.1369,-2.1674,-2.2182,-2.2544,-2.2544,-2.2594,-2.2594,-2.2544,-2.1995,-2.1495,-2.123,-2.0923,-2.0674,-2.044,-2.0051,-1.9885,-1.9917,-1.9566,-1.9169,-1.8835,-1.8781,-1.8781,-1.8781,-1.8781,-1.8781,-1.8781,-1.8781,-1.855,-2.229,-2.2686,0.0,0.0,-2.3713,-2.4113,-2.4339,-2.4112,-2.3964,-2.4342,-2.4289,-2.4035,-2.3582,-2.3478,-2.3297,-2.2755,-2.2915,-2.3092,-2.3005,-2.2784,-2.264,-2.264,-2.1959,-2.1389,-2.1284,-2.0597,-2.0023,-1.966,-1.951,-1.9217,-1.8797,-1.8899,-1.8907,-1.8781,-1.8861,-1.8907,-1.8781,-1.738,-1.6676,-1.6588,-1.5112,-1.4346,-1.4298,-1.4358,-1.4473,-1.463,-1.4751,-1.5034,-1.5409,-1.5312,-1.5366,-1.5481,-1.527,-1.5034,-1.4805,-1.4865,-1.5016,-1.5197,-1.5258,-1.56,-1.5998,-1.6217,-1.653,-1.6842,-1.712,-1.7384,-1.7582,-1.7582,-1.7747,-1.8062,-1.867,-1.9153,-1.9739,-2.0668,-2.1275,-2.1623,-2.1674,-2.1326,-2.0976,-2.0917,-2.0925,-2.0976,-2.1173,-2.1275,-2.1369,-2.1674,-2.1979,-2.2232,-2.2232,-2.2443,-2.2493,-2.2232,-2.1912,-2.1559,-2.1306,-2.0803,-2.0562,-2.079,-1.9971,-1.9646,-1.9901,-1.9272,-1.8907,-1.8781,-1.8781,-1.8781,-1.8781,-1.8781,-1.8781,-1.8781,-1.8781,-1.8735,-2.2601,0.0,0.0,-2.3869,0.0,-2.4321,-2.4566,-2.435,-2.4179,-2.4575,-2.4195,-2.3683,-2.3489,-2.3454,-2.3384,-2.3182,-2.3297,-2.3285,-2.309,-2.2944,-2.2836,-2.261,-2.1951,-2.1431,-2.1204,-2.0467,-1.9909,-1.9487,-1.9386,-1.9166,-1.8835,-1.8781,-1.8781,-1.8781,-1.8781,-1.8781,-1.8781,-1.7466,-1.6723,-1.6588,-1.5159,-1.4442,-1.4298,-1.4298,-1.4377,-1.4521,-1.466,-1.4871,-1.5125,-1.5113,-1.5113,-1.5113,-1.4974,-1.4751,-1.4545,-1.4811,-1.4992,-1.5143,-1.5396,-1.5662,-1.5945,-1.6217,-1.6477,-1.6736,-1.712,-1.7384,-1.7582,-1.7582,-1.7687,-1.7957,-1.8468,-1.8833,-1.9257,-2.0145,-2.0814,-2.1369,-2.1471,-2.1275,-2.107,-2.0925,-2.0925,-2.0917,-2.107,-2.1224,-2.1369,-2.1674,-2.1928,-2.2072,-2.2072,-2.2232,-2.2232,-2.1928,-2.1674,-2.1471,-2.1318,-2.0902,-2.0655,-2.0662,-1.9799,-1.9365,-1.963,-1.8879,-1.855,-1.8781,-1.8781,-1.8781,-1.8781,-1.8781,-1.8781,-1.8781,-1.8781,-1.8689,0.0,0.0,-2.3654,-2.4426,-2.4446,0.0,-2.4643,-2.4459,-2.4303,-2.4551,-2.3889,-2.3247,-2.3447,-2.3456,-2.3555,-2.3696,-2.3692,-2.3529,-2.3147,-2.3033,-2.2826,-2.2501,-2.1881,-2.1364,-2.0957,-2.0297,-1.9745,-1.9333,-1.9234,-1.9096,-1.8874,-1.8827,-1.8781,-1.8781,-1.8781,-1.8781,-1.8781,-1.7606,-1.6857,-1.6588,-1.5213,-1.44,-1.4154,-1.4202,-1.425,-1.431,-1.4539,-1.4672,-1.4733,-1.4902,-1.4865,-1.4714,-1.466,-1.4503,-1.4358,-1.4859,-1.5071,-1.5179,-1.5656,-1.5849,-1.5945,-1.6264,-1.653,-1.6783,-1.7166,-1.743,-1.7582,-1.7582,-1.7582,-1.774,-1.8265,-1.8572,-1.8878,-1.9472,-2.0145,-2.0712,-2.0968,-2.0968,-2.0917,-2.0763,-2.0865,-2.0952,-2.0837,-2.1132,-2.1404,-2.1541,-2.1836,-2.2021,-2.2021,-2.2021,-2.1928,-2.1674,-2.142,-2.1275,-2.1224,-2.0963,-2.071,-2.0408,-1.9603,-1.9212,-1.9383,-1.8645,-1.8442,-1.8876,-1.8859,-1.8813,-1.8923,-1.8813,-1.8781,-1.8781,-1.8735,-1.8458,0.0,0.0,-2.4285,0.0,-2.474,-2.4409,0.0,0.0,-2.417,0.0,-2.399,-2.4003,-2.3805,-2.3755,-2.3696,-2.3506,-2.331,-2.3165,-2.3111,-2.2697,-2.2373,-2.2318,-2.159,-2.1077,-2.0987,-2.0317,-1.9882,-1.9791,-1.9417,-1.9188,-1.9142,-1.892,-1.8781,-1.8781,-1.8781,-1.8781,-1.8781,-1.7606,-1.6857,-1.6588,-1.4831,-1.3883,-1.3588,-1.3835,-1.407,-1.4298,-1.4334,-1.4491,-1.4702,-1.4491,-1.4527,-1.469,-1.4449,-1.4328,-1.4334,-1.4654,-1.4914,-1.5149,-1.5445,-1.5698,-1.5998,-1.6471,-1.6677,-1.6789,-1.7371,-1.7582,-1.7582,-1.7582,-1.7582,-1.774,-1.8265,-1.8422,-1.8632,-1.922,-1.9428,-1.9583,-1.9835,-1.9732,-1.9687,-2.0138,-2.0755,-2.1076,-2.057,-2.1115,-2.1466,-2.0997,-2.1418,-2.1776,-2.1776,-2.1776,-2.1674,-2.1369,-2.1326,-2.1224,-2.0968,-2.0639,-2.044,-2.04,-1.974,-1.9368,-1.9376,-1.8971,-1.8885,-1.9296,-1.8994,-1.8978,-1.9304,-1.8978,-1.8781,-1.8781,-1.8365,-1.8179,-2.2998,-2.3862,-2.4612,0.0,-2.4966,-2.4686,-2.4587,0.0,-2.4341,-2.4242,-2.4202,-2.4102,-2.3854,-2.3805,-2.3723,-2.3497,-2.3365,-2.319,-2.2735,-2.2455,-2.2199,-2.197,-2.1374,-2.0997,-2.0997,-2.0464,-2.0065,-1.9928,-1.9617,-1.9342,-1.9188,-1.8966,-1.8781,-1.8781,-1.8781,-1.8781,-1.8781,-1.7699,-1.6669,-1.5737,-1.4502,-1.3835,-1.3738,-1.3835,-1.3979,-1.407,-1.425,-1.437,-1.4473,-1.4346,-1.437,-1.4467,-1.4346,-1.4298,-1.4334,-1.4612,-1.4883,-1.5149,-1.5409,-1.5779,-1.6211,-1.6571,-1.6842,-1.706,-1.7477,-1.7582,-1.7582,-1.7582,-1.7582,-1.7635,-1.7898,-1.795,-1.8003,-1.8272,-1.8586,-1.8848,-1.8945,-1.9361,-1.9887,-2.0454,-2.0814,-2.0971,-2.0718,-2.1017,-2.1218,-2.1115,-2.1322,-2.1471,-2.1471,-2.1471,-2.1369,-2.1121,-2.0806,-2.0625,-2.0639,-2.0186,-1.9936,-1.9844,-1.9295,-1.8989,-1.9074,-1.8636,-1.8575,-1.8924,-1.887,-1.9098,-1.9694,-1.8816,-1.8512,-1.8691,-1.7984,-1.766,0.0,0.0,0.0,0.0,-2.4963,-2.4883,0.0,0.0,-2.4578,0.0,-2.4307,-2.4045,-2.375,-2.37,-2.365,-2.3496,-2.3325,-2.2977,-2.2364,-2.219,-2.2025,-2.1733,-2.1275,-2.0962,-2.0864,-2.0548,-2.0124,-1.9757,-1.9654,-1.9492,-1.9157,-1.883,-1.8647,-1.8647,-1.8605,-1.8605,-1.8692,-1.7662,-1.6393,-1.4987,-1.4172,-1.3738,-1.369,-1.369,-1.3738,-1.3835,-1.416,-1.4298,-1.4298,-1.4298,-1.4298,-1.4298,-1.4298,-1.4298,-1.434,-1.469,-1.4938,-1.5155,-1.5481,-1.5887,-1.6324,-1.663,-1.6955,-1.7226,-1.7536,-1.7582,-1.7582,-1.7582,-1.7582,-1.7582,-1.7582,-1.7582,-1.7582,-1.7582,-1.8003,-1.8422,-1.8579,-1.9413,-2.0241,-2.0609,-2.0814,-2.0893,-2.0805,-2.0912,-2.0987,-2.095,-2.1057,-2.1062,-2.0909,-2.0814,-2.0712,-2.0514,-2.0172,-2.0018,-2.0166,-1.9794,-1.9483,-1.9407,-1.8807,-1.8542,-1.8604,-1.8179,-1.8052,-1.8399,-1.8395,-1.8746,-1.9394,-1.8369,-1.8021,-1.8263,-1.749,-1.7099,0.0,-2.3444,0.0,0.0,0.0,0.0,0.0,0.0,0.0,-2.4529,-2.4182,-2.3816,-2.3574,-2.3526,-2.3517,-2.3499,-2.2849,-2.2327,-2.2327,-2.1961,-2.1714,-2.1696,-2.1275,-2.0864,-2.0553,-2.04,-2.0001,-1.929,-1.946,-1.943,-1.9023,-1.8596,-1.8327,-1.8327,-1.8001,-1.7985,-1.8319,-1.7179,-1.5967,-1.4694,-1.3925,-1.3394,-1.3147,-1.3147,-1.3292,-1.3539,-1.4064,-1.4298,-1.4298,-1.4298,-1.4298,-1.4298,-1.4298,-1.4298,-1.4358,-1.489,-1.5095,-1.5179,-1.5692,-1.6039,-1.6324,-1.663,-1.6955,-1.7226,-1.7536,-1.7582,-1.7582,-1.7582,-1.7582,-1.7582,-1.7582,-1.7582,-1.7582,-1.7582,-1.8003,-1.8586,-1.9116,-1.968,-2.0138,-2.0138,-2.055,-2.0813,-2.048,-2.0897,-2.1009,-2.0178,-2.0339,-2.0336,-1.9835,-1.9576,-1.9383,-1.9376,-1.9513,-1.9628,-1.9656,-1.9513,-1.9415,-1.9376,-1.8574,-1.8148,-1.8133,-1.7613,-1.7534,-1.7919,-1.7596,-1.7596,-1.7997,-1.7548,-1.734,-1.7355,-1.6871,-1.6629,0.0,0.0,0.0,0.0,0.0,-2.4699,0.0,-2.4649,-2.4807,-2.4445,-2.3987,-2.3586,-2.3547,-2.3288,-2.3023,-2.2757,-2.2474,-2.219,-2.1934,-2.1778,-2.1696,-2.1696,-2.1428,-2.1195,-2.1105,-2.0544,-2.0051,-1.9817,-1.9249,-1.8811,-1.8679,-1.8443,-1.8192,-1.7969,-1.8057,-1.7702,-1.684,-1.6478,-1.5717,-1.4434,-1.3956,-1.3618,-1.3394,-1.3721,-1.3727,-1.3539,-1.4064,-1.4298,-1.4298,-1.4298,-1.4298,-1.4298,-1.4298,-1.4298,-1.4322,-1.4515,-1.4795,-1.5145,-1.5507,-1.6064,-1.6612,-1.6897,-1.7219,-1.7483,-1.7582,-1.7582,-1.7582,-1.7582,-1.7582,-1.7582,-1.7582,-1.7845,-1.8213,-1.8586,-1.8848,-1.9063,-1.9279,-1.999,-2.0609,-2.0609,-2.0581,-2.0443,-2.0015,-1.9898,-1.969,-1.9044,-1.9077,-1.9127,-1.9132,-1.9067,-1.9118,-1.9483,-1.9463,-1.9496,-1.9753,-1.9296,-1.895,-1.8915,-1.8286,-1.7836,-1.7621,-1.7419,-1.729,-1.7327,-1.702,-1.7311,-1.8243,-1.7311,-1.6971,-1.7163,-1.6442,-1.6218,-2.2603,0.0,0.0,0.0,0.0,-2.424,-2.4304,0.0,-2.4535,-2.4165,-2.371,-2.3324,-2.3134,-2.2767,-2.2446,-2.23,-2.2172,-2.1989,-2.1733,-2.1696,-2.1696,-2.1696,-2.1526,-2.1293,-2.0925,-2.043,-1.9887,-1.941,-1.8818,0.0,-1.83,-1.8088,-1.7795,-1.7429,-1.7553,-1.7045,-1.5848,-1.5708,-1.5139,-1.4062,-1.3773,-1.3538,-1.3408,-1.3737,-1.3783,-1.3636,-1.4022,-1.4202,-1.4298,-1.4298,-1.4298,-1.4298,-1.4298,-1.4298,-1.431,-1.4401,-1.4747,-1.5134,-1.54,-1.6037,-1.671,-1.686,-1.7226,-1.7562,-1.7468,-1.7508,-1.7582,-1.7582,-1.7582,-1.7582,-1.7582,-1.7845,-1.8265,-1.8848,-1.9011,-1.9063,-1.9272,-1.999,-2.0557,-2.0411,-2.0081,-1.9741,-1.9439,-1.9109,-1.8686,-1.8158,-1.8108,-1.8224,-1.8492,-1.8434,-1.8658,-1.9394,-1.9154,-1.9064,-1.9475,-1.8897,-1.853,-1.8491,-1.7874,-1.7426,-1.7217,-1.7068,-1.6881,-1.6746,-1.6704,-1.6995,-1.7703,-1.6793,-1.6504,-1.6801,-1.6265,-1.6086,0.0,0.0,0.0,0.0,0.0,0.0,-2.4421,0.0,-2.4007,-2.3756,-2.3341,-2.293,-2.2419,-2.1997,-2.1815,-2.2199,-2.1943,-2.1696,-2.1696,-2.1696,-2.1696,-2.1696,-2.1508,-2.1023,-2.0018,-2.0035,-1.9522,-1.8151,-1.8322,-1.8308,-1.7919,-1.7516,-1.7104,-1.6721,-1.6457,-1.6027,-1.5497,-1.4878,-1.4224,-1.3559,-1.3229,-1.313,-1.3198,-1.3145,-1.3389,-1.3883,-1.3931,-1.407,-1.4298,-1.4298,-1.4298,-1.4298,-1.4298,-1.4298,-1.4328,-1.4606,-1.4844,-1.5122,-1.5388,-1.6018,-1.6626,-1.641,-1.6896,-1.7508,-1.7286,-1.74,-1.7569,-1.7582,-1.7582,-1.7582,-1.7635,-1.7635,-1.774,-1.8265,-1.8422,-1.8586,-1.9116,-1.968,-1.9879,-1.9361,-1.8994,-1.8774,-1.876,-1.8546,-1.8136,-1.7527,-1.7428,-1.7589,-1.7904,-1.768,-1.7924,-1.9125,-1.8629,-1.8331,-1.8644,-1.8396,-1.8214,-1.8207,-1.7477,-1.7016,-1.7002,-1.6565,-1.6328,-1.6348,-1.6547,-1.6547,-1.6335,-1.5985,-1.5985,-1.6308,-1.6321,-1.6266,-2.2008,0.0,0.0,0.0,0.0,0.0,0.0,0.0,0.0,-2.3284,-2.2996,-2.2793,-2.2602,-2.2097,-2.1733,-2.1833,-2.176,-2.1696,-2.1696,-2.1696,-2.1696,-2.1696,-2.1377,-2.1025,-2.0582,-2.0162,-1.9667,0.0,-1.849,-1.8069,-1.7978,-1.7266,-1.6961,-1.7127,-1.658,-1.5867,-1.4909,-1.4382,-1.3787,-1.3236,-1.2785,-1.287,-1.3432,-1.3432,-1.3625,-1.3931,-1.4118,-1.425,-1.4298,-1.4298,-1.4298,-1.4298,-1.4298,-1.4298,-1.4304,-1.4383,-1.4703,-1.5139,-1.5411,-1.5903,-1.6441,-1.6567,-1.677,-1.6974,-1.7159,-1.7259,-1.7367,-1.7522,-1.7582,-1.7687,-1.8055,-1.7898,-1.774,-1.8265,-1.8422,-1.8318,-1.8108,-1.8475,-1.8873,-1.8913,-1.8657,-1.8265,-1.7689,-1.7292,-1.6888,-1.6361,-1.6265,-1.6373,-1.6726,-1.6693,-1.6985,-1.7924,-1.8009,-1.8224,-1.8665,-1.8497,-1.8278,-1.8051,-1.7505,-1.7059,-1.6792,-1.6484,-1.6522,-1.6951,-1.6359,-1.6239,-1.6587,-1.6293,-1.6079,-1.5959,-1.6172,-1.6159,-2.1874,-2.183,-2.1733,-2.1897,0.0,0.0,-2.2447,-2.2843,-2.3085,0.0,-2.2801,-2.2666,-2.2496,-2.2121,-2.183,-2.1741,-2.1696,-2.1696,-2.1696,-2.1696,-2.1632,-2.1449,-2.1255,-2.085,-2.0233,-1.9931,-1.9613,-1.9142,-1.8431,-1.7829,-1.7498,-1.6965,-1.6833,-1.704,-1.6117,-1.5346,-1.4692,-1.3752,-1.3064,-1.2653,-1.2342,-1.2517,-1.3037,-1.3182,-1.3479,-1.3931,-1.407,-1.4208,-1.4298,-1.4298,-1.4298,-1.4298,-1.4298,-1.4298,-1.4298,-1.4298,-1.464,-1.5108,-1.5267,-1.5735,-1.6279,-1.6326,-1.6506,-1.6714,-1.6817,-1.7005,-1.7239,-1.7407,-1.7488,-1.766,-1.7852,-1.775,-1.7687,-1.8003,-1.8055,-1.7969,-1.7533,-1.7662,-1.7971,-1.8105,-1.7866,-1.7457,-1.6856,-1.6505,-1.6157,-1.5825,-1.5784,-1.5986,-1.6573,-1.6607,-1.6967,-1.7953,-1.8007,-1.8119,-1.8554,-1.8265,-1.798,-1.786,-1.7421,-1.7125,-1.6901,-1.6777,-1.679,-1.7012,-1.658,-1.6377,-1.6371,-1.6184,-1.6059,-1.6019,-1.6089,-1.6027,-2.1696,-2.1696,-2.1778,-2.2126,-2.1952,0.0,-2.267,-2.2608,-2.2441,0.0,0.0,-2.2583,-2.2185,-2.2097,-2.1963,-2.1741,-2.1696,-2.1696,-2.1696,-2.1696,-2.1549,-2.1218,-2.1099,-2.0589,-1.9484,-1.9607,-1.9491,-1.8715,-1.8339,-1.7728,-1.6818,-1.6784,-1.6776,-1.6697,-1.5438,-1.4727,-1.465,-1.313,-1.2246,-1.2,-1.1957,-1.2124,-1.2455,-1.2643,-1.3153,-1.3883,-1.3883,-1.4022,-1.425,-1.4298,-1.4298,-1.4298,-1.4298,-1.4298,-1.4298,-1.4346,-1.4688,-1.5083,-1.5083,-1.5579,-1.6179,-1.5864,-1.6131,-1.6567,-1.6339,-1.669,-1.7112,-1.7146,-1.736,-1.7475,-1.7266,-1.742,-1.7575,-1.7542,-1.7535,-1.7455,-1.7213,-1.7152,-1.7146,-1.7112,-1.684,-1.6567,-1.6273,-1.6005,-1.5784,-1.5784,-1.5784,-1.6082,-1.6912,-1.6947,-1.738,-1.8513,-1.812,-1.7932,-1.829,-1.7845,-1.7582,-1.7582,-1.7393,-1.7246,-1.7246,-1.7186,-1.7038,-1.676,-1.6947,-1.6623,-1.5823,-1.5761,-1.5917,-1.6177,-1.5927,-1.5823,-2.1785,-2.1696,-2.1705,-2.1787,-2.1751,0.0,-2.1922,-2.2063,-2.2185,0.0,-2.223,-2.223,-2.2097,-2.1919,-2.1785,-2.1696,-2.1696,-2.1696,-2.1696,-2.1696,-2.1659,-2.1577,-2.0991,-2.0398,-1.9822,-1.9809,-1.9614,-1.911,-1.8908,-1.8314,-1.7249,-1.7421,-1.731,-1.6713,-1.5727,-1.4936,-1.444,-1.2881,-1.2037,-1.2,-1.1613,-1.1905,-1.2734,-1.2546,-1.2867,-1.3593,-1.3786,-1.3931,-1.3973,-1.4202,-1.4298,-1.4298,-1.4298,-1.4298,-1.4346,-1.4544,-1.4838,-1.5083,-1.5083,-1.5449,-1.5858,-1.5607,-1.5762,-1.6032,-1.6219,-1.6402,-1.6543,-1.6727,-1.7058,-1.7273,-1.7213,-1.742,-1.7522,-1.734,-1.7286,-1.7206,-1.6854,-1.6794,-1.672,-1.6536,-1.64,-1.6266,-1.5965,-1.5818,-1.5784,-1.5784,-1.5784,-1.5939,-1.6378,-1.6419,-1.6691,-1.7446,-1.7404,-1.7475,-1.7713,-1.7635,-1.7582,-1.7582,-1.7528,-1.7502,-1.7502,-1.7041,-1.6874,-1.7112,-1.6497,-1.5875,-1.5255,-1.5478,-1.5484,-1.531,-1.5255,-1.5255,-2.1741,-2.1696,-2.1696,-2.1696,-2.1696,0.0,0.0,-2.2008,-2.2141,-2.222,-2.2105,-2.1986,-2.2059,-2.1831,-2.1625,-2.1704,-2.1696,-2.1696,-2.1696,-2.1696,-2.1614,-2.1403,-2.1062,-2.0571,-1.9905,-1.9979,-1.9835,-1.9148,-1.9051,-1.8485,-1.736,-1.7631,-1.7533,-1.7024,-1.5993,-1.5266,-1.483,-1.3077,-1.212,-1.2,-1.1641,-1.1843,-1.2466,-1.2404,-1.2709,-1.3298,-1.3588,-1.3786,-1.3931,-1.4208,-1.4298,-1.4298,-1.4298,-1.4298,-1.4298,-1.4442,-1.4742,-1.5083,-1.5083,-1.541,-1.5784,-1.5683,-1.5737,-1.5811,-1.6005,-1.6152,-1.6348,-1.6446,-1.67,-1.6894,-1.6804,-1.6927,-1.7108,-1.6961,-1.6927,-1.6847,-1.6553,-1.6486,-1.64,-1.6112,-1.6052,-1.6005,-1.5804,-1.5784,-1.5784,-1.5784,-1.5952,-1.6052,-1.6052,-1.644,-1.6817,-1.6965,-1.7239,-1.7474,-1.7569,-1.7582,-1.7469,-1.7225,-1.7316,-1.725,-1.6955,-1.6671,-1.6463,-1.6362,-1.579,-1.5306,-1.4885,-1.5022,-1.5124,-1.5083,-1.4981,-1.4885,-2.1687,-2.1696,-2.1696,-2.1696,-2.1696,-2.1785,0.0,0.0,0.0,-2.222,0.0,0.0,0.0,0.0,0.0,0.0,0.0,0.0,0.0,-2.1696,0.0,-2.1374,-2.12,-2.0773,-1.9995,-2.0095,-1.9817,-1.9062,-1.9084,-1.8624,-1.7552,-1.7787,-1.7787,-1.7432,-1.6287,-1.5543,-1.5229,-1.3347,-1.2268,-1.1944,-1.1789,-1.1822,-1.21,-1.2301,-1.2639,-1.305,-1.3394,-1.3636,-1.3835,-1.416,-1.4298,-1.4298,-1.4298,-1.4298,-1.4298,-1.4346,-1.464,-1.5035,-1.5083,-1.5363,-1.573,-1.573,-1.5784,-1.5784,-1.5784,-1.5999,-1.6186,-1.6186,-1.64,-1.6567,-1.6382,-1.6486,-1.6693,-1.664,-1.662,-1.6547,-1.6246,-1.6186,-1.6119,-1.5831,-1.5784,-1.5784,-1.5784,-1.5784,-1.5784,-1.5784,-1.6032,-1.6119,-1.5939,-1.654,-1.6958,-1.6727,-1.7128,-1.7415,-1.7415,-1.7415,-1.7218,-1.6838,-1.6921,-1.6808,-1.6332,-1.6216,-1.5855,-1.5267,-1.5047,-1.479,-1.4454,-1.4454,-1.4598,-1.4844,-1.4646,-1.4496,-2.1785,-2.1696,-2.1696,-2.1696,-2.1696,-2.1696,-2.1741,0.0,-2.1731,-2.1776,0.0,0.0,0.0,0.0,0.0,0.0,0.0,0.0,-2.1641,-2.1696,-2.1806,-2.2153,-2.1548,-2.0925,-2.0472,-1.9756,-1.9237,-1.9046,-1.9331,-1.9159,-1.8252,-1.8518,-1.8406,-1.7775,-1.6698,-1.576,-1.4966,-1.3268,-1.2176,-1.1749,-1.1732,-1.1822,-1.21,-1.2301,-1.2538,-1.2861,-1.3298,-1.3539,-1.3588,-1.4106,-1.4298,-1.4298,-1.4298,-1.4298,-1.4346,-1.4592,-1.4688,-1.479,-1.5035,-1.5267,-1.554,-1.554,-1.5635,-1.5784,-1.5784,-1.5852,-1.5879,-1.5879,-1.6092,-1.6319,-1.6328,-1.6486,-1.664,-1.6386,-1.6375,-1.6246,-1.5945,-1.5879,-1.5872,-1.5791,-1.5784,-1.5784,-1.5784,-1.5784,-1.5784,-1.5784,-1.5811,-1.5965,-1.6192,-1.6362,-1.646,-1.668,-1.6767,-1.6807,-1.6807,-1.6807,-1.6794,-1.671,-1.6515,-1.6358,-1.6325,-1.5823,-1.5212,-1.4443,-1.4412,-1.416,-1.3636,-1.3636,-1.3781,-1.4027,-1.4027,-1.3883,-2.1731,-2.1696,-2.1696,-2.1696,-2.1696,-2.1696,-2.1696,-2.1696,-2.1696,-2.1696,0.0,0.0,0.0,0.0,0.0,0.0,-2.1549,0.0,0.0,0.0,-2.1751,0.0,0.0,0.0,-2.0642,-2.0137,-1.9711,-1.9385,-1.9497,-1.924,-1.8364,-1.8637,-1.8597,-1.8097,-1.6998,-1.6178,-1.5676,-1.364,-1.2462,-1.2098,-1.1832,-1.1752,-1.186,-1.2242,-1.2563,-1.2809,-1.3284,-1.3593,-1.3738,-1.416,-1.4298,-1.4298,-1.4496,-1.4448,-1.4298,-1.4442,-1.4592,-1.4742,-1.5035,-1.5267,-1.554,-1.5635,-1.573,-1.5784,-1.5784,-1.5784,-1.5784,-1.5784,-1.5919,-1.6012,-1.6012,-1.6106,-1.6166,-1.6046,-1.6012,-1.5979,-1.5804,-1.5784,-1.5784,-1.5784,-1.5784,-1.5784,-1.5784,-1.5784,-1.5784,-1.5784,-1.5979,-1.6072,-1.6019,-1.6313,-1.6506,-1.646,-1.6607,-1.6707,-1.6707,-1.6563,-1.634,-1.6021,-1.5614,-1.5377,-1.5377,-1.5166,-1.4709,-1.407,-1.407,-1.3877,-1.3491,-1.3491,-1.3491,-1.3443,-1.3593,-1.3588,-2.1696,-2.1651,-2.1607,-2.1696,-2.1597,-2.1508,-2.1607,-2.1607,-2.1607,-2.1508,-2.1396,0.0,0.0,0.0,-2.1245,-2.1623,0.0,-2.1559,0.0,-2.1607,0.0,0.0,0.0,0.0,0.0,-2.0223,-1.9847,-1.9468,-1.943,-1.913,-1.8454,-1.8597,-1.8605,-1.8446,-1.7255,-1.6469,-1.6185,-1.4013,-1.2791,-1.2485,-1.2007,-1.1828,-1.1908,-1.2305,-1.2641,-1.2903,-1.3417,-1.3738,-1.3931,-1.4208,-1.4346,-1.4442,-1.464,-1.464,-1.4544,-1.4544,-1.464,-1.4838,-1.5124,-1.5356,-1.554,-1.573,-1.5689,-1.5642,-1.5689,-1.5689,-1.5594,-1.5594,-1.5594,-1.5642,-1.5689,-1.5737,-1.573,-1.5778,-1.5784,-1.5784,-1.5784,-1.5784,-1.5784,-1.5784,-1.5784,-1.5784,-1.5784,-1.5784,-1.5784,-1.5784,-1.6012,-1.6072,-1.5811,-1.6199,-1.6386,-1.6172,-1.629,-1.6368,-1.6368,-1.6127,-1.5746,-1.5297,-1.4896,-1.4688,-1.4592,-1.4496,-1.4262,-1.3786,-1.3738,-1.3545,-1.3298,-1.3298,-1.3201,-1.3001,-1.3249,-1.3346,0.0,0.0,0.0,-2.1651,-2.1365,-2.1087,-2.1347,-2.1392,-2.1347,-2.1096,-2.1356,-2.1633,-2.1437,-2.1225,-2.1245,-2.1623,-2.1348,0.0,0.0,0.0,0.0,0.0,0.0,0.0,0.0,-1.9601,-1.9185,-1.901,-1.9043,-1.8958,-1.8796,-1.8494,-1.847,-1.8758,-1.7372,-1.648,-1.6224,-1.4196,-1.3046,-1.277,-1.2289,-1.2208,-1.2393,-1.2645,-1.2919,-1.3136,-1.3636,-1.3883,-1.3931,-1.4208,-1.4442,-1.4688,-1.4688,-1.4838,-1.5083,-1.5083,-1.5083,-1.5131,-1.5404,-1.5493,-1.554,-1.573,-1.5499,-1.5178,-1.5452,-1.5315,-1.5131,-1.5131,-1.5131,-1.5172,-1.5452,-1.5493,-1.554,-1.5737,-1.5784,-1.5784,-1.5784,-1.5784,-1.5784,-1.5784,-1.5784,-1.5784,-1.5784,-1.5784,-1.5784,-1.5784,-1.5791,-1.5791,-1.5784,-1.5798,-1.5804,-1.5798,-1.5662,-1.5519,-1.5519,-1.5293,-1.5006,-1.4748,-1.4694,-1.4592,-1.4346,-1.407,-1.3786,-1.3539,-1.3249,-1.3055,-1.2813,-1.2813,-1.2813,-1.2813,-1.3001,-1.3001,0.0,0.0,-2.1392,-2.1275,0.0,0.0,0.0,-2.115,-2.1096,-2.0997,-2.1284,-2.1482,-2.1392,-2.1453,-2.1522,-2.1668,-2.1488,-2.1219,0.0,0.0,0.0,0.0,0.0,0.0,0.0,0.0,-1.9238,-1.901,-1.8892,-1.8681,-1.847,-1.8589,-1.8654,-1.8781,-1.7839,-1.7044,-1.6487,-1.4965,-1.3806,-1.3063,-1.2531,-1.2275,-1.2224,-1.2626,-1.2931,-1.3193,-1.3711,-1.4022,-1.416,-1.425,-1.4346,-1.4442,-1.464,-1.4838,-1.5083,-1.5083,-1.5083,-1.5131,-1.5404,-1.5493,-1.5493,-1.5588,-1.5356,-1.5131,-1.5226,-1.5172,-1.5083,-1.5083,-1.5083,-1.5131,-1.522,-1.5356,-1.5452,-1.5363,-1.5452,-1.5547,-1.5363,-1.5315,-1.5315,-1.5315,-1.5499,-1.5588,-1.5588,-1.573,-1.5784,-1.5784,-1.5784,-1.5784,-1.5784,-1.5683,-1.5588,-1.5588,-1.5363,-1.522,-1.522,-1.4981,-1.4736,-1.4442,-1.4262,-1.4118,-1.4022,-1.3781,-1.3491,-1.3244,-1.3147,-1.3001,-1.2813,-1.2813,-1.2813,-1.2813,-1.2861,-1.2861,-2.1042,-2.1051,0.0,-2.1042,-2.0862,0.0,-2.0862,0.0,-2.0862,-2.0772,-2.1105,-2.1347,-2.1293,-2.1517,-2.1696,-2.1696,-2.1517,-2.1203,0.0,-2.0351,-2.0088,-1.9817,-2.0218,-2.0312,0.0,-1.9662,-1.9381,-1.9026,-1.8892,-1.8726,-1.8486,-1.8589,-1.8692,-1.8781,-1.8071,-1.7365,-1.6636,-1.5444,-1.4368,-1.343,-1.2851,-1.2546,-1.2629,-1.2847,-1.3119,-1.3489,-1.3849,-1.416,-1.4298,-1.4298,-1.4346,-1.4442,-1.464,-1.5022,-1.5452,-1.5315,-1.522,-1.5267,-1.5452,-1.5404,-1.5207,-1.5309,-1.5118,-1.4838,-1.4933,-1.4885,-1.4838,-1.4933,-1.4885,-1.4838,-1.5035,-1.5172,-1.5213,-1.5131,-1.522,-1.5309,-1.5131,-1.5083,-1.5083,-1.5083,-1.522,-1.5356,-1.5356,-1.5458,-1.5594,-1.5784,-1.573,-1.5689,-1.5689,-1.5499,-1.5356,-1.5356,-1.5124,-1.4939,-1.4838,-1.464,-1.449,-1.4298,-1.407,-1.3883,-1.3883,-1.3539,-1.3298,-1.3098,-1.305,-1.291,-1.2813,-1.2813,-1.2813,-1.2813,-1.2813,-1.2813]}]]